     2              OBSERVATION DATA    GPS                 RINEX VERSION / TYPE
TRRINEXO-V2.3.1-LH UCLA/SCEC 28-FEB-1994                    PGM / RUN BY / DATE
                                                            COMMENT
Original Marker Name: U1451                                 COMMENT
Campaign Name: Northridge 1994                              COMMENT
4-Character Station Name: 0109                              COMMENT
6-Character Antenna Code: TRMSST                            COMMENT
Vertical Measurement Point: BGP                             COMMENT
Vertical Offset to Rinex Ref. Point: 0.0597                 COMMENT
Radial Measurement Point: NGP                               COMMENT
Radial Offset to Rinex Ref. Point: 0.2334                   COMMENT
Antenna Height from Field Measurement: 1.6110 m             COMMENT
Original XYZ: -2529314.0444 -4621176.5069 3583770.4603      COMMENT
New XYZ position is based on association with SCEC monument COMMENT
E1E9I8V0+0011. Position of that monument is believed to be  COMMENT
valid to within 1 m horizontally; vertical accuracy         COMMENT
should be no worse than 3-times this value.                 COMMENT
                                                            COMMENT
Revised Rinex header created by UCSD GPS archive for        COMMENT
GSAC on 19-Apr-1999 (1999:109) 15:26:01 GMT                 COMMENT
For assistance contact dagnew@ucsd.edu or hjohnson@ucsd.edu COMMENT
                                                            COMMENT
U1451                                                       MARKER NAME
J. ROEPEL LOS ANGELES COUNTY                                OBSERVER / AGENCY
1962 TRIMBLE 4000 SST 4.81                                  REC # / TYPE / VERS
430 TR 4000SST L1/L2 GEO                                    ANT # / TYPE
 -2529313.0000 -4621238.0000  3583811.0000                  APPROX POSITION XYZ
        1.5343        0.0000        0.0000                  ANTENNA: DELTA H/E/N
     1     2     0                                          WAVELENGTH FACT L1/2
     3    C1    L1    L2                                    # / TYPES OF OBSERV
    30                                                      INTERVAL
  1994     2    17    16    53   30.000000                  TIME OF FIRST OBS
  1994     2    17    22    59   60.000000                  TIME OF LAST OBS
     0                                                      # OF SATELLITES
                                                            END OF HEADER
 94  2 17 16 53 30.0000000  0  6 25  1 14 15 22 29
  21268378.578          -0.92017
  24687767.930          -0.98315
  21446593.086          -0.77117
  21480124.688          -0.91516
  23524125.805          -0.94415
  22849365.375          -0.51315
 94  2 17 16 54  0.0000000  0  6 25  1 14 15 22 29
  21279686.453       59418.390 7        -0.44318
  24703291.992       81620.296 5        -0.06213
  21434793.438      -61959.608 7        -0.14917
  21492694.180       66044.417 6        -0.05317
  23508372.203      -82750.456 5
  22839736.188      -50569.976 5        -0.41615
 94  2 17 16 54 30.0000000  0  6 25  1 14 15 22 29
  21291001.727      118866.138 7     46322.465 8
  24718752.875      162808.189 5     63263.145 4
  21422982.914     -124059.723 7    -48389.839 7
  21505280.289      132184.773 6     51537.843 7
  23492578.406     -165755.972 5    -32363.76212
  22830072.586     -101391.592 6    -39601.639 5
 94  2 17 16 55  0.0000000  0  6 25  1 14 15 22 29
  21302327.008      178406.689 7     92717.676 8
  24734129.953      243631.485 5    126242.216 3
  21411144.328     -186236.250 7    -96839.075 7
  21517892.266      198469.945 6    103188.583 7
  23476753.836     -248977.495 5    -97211.676 3
  22820366.250     -152404.975 6    -79352.302 5
 94  2 17 16 55 30.0000000  0  6 25  1 14 15 22 29
  21313690.156      238089.671 7    139223.872 8
  24749449.180      324135.961 5    188972.889 4
  21399320.148     -248429.625 7   -145301.437 7
  21530549.172      264952.854 6    154993.400 7
  23460874.656     -332369.223 5   -162192.242 2
  22810624.469     -203572.213 6   -119222.851 5
 94  2 17 16 56  0.0000000  0  6 25  1 14 15 22 29
  21325075.141      297926.898 7    185850.248 8
  24764706.602      404357.825 5    251483.321 4
  21387486.320     -310608.034 7   -193752.151 7
  21543238.250      331660.979 6    206973.717 7
  23444983.469     -415919.310 5   -227296.184 2
  22800868.172     -254853.306 6   -159182.126 5
 94  2 17 16 56 30.0000000  0  6 25  1 14 15 22 29
  21336494.602      357923.268 7    232600.638 8
  24779940.195      484338.874 5    313806.106 5
  21375657.609     -372751.167 7   -242175.373 7
  21555982.484      398618.510 6    259148.364 7
  23429057.031     -499605.662 5   -292506.351 2
  22791094.383     -306234.816 6   -199219.639 5
 94  2 17 16 57  0.0000000  0  6 25  1 14 15 22 29
  21347941.414      418098.788 7    279490.618 8
  24795107.273      564089.954 5    375949.689 4
  21363850.008     -434836.587 7   -290553.616 7
  21568773.133      465851.201 6    311537.426 7
  23413112.336     -583388.620 5   -357791.768 2
  22781302.391     -357716.229 6   -239335.008 5
 94  2 17 16 57 30.0000000  0  6 25  1 14 15 22 29
  21359429.180      478466.363 7    326530.250 8
  24810242.633      643610.082 5    437913.325 4
  21352037.469     -496850.412 7   -338876.077 7
  21581625.539      533373.462 6    364152.122 6
  23397159.094     -667244.797 5   -423134.248 2
  22771487.125     -409296.640 6   -279527.515 5
 94  2 17 16 58  0.0000000  0  6 25  1 14 15 22 29
  21370957.852      539027.681 7    373720.843 8
  24825325.586      722910.096 5    499705.450 3
  21340255.703     -558788.139 7   -387139.244 7
  21594529.398      601185.986 6    416992.999 6
  23381186.516     -751156.800 5   -488520.231 3
  22761648.758     -460974.031 6   -319795.597 5
 94  2 17 16 58 30.0000000  0  6 25  1 14 15 22 29
  21382526.586      599827.005 7    421096.897 8
  24840384.984      802019.470 4    561349.033 3
  21328484.617     -620627.838 7   -435326.014 7
  21607491.953      669308.540 6    470075.460 6
  23365217.148     -835080.054 5   -553915.010 3
  22751805.656     -512731.343 6   -360125.961 5
 94  2 17 16 59  0.0000000  0  6 25  1 14 15 22 29
  21394141.789      660871.385 7    468663.886 8
  24855401.078      880941.751 4    622846.807 2
  21316741.109     -682356.197 7   -483426.040 7
  21620513.484      737741.944 6    523400.142 6
  23349249.680     -918994.503 5   -619302.877 2
  22741937.430     -564551.616 6   -400505.375 5
 94  2 17 16 59 30.0000000  0  6 25  1 14 15 22 29
  21405808.000      722186.873 7    516442.130 8
  24870404.156      959728.887 3    684239.260 3
  21305016.969     -743940.291 7   -531413.645 7
  21633603.016      806508.464 6    576984.401 6
  23333284.570    -1002874.130 5   -684663.641 2
  22732069.859     -616389.480 6   -440898.497 5
 94  2 17 17  0  0.0000000  0  6 25  1 14 15 22 29
  21417536.242      783794.598 7    564448.101 8
  24885369.781     1038417.601 3    745555.044 2
  21293339.977     -805354.798 7   -579269.109 7
  21646749.117      875627.815 6    630843.592 6
  23317334.141    -1086680.835 5   -749967.555 4
  22722210.320     -668204.312 6   -481273.660 5
 94  2 17 17  0 30.0000000  0  6 25  1 14 15 22 29
  21429318.156      845729.283 7    612708.845 8
  24900334.992     1117031.401 3    806812.462 2
  21281685.000     -866569.122 7   -626968.579 7
  21659979.008      945129.255 6    685000.514 6
  23301409.844    -1170384.491 5   -815191.186 3
  22712365.500     -719965.437 6   -521606.978 5
 94  2 17 17  1  0.0000000  0  5 25 14 15 22 29
  21441168.031      907980.856 8    661216.523 8
  21270076.039     -927582.118 7   -674511.174 7
  21673275.039     1015011.278 6    739453.991 6
  23285498.008    -1253995.398 5   -880342.532 4
  22702515.039     -771686.226 6   -561908.873 5
 94  2 17 17  1 30.0000000  0  5 25 14 15 22 29
  21453073.992      970557.777 8    709977.709 7
  21258505.102     -988400.080 7   -721901.791 7
  21686649.344     1085275.168 6    794205.035 6
  23269605.250    -1337515.891 5   -945423.404 3
  22692691.812     -823369.866 6   -602181.817 5
 94  2 17 17  2  0.0000000  0  5 25 14 15 22 29
  21465037.734     1033435.644 8    758973.410 7
  21246955.563    -1049055.171 7   -769165.498 7
  21700095.867     1155902.985 6    849239.649 6
  23253729.563    -1420958.654 5  -1010443.711 4
  22682859.711     -875037.571 6   -642442.354 5
 94  2 17 17  2 30.0000000  0  5 25 14 15 22 29
  21477063.398     1096615.750 8    808204.627 7
  21235456.883    -1109554.130 7   -816307.532 7
  21713599.156     1226888.399 6    904552.919 6
  23237863.164    -1504340.197 5  -1075416.304 5
  22673015.258     -926698.655 6   -682697.719 5
 94  2 17 17  3  0.0000000  0  5 25 14 15 22 29
  21489143.398     1160101.907 7    857674.316 7
  21223962.750    -1169885.898 7   -863319.290 7
  21727173.883     1298232.189 6    960145.449 6
  23222004.406    -1587659.362 5  -1140340.314 4
  22663205.273     -978344.045 6   -722940.876 5
 94  2 17 17  3 30.0000000  0  5 25 14 15 22 29
  21501280.828     1223894.729 8    907382.967 7
  21212523.289    -1230039.304 7   -910192.071 7
  21740818.008     1369934.488 6   1016017.326 6
  23206166.086    -1670892.420 5  -1205197.207 4
  22653378.359    -1029948.552 6   -763152.169 5
 94  2 17 17  4  0.0000000  0  5 25 14 15 22 29
  21513481.969     1287991.896 8    957328.784 7
  21201115.344    -1289987.021 7   -956904.572 7
  21754532.055     1441995.415 6   1072168.658 6
  23190345.375    -1754026.251 5  -1269976.796 3
  22643566.953    -1081504.423 6   -803325.559 5
 94  2 17 17  4 30.0000000  0  5 25 14 15 22 29
  21525737.875     1352396.716 8   1007514.336 7
  21189754.133    -1349695.953 7  -1003430.998 7
  21768314.750     1514413.695 6   1128598.432 6
  23174548.266    -1837050.996 5  -1334671.368 4
  22633763.359    -1133010.794 6   -843460.390 5
 94  2 17 17  5  0.0000000  0  5 25 14 15 22 29
  21538043.648     1417087.953 7   1057923.065 7
  21178438.242    -1409150.976 7  -1049759.579 7
  21782162.953     1587185.748 6   1185303.894 6
  23158773.281    -1919949.622 5  -1399267.687 4
  22623970.336    -1184469.713 6   -883558.238 5
 94  2 17 17  5 30.0000000  0  5 25 14 15 22 29
  21550403.523     1482049.043 7   1108542.073 7
  21167167.742    -1468352.301 7  -1095890.465 7
  21796075.914     1660310.357 6   1242284.061 6
  23143028.602    -2002702.775 5  -1463750.665 4
  22614194.102    -1235876.975 6   -923615.842 5
 94  2 17 17  6  0.0000000  0  5 25 14 15 22 29
  21562819.859     1547278.620 7   1159370.299 7
  21155951.547    -1527302.189 7  -1141825.440 7
  21810055.648     1733789.501 6   1299540.491 6
  23127302.766    -2085321.469 5  -1528128.856 5
  22604416.352    -1287241.285 6   -963639.974 5
 94  2 17 17  6 30.0000000  0  5 25 14 15 22 29
  21575277.508     1612767.549 7   1210400.613 7
  21144773.477    -1586026.048 7  -1187584.286 7
  21824104.000     1807618.522 6   1357069.546 6
  23111606.813    -2167814.226 5  -1592408.931 5
  22594636.430    -1338572.249 6  -1003638.102 5
 94  2 17 17  7  0.0000000  0  5 25 14 15 22 29
  21587788.375     1678507.294 7   1261626.373 7
  21133641.453    -1644546.000 7  -1233184.242 7
  21838223.875     1881796.806 6   1414870.754 6
  23095930.680    -2250187.902 5  -1656596.206 5
  22584885.617    -1389861.406 6  -1043603.664 5
 94  2 17 17  7 30.0000000  0  5 25 14 15 22 29
  21600350.273     1744506.613 7   1313054.393 8
  21122541.125    -1702873.478 7  -1278634.228 7
  21852404.961     1956322.880 6   1472942.969 6
  23080274.945    -2332455.325 5  -1720700.699 5
  22575130.938    -1441109.115 6  -1083536.929 5
 94  2 17 17  8  0.0000000  0  5 25 14 15 22 29
  21612964.258     1810777.487 7   1364694.022 8
  21111485.500    -1760997.257 7  -1323925.479 7
  21866656.250     2031195.942 6   1531285.558 6
  23064643.727    -2414623.534 5  -1784727.878 5
  22565374.414    -1492321.475 6  -1123442.646 5
 94  2 17 17  8 30.0000000  0  5 25 14 15 22 29
  21625629.859     1877330.970 7   1416553.866 8
  21100457.766    -1818910.219 7  -1369052.448 7
  21880966.758     2106409.970 6   1589893.838 6
  23049025.063    -2496681.488 5  -1848669.159 5
  22555650.305    -1543500.362 6  -1163322.284 5
 94  2 17 17  9  0.0000000  0  5 25 14 15 22 29
  21638348.273     1944186.830 7   1468649.327 8
  21089488.414    -1876576.904 7  -1413987.532 7
  21895344.930     2181974.336 6   1648775.102 6
  23033430.836    -2578604.214 5  -1912505.048 5
  22545916.805    -1594628.369 6  -1203162.271 5
 94  2 17 17  9 30.0000000  0  5 25 14 15 22 29
  21651131.539     2011357.133 7   1520989.815 8
  21078562.992    -1933986.313 7  -1458722.139 7
  21909789.664     2257883.271 6   1707924.866 6
  23017872.469    -2660380.075 5  -1976226.505 5
  22536193.000    -1645718.514 6  -1242972.757 5
 94  2 17 17 10  0.0000000  0  5 25 14 15 22 29
  21663977.641     2078844.607 7   1573577.445 8
  21067693.219    -1991132.952 7  -1503251.984 7
  21924295.266     2334130.104 6   1767337.919 6
  23002346.133    -2741998.959 5  -2039825.635 5
  22526486.617    -1696770.098 6  -1282753.177 5
 94  2 17 17 10 30.0000000  0  5 25 14 15 22 29
  21676879.945     2146657.462 7   1626418.613 8
  21056864.242    -2048000.271 7  -1547564.175 7
  21938876.398     2410727.613 6   1827024.226 6
  22986847.219    -2823433.008 5  -2103280.743 5
  22516780.531    -1747757.566 6  -1322483.655 5
 94  2 17 17 11  0.0000000  0  5 25 14 15 22 29
  21689841.906     2214784.147 7   1679504.326 8
  21046097.531    -2104589.877 7  -1591659.969 7
  21953523.930     2487673.595 6   1886982.077 6
  22971384.617    -2904676.987 5  -2166587.718 4
  22507089.078    -1798682.540 6  -1362165.430 5
 94  2 17 17 11 30.0000000  0  5 25 14 15 22 29
  21702863.203     2283206.635 7   1732820.523 7
  21035381.906    -2160916.014 7  -1635550.458 7
  21968227.555     2564954.867 6   1947201.190 6
  22955961.477    -2985740.354 6  -2229753.959 5
  22497412.328    -1849558.169 6  -1401808.766 5
 94  2 17 17 12  0.0000000  0  5 25 14 15 22 29
  21715928.570     2351884.812 7   1786335.954 7
  21024708.070    -2216996.061 7  -1679249.197 7
  21982988.070     2642548.938 6   2007664.044 6
  22940566.281    -3066635.229 5  -2292788.889 5
  22487734.781    -1900404.515 6  -1441429.272 5
 94  2 17 17 12 30.0000000  0  5 25 14 15 22 29
  21729045.516     2420797.530 7   1840034.139 7
  21014087.703    -2272832.462 7  -1722758.080 7
  21997814.352     2720447.517 6   2068364.176 6
  22925208.750    -3147359.681 6  -2355691.011 5
  22478061.852    -1951232.563 6  -1481035.530 5
 94  2 17 17 13  0.0000000  0  5 25 14 15 22 29
  21742198.781     2489939.168 7   1893910.717 7
  21003498.500    -2328437.075 7  -1766086.340 7
  22012694.156     2798639.218 6   2129292.716 6
  22909875.820    -3227925.779 6  -2418469.713 5
  22468385.578    -2002057.275 6  -1520639.186 5
 94  2 17 17 13 30.0000000  0  5 25 14 15 22 29
  21755397.219     2559294.897 7   1947954.114 7
  20992965.961    -2383803.349 7  -1809228.887 7
  22027629.734     2877116.816 6   2190444.034 6
  22894568.641    -3308338.470 6  -2481128.887 5
  22458709.930    -2052878.135 6  -1560239.839 5
 94  2 17 17 14  0.0000000  0  5 25 14 15 22 29
  21768636.570     2628851.539 7   2002154.062 7
  20982480.375    -2438939.834 7  -1852192.376 7
  22042613.328     2955871.095 6   2251810.953 6
  22879295.156    -3388602.332 5  -2543672.062 5
  22449051.867    -2103697.261 6  -1599839.139 5
 94  2 17 17 14 30.0000000  0  5 25 14 15 22 29
  21781914.953     2698610.776 7   2056511.869 7
  20972027.891    -2493858.368 7  -1894986.036 7
  22057653.086     3034885.162 6   2313380.302 6
  22864046.242    -3468739.915 5  -2606116.848 5
  22439378.820    -2154526.042 6  -1639445.974 5
 94  2 17 17 15  0.0000000  0  5 25 14 15 22 29
  21795227.664     2768545.513 7   2111006.424 7
  20961610.094    -2548585.757 7  -1937630.754 7
  22072729.789     3114133.548 6   2375132.238 6
  22848812.297    -3548783.754 6  -2668488.569 5
  22429693.859    -2205386.265 6  -1679077.306 6
 94  2 17 17 15 30.0000000  0  5 25 14 15 22 29
  21808560.969     2838654.040 7   2165636.389 7
  20951234.641    -2603100.614 7  -1980109.862 7
  22087851.156     3193630.611 6   2437077.942 6
  22833600.469    -3628717.889 6  -2730774.813 5
  22420021.523    -2256255.034 6  -1718715.291 6
 94  2 17 17 16  0.0000000  0  5 25 14 15 22 29
  21821942.750     2908959.013 7   2220419.437 7
  20940902.617    -2657395.920 7  -2022417.889 8
  22103032.586     3273388.706 6   2499227.046 6
  22818417.859    -3708531.992 6  -2792967.529 5
  22410336.227    -2307117.331 6  -1758348.236 5
 94  2 17 17 16 30.0000000  0  5 25 14 15 22 29
  21835360.961     2979486.299 7   2275375.711 7
  20930624.922    -2711445.024 7  -2064534.072 8
  22118263.297     3353427.575 6   2561594.940 6
  22803255.898    -3788201.073 5  -2855047.229 5
  22400661.578    -2357957.820 6  -1797964.192 6
 94  2 17 17 17  0.0000000  0  5 25 14 15 22 29
  21848822.133     3050233.651 7   2330503.471 7
  20920385.391    -2765234.461 7  -2106447.917 8
  22133550.414     3433756.881 6   2624189.164 6
  22788126.070    -3867705.141 5  -2916998.360 5
  22390996.289    -2408751.227 6  -1837543.465 6
 94  2 17 17 17 30.0000000  0  5 25 14 15 22 29
  21862327.625     3121208.820 7   2385808.755 7
  20910192.023    -2818770.096 7  -2148163.990 8
  22148890.563     3514357.807 6   2686995.031 6
  22773028.914    -3947039.071 6  -2978816.928 6
  22381337.992    -2459511.523 6  -1877096.937 6
 94  2 17 17 18  0.0000000  0  5 25 14 15 22 29
  21875878.156     3192426.903 7   2441303.323 7
  20900055.359    -2872046.105 7  -2189677.765 8
  22164275.227     3595225.283 6   2750008.604 5
  22757973.828    -4026185.533 6  -3040489.415 5
  22371683.078    -2510250.466 6  -1916633.766 6
 94  2 17 17 18 30.0000000  0  5 25 14 15 22 29
  21889478.102     3263893.891 7   2496991.838 7
  20889966.703    -2925048.331 7  -2230978.210 8
  22179719.344     3676363.028 6   2813232.762 5
  22742948.953    -4105119.045 6  -3101995.984 5
  22362029.859    -2560961.839 6  -1956149.115 6
 94  2 17 17 19  0.0000000  0  5 25 14 15 22 29
  21903126.367     3335603.104 7   2552869.100 7
  20879934.195    -2977782.118 7  -2272069.475 8
  22195206.945     3757753.838 6   2876654.124 5
  22727964.203    -4183851.344 6  -3163345.769 6
  22352388.758    -2611650.172 6  -1995646.512 6
 94  2 17 17 19 30.0000000  0  5 25 14 15 22 29
  21916825.828     3407543.831 7   2608926.766 7
  20869950.469    -3030250.421 7  -2312953.870 7
  22210736.445     3839385.216 6   2940262.923 5
  22713021.531    -4262395.959 6  -3224549.315 5
  22342730.461    -2662344.989 6  -2035148.952 6
 94  2 17 17 20  0.0000000  0  5 25 14 15 22 29
  21930544.594     3479699.956 7   2665152.287 7
  20860017.570    -3082458.216 7  -2353635.278 7
  22226319.344     3921260.716 6   3004061.971 6
  22698105.523    -4340764.893 6  -3285615.974 6
  22333090.664    -2713038.798 6  -2074650.605 6
 94  2 17 17 20 30.0000000  0  5 25 14 15 22 29
  21944319.883     3552069.042 7   2721543.749 7
  20850129.539    -3134407.216 7  -2394115.021 7
  22241948.422     4003375.790 6   3068047.691 6
  22683225.430    -4418966.880 6  -3346552.548 5
  22323453.109    -2763726.198 6  -2114147.274 6
 94  2 17 17 21  0.0000000  0  5 25 14 15 22 29
  21958130.859     3624623.811 7   2778079.915 7
  20840295.742    -3186100.478 7  -2434395.483 7
  22257617.336     4085724.299 6   3132215.311 6
  22668376.281    -4497009.523 6  -3407364.959 5
  22313803.391    -2814417.249 6  -2153646.775 6
 94  2 17 17 21 30.0000000  0  5 25 14 15 22 29
  21971959.906     3697330.287 7   2834734.270 7
  20830502.102    -3237566.159 7  -2474498.623 7
  22273327.867     4168281.384 6   3196545.462 6
  22653550.617    -4574891.617 6  -3468052.276 5
  22304149.578    -2865147.806 6  -2193177.060 6
 94  2 17 17 22  0.0000000  0  5 25 14 15 22 29
  21985827.406     3770197.594 7   2891513.952 7
  20820746.992    -3288797.513 7  -2514419.157 7
  22289078.070     4251049.165 6   3261039.773 6
  22638766.180    -4652577.903 6  -3528587.012 5
  22294490.250    -2915901.952 6  -2232725.728 6
 94  2 17 17 22 30.0000000  0  5 25 14 15 22 29
  21999727.867     3843226.914 7   2948419.866 7
  20811056.156    -3339775.375 7  -2554142.171 7
  22304868.547     4334035.046 6   3325704.039 6
  22624029.828    -4730037.796 6  -3588945.336 5
  22284833.742    -2966670.891 6  -2272285.917 6
 94  2 17 17 23  0.0000000  0  5 25 14 15 22 29
  22013648.555     3916427.453 7   3005459.206 7
  20801399.688    -3390482.527 7  -2593654.250 7
  22320703.648     4417249.299 6   3390546.270 6
  22609337.813    -4807251.902 6  -3649112.136 5
  22275169.750    -3017432.887 6  -2311840.700 6
 94  2 17 17 23 30.0000000  0  5 25 14 15 22 29
  22027618.570     3989811.078 7   3062641.215 7
  20791799.055    -3440915.404 7  -2632952.598 7
  22336584.828     4500683.742 6   3455560.069 6
  22594689.156    -4884222.008 6  -3709088.820 5
  22265515.320    -3068187.890 6  -2351390.035 6
 94  2 17 17 24  0.0000000  0  5 25 14 15 22 29
  22041615.359     4063365.938 7   3119956.641 7
  20782260.828    -3491065.611 7  -2672030.686 7
  22352505.086     4584336.638 6   3520744.099 6
  22580086.570    -4960974.306 6  -3768895.769 5
  22255856.313    -3118918.242 6  -2390920.177 6
 94  2 17 17 24 30.0000000  0  6 25 18 14 15 22 29
  22055654.406     4137100.478 7   3177412.073 7
  24785613.688      -39875.19312
  20772776.609    -3540916.332 7  -2710875.407 7
  22368459.508     4668211.417 6   3586101.004 6
  22565520.164    -5037521.290 6  -3828542.745 5
  22246209.906    -3169618.143 6  -2430426.573 6
 94  2 17 17 25  0.0000000  0  6 25 18 14 15 22 29
  22069713.570     4211032.191 7   3235021.145 7
  24770442.852     -119668.410 2
  20763350.477    -3590449.388 7  -2749472.593 7
  22384467.867     4752308.044 6   3651630.789 6
  22550997.906    -5113863.982 6  -3888030.532 5
  22236566.750    -3220286.091 6  -2469908.090 6
 94  2 17 17 25 30.0000000  0  6 25 18 14 15 22 29
  22083818.930     4285151.326 7   3292776.252 7
  24755236.766     -199507.423 2        -0.24811
  20753982.164    -3639673.853 7  -2787829.321 7
  22400508.359     4836619.780 6   3717328.204 6
  22536500.094    -5190004.760 6  -3947360.990 5
  22226930.453    -3270937.658 6  -2509376.834 6
 94  2 17 17 26  0.0000000  0  6 25 18 14 15 22 29
  22097957.875     4359476.675 7   3350692.050 7
  24740048.852     -279374.446 2    -62234.259 2
  20744677.836    -3688582.551 7  -2825940.000 7
  22416599.445     4921162.475 6   3783205.578 6
  22522059.430    -5265921.702 6  -4006517.033 5
  22217293.766    -3321549.481 6  -2548814.612 6
 94  2 17 17 26 30.0000000  0  5 25 14 15 22 29
  22112151.133     4434014.464 7   3408773.394 7
  20735430.836    -3737181.284 7  -2863809.140 7
  22432727.836     5005934.084 6   3849261.325 6
  22507659.984    -5341593.671 6  -4065482.186 5
  22207673.313    -3372128.557 6  -2588226.872 6
 94  2 17 17 27  0.0000000  0  5 25 14 15 22 29
  22126375.391     4508746.924 7   3467006.432 7
  20726236.266    -3785480.713 7  -2901445.059 7
  22448905.398     5090931.258 6   3915492.841 6
  22493310.672    -5417005.685 6  -4124244.779 5
  22198052.039    -3422672.586 6  -2627611.828 6
 94  2 17 17 27 30.0000000  0  5 25 14 15 22 29
  22140632.781     4583674.569 7   3525391.558 7
  20717102.039    -3833470.509 7  -2938839.699 7
  22465123.281     5176168.634 6   3981911.527 5
  22479002.258    -5492137.626 6  -4182789.134 5
  22188447.367    -3473156.974 6  -2666950.303 6
 94  2 17 17 28  0.0000000  0  5 25 14 15 22 29
  22154923.125     4658798.550 7   3583929.669 7
  20708030.414    -3881138.119 7  -2975983.290 7
  22481386.352     5261644.523 6   4048516.072 5
  22464765.758    -5566988.999 6  -4241114.862 5
  22178859.242    -3523579.664 6  -2706240.696 6
 94  2 17 17 28 30.0000000  0  5 25 14 15 22 29
  22169254.031     4734122.768 7   3642623.805 7
  20699030.414    -3928456.437 7  -3012854.707 7
  22497703.781     5347365.210 6   4115311.362 5
  22450576.344    -5641548.638 6  -4299213.253 6
  22169270.297    -3573935.034 6  -2745478.643 6
 94  2 17 17 29  0.0000000  0  5 25 14 15 22 29
  22183635.547     4809666.385 7   3701488.899 7
  20690099.672    -3975387.078 7  -3049424.038 7
  22514064.516     5433340.944 6   4182305.393 5
  22436442.789    -5715809.236 6  -4357078.638 5
  22159703.625    -3624206.592 6  -2784651.278 6
 94  2 17 17 29 30.0000000  0  5 25 14 15 22 29
  22198047.195     4885434.555 7   3760528.985 6
  20681242.125    -4021926.705 7  -3085688.672 7
  22530468.094     5519567.128 6   4249494.575 5
  22422366.031    -5789783.776 6  -4414721.110 6
  22150150.930    -3674409.872 6  -2823770.711 6
 94  2 17 17 30  0.0000000  0  5 25 14 15 22 29
  22212517.953     4961438.897 7   3819753.101 6
  20672457.148    -4068081.311 7  -3121653.299 7
  22546927.781     5606041.918 6   4316877.462 5
  22408344.641    -5863457.831 6  -4472129.436 6
  22140616.609    -3724544.696 6  -2862836.794 6
 94  2 17 17 30 30.0000000  0  5 25 14 15 22 29
  22227030.258     5037688.414 7   3879168.258 7
  20663753.836    -4113838.513 7  -3157308.260 7
  22563431.328     5692773.522 6   4384460.476 5
  22394388.641    -5936808.823 6  -4529286.024 6
  22131087.078    -3774594.756 6  -2901836.826 6
 94  2 17 17 31  0.0000000  0  5 25 14 15 22 29
  22241579.305     5114173.253 7   3938766.781 6
  20655117.039    -4159206.502 7  -3192659.937 7
  22579979.219     5779755.620 6   4452238.684 5
  22380493.633    -6009834.438 6  -4586189.056 6
  22121577.797    -3824572.577 6  -2940780.579 6
 94  2 17 17 31 30.0000000  0  5 25 14 15 22 29
  22256172.125     5190881.807 7   3998539.633 6
  20646550.602    -4204224.882 7  -3227739.186 7
  22596577.953     5866976.348 6   4520202.815 5
  22366660.375    -6082537.433 6  -4642840.718 6
  22112079.359    -3874494.203 6  -2979680.538 6
 94  2 17 17 32  0.0000000  0  5 25 14 15 22 29
  22270813.734     5267810.182 7   4058483.767 6
  20638053.766    -4248881.591 7  -3262536.633 7
  22613218.195     5954435.485 6   4588352.725 5
  22352883.375    -6154907.505 6  -4699232.933 6
  22102590.594    -3924340.032 6  -3018521.436 6
 94  2 17 17 32 30.0000000  0  5 25 14 15 22 29
  22285491.727     5344935.414 7   4118581.295 6
  20629632.273    -4293162.822 7  -3297041.489 7
  22629909.453     6042123.777 5   4656681.203 5
  22339175.594    -6226961.427 6  -4755378.801 6
  22093124.648    -3974124.893 6  -3057314.828 6
 94  2 17 17 33  0.0000000  0  5 25 14 15 22 29
  22300198.852     5422251.946 7   4178827.891 6
  20621273.070    -4337072.512 7  -3331256.838 7
  22646636.469     6130035.719 6   4725183.947 5
  22325524.039    -6298696.937 6  -4811276.557 6
  22083657.031    -4023847.588 6  -3096059.779 6
 94  2 17 17 33 30.0000000  0  5 25 14 15 22 29
  22314960.734     5499780.298 7   4239239.538 6
  20612992.094    -4380585.213 7  -3365162.848 7
  22663406.016     6218184.124 5   4793870.943 5
  22311938.398    -6370091.088 6  -4866908.325 6
  22074206.727    -4073472.505 6  -3134728.540 6
 94  2 17 17 34  0.0000000  0  5 25 14 15 22 29
  22329748.969     5577516.684 7   4299813.303 6
  20604789.773    -4423672.792 7  -3398737.586 7
  22680230.930     6306569.006 6   4862742.228 5
  22298420.109    -6441128.175 6  -4922261.866 6
  22064787.836    -4122991.214 6  -3173314.551 6
 94  2 17 17 34 30.0000000  0  5 25 14 15 22 29
  22344572.500     5655442.641 7   4360534.778 6
  20596667.875    -4466367.736 7  -3432006.381 7
  22697083.500     6395159.949 6   4931774.054 5
  22284965.500    -6511827.542 6  -4977352.240 6
  22055375.398    -4172434.642 6  -3211841.882 6
 94  2 17 17 35  0.0000000  0  5 25 14 15 22 29
  22359451.258     5733587.909 7   4421427.143 6
  20588625.070    -4508654.487 7  -3464957.099 7
  22713989.266     6483968.380 6   5000975.371 5
  22271581.320    -6582170.970 6  -5032165.261 6
  22045989.508    -4221782.605 6  -3250294.828 6
 94  2 17 17 35 30.0000000  0  5 25 14 15 22 29
  22374365.227     5811966.515 7   4482501.328 6
  20580654.438    -4550518.849 7  -3497578.691 8
  22730931.656     6573007.261 6   5070356.242 5
  22258266.211    -6652144.464 6  -5086690.022 6
  22036618.961    -4271033.813 6  -3288672.385 6
 94  2 17 17 36  0.0000000  0  6 25 18 14 15 22 29
  22389322.820     5890569.871 7   4543750.646 6
  24435511.094      -40031.76213
  20572778.484    -4591968.199 7  -3529876.897 7
  22747915.734     6662273.756 6   5139914.494 5
  22245016.828    -6721751.815 6  -5140929.464 6
  22027265.859    -4320196.834 6  -3326981.216 6
 94  2 17 17 36 30.0000000  0  6 25 18 14 15 22 29
  22404310.789     5969359.124 7   4605144.820 6
  24420277.586     -120106.597 3    -31197.28611
  20564951.883    -4633030.549 7  -3561873.542 7
  22764942.734     6751734.495 5   5209624.098 5
  22231839.313    -6791022.733 6  -5194906.761 6
  22017921.766    -4369299.931 6  -3365243.375 6
 94  2 17 17 37  0.0000000  0  6 25 18 14 15 22 29
  22419348.414     6048339.110 7   4666687.604 6
  24405039.508     -200169.245 3
  20557216.602    -4673687.369 7  -3593554.198 7
  22782012.555     6841405.673 6   5279497.680 5
  22218726.781    -6859921.944 7  -5248594.407 6
  22008585.039    -4418321.330 6  -3403441.863 6
 94  2 17 17 37 30.0000000  0  6 25 18 14 15 22 29
  22434410.695     6127504.070 7   4728374.538 6
  24389813.227     -280203.510 2        -0.01611
  20549559.328    -4713940.556 7  -3624920.326 7
  22799115.789     6931295.502 6   5349541.627 5
  22205693.180    -6928435.947 7  -5301981.874 6
  21999269.094    -4467240.844 6  -3441560.950 6
 94  2 17 17 38  0.0000000  0  6 25 18 14 15 22 29
  22449498.969     6206853.434 7   4790205.157 6
  24374587.359     -360202.414 2    -62336.848 1
  20541972.680    -4753783.515 7  -3655966.796 7
  22816260.914     7021399.778 5   5419752.681 5
  22192724.961    -6996568.265 7  -5355071.935 6
  21989998.445    -4516038.196 6  -3479584.855 6
 94  2 17 17 38 30.0000000  0  6 25 18 14 15 22 29
  22464646.930     6286396.481 7   4852186.698 6
  24359365.055     -440168.122 3   -124647.767 1
  20534470.133    -4793217.581 7  -3686694.648 7
  22833448.633     7111713.242 5   5490126.735 5
  22179835.508    -7064314.081 7  -5407860.817 6
  21980732.055    -4564721.676 6  -3517520.040 6
 94  2 17 17 39  0.0000000  0  6 25 18 14 15 22 29
  22479818.234     6366143.816 7   4914327.427 6
  24344161.070     -520096.141 3   -186929.336 1
  20527044.602    -4832252.928 7  -3717111.807 7
  22850669.031     7202229.928 6   5560659.144 5
  22167016.320    -7131682.771 7  -5460355.835 6
  21971484.844    -4613305.981 6  -3555377.929 6
 94  2 17 17 39 30.0000000  0  6 25 18 14 15 22 29
  22495039.250     6446106.128 7   4976635.679 6
  24328963.945     -599984.126 3   -249179.683 1
  20519692.656    -4870878.784 7  -3747209.882 7
  22867939.875     7292949.833 6   5631349.915 5
  22154254.555    -7198687.031 7  -5512566.875 6
  21962251.453    -4661792.814 6  -3593159.878 6
 94  2 17 17 40  0.0000000  0  6 25 18 14 15 22 29
  22510294.586     6526285.604 7   5039113.142 6
  24313754.578     -679838.000 3   -311403.461 1
  20512423.828    -4909079.843 7  -3776976.943 7
  22885230.977     7383863.759 5   5702191.860 5
  22141587.797    -7265308.385 7  -5564479.547 6
  21953043.414    -4710205.120 6  -3630883.767 6
 94  2 17 17 40 30.0000000  0  6 25 18 14 15 22 29
  22525597.031     6606689.162 7   5101765.202 6
  24298595.414     -759648.844 2   -373593.672 1
  20505238.914    -4946840.518 7  -3806400.845 7
  22902577.711     7474980.073 5   5773191.511 5
  22128982.047    -7331521.509 7  -5616074.102 6
  21943848.656    -4758545.392 6  -3668551.516 6
 94  2 17 17 41  0.0000000  0  5 25 14 15 22 29
  22540933.469     6687286.352 7   5164568.143 6
  20498138.195    -4984158.722 7  -3835479.972 7
  22919947.766     7566293.701 5   5844344.917 5
  22116463.555    -7397334.716 7  -5667357.050 6
  21934667.102    -4806800.573 6  -3706152.959 6
 94  2 17 17 41 30.0000000  0  5 25 14 15 22 29
  22556315.945     6768091.068 7   5227532.790 6
  20491123.867    -5021005.295 7  -3864191.597 7
  22937369.406     7657826.238 5   5915668.887 5
  22104019.953    -7462712.416 7  -5718300.634 6
  21925505.727    -4854941.664 6  -3743665.496 6
 94  2 17 17 42  0.0000000  0  5 25 14 15 22 29
  22571730.727     6849130.018 7   5290679.979 6
  20484210.719    -5057347.499 7  -3892510.201 7
  22954835.477     7749609.633 5   5987188.352 5
  22091670.102    -7527614.763 7  -5768873.814 6
  21916375.938    -4902934.183 6  -3781062.267 6
 94  2 17 17 42 30.0000000  0  5 25 14 15 22 29
  22587190.070     6930373.307 7   5353986.383 6
  20477381.109    -5093218.082 7  -3920461.307 7
  22972343.352     7841620.170 5   6058884.796 5
  22079403.867    -7592083.758 7  -5819109.318 6
  21907265.539    -4950790.025 6  -3818352.534 6
 94  2 17 17 43  0.0000000  0  5 25 14 15 22 29
  22602689.961     7011797.064 7   5417433.413 6
  20470644.078    -5128637.183 7  -3948060.605 7
  22989890.023     7933829.398 5   6130736.059 5
  22067208.563    -7656143.435 7  -5869025.877 6
  21898183.750    -4998534.217 6  -3855555.809 6
 94  2 17 17 43 30.0000000  0  6 25 18 14 15 22 29
  22618216.672     7093411.791 7   5481029.255 6
  24207601.938      -39806.14913
  20463989.453    -5163598.796 7  -3975303.426 7
  23007468.484     8026225.513 5   6202732.959 5
  22055097.617    -7719793.380 7  -5918623.174 6
  21889119.719    -5046183.782 6  -3892685.337 6
 94  2 17 17 44  0.0000000  0  6 25 18 14 15 22 29
  22633784.016     7175220.464 6   5544776.197 6
  24192464.125     -119389.401 3        -0.32111
  20457430.297    -5198092.602 7  -4002181.713 7
  23025090.844     8118808.490 5   6274875.457 5
  22043060.297    -7783037.394 7  -5967904.153 6
  21880067.172    -5093721.624 6  -3929727.813 6
 94  2 17 17 44 30.0000000  0  6 25 18 14 15 22 29
  22649387.922     7257236.782 6   5608684.937 6
  24177319.961     -198921.321 2    -61973.227 1
  20450954.305    -5232101.768 7  -4028682.369 7
  23042739.797     8211582.683 5   6347166.947 5
  22031107.242    -7845862.784 7  -6016858.931 6
  21871040.461    -5141133.863 6  -3966672.413 6
 94  2 17 17 45  0.0000000  0  6 25 18 14 15 22 29
  22665038.320     7339453.510 6   5672749.847 6
  24162206.750     -278395.852 2   -123901.365 1
  20444570.266    -5265629.610 7  -4054807.961 7
  23060433.773     8304540.965 5   6419601.894 5
  22019235.430    -7908257.086 7  -6065477.795 6
  21862046.703    -5188430.274 6  -4003526.761 6
 94  2 17 17 45 30.0000000  0  6 25 18 14 15 22 29
  22680724.953     7421865.884 6   5736967.212 6
  24147081.695     -357809.967 2   -185782.513 1
  20438279.922    -5298685.964 7  -4080566.153 7
  23078162.023     8397677.550 5   6492175.770 5
  22007440.492    -7970220.384 7  -6113760.821 6
  21853064.633    -5235604.173 6  -4040285.638 6
 94  2 17 17 46  0.0000000  0  6 25 18 14 15 22 29
  22696448.016     7504465.764 6   5801330.677 6
  24131984.203     -437160.983 3   -247614.437 1
  20432080.313    -5331281.789 7  -4105965.498 7
  23095915.906     8490992.798 5   6564888.861 5
  21995733.930    -8031740.827 7  -6161698.758 6
  21844110.195    -5282650.848 6  -4076945.383 6
 94  2 17 17 46 30.0000000  0  6 25 18 14 15 22 29
  22712191.773     7587239.632 6   5865829.705 6
  24116898.641     -516461.855 3   -309407.308 1
  20425963.578    -5363431.685 7  -4131017.369 7
  23113699.273     8584474.802 5   6637731.893 5
  21984118.445    -8092814.339 7  -6209288.449 6
  21835177.148    -5329588.553 6  -4113520.223 6
 94  2 17 17 47  0.0000000  0  6 25 18 14 15 22 29
  22727971.953     7670186.123 6   5930463.255 6
  24101823.156     -595724.828 3   -371170.633 1
  20419932.602    -5395128.664 7  -4155716.318 7
  23131528.891     8678126.660 5   6710707.282 5
  21972584.000    -8153424.334 7  -6256516.957 6
  21826273.805    -5376417.620 6  -4150010.408 6
 94  2 17 17 47 30.0000000  0  6 25 18 14 15 22 29
  22743781.742     7753296.507 6   5995224.531 6
  24086736.547     -674968.489 3   -432918.887 1
  20413986.195    -5426368.801 7  -4180059.284 7
  23149377.875     8771938.407 5   6783807.256 5
  21961131.008    -8213583.692 7  -6303394.319 6
  21817383.375    -5423142.308 6  -4186419.263 6
 94  2 17 17 48  0.0000000  0  6 25 18 14 15 22 29
  22759635.414     7836573.616 6   6060115.698 6
  24071643.594     -754198.639 3   -494656.590 1
  20408132.898    -5457138.273 7  -4204035.498 7
  23167256.633     8865911.219 5   6857032.736 5
  21949777.117    -8273287.181 7  -6349916.466 6
  21808502.164    -5469778.102 6  -4222758.847 6
 94  2 17 17 48 30.0000000  0  6 25 18 14 15 22 29
  22775515.656     7920007.034 6   6125128.681 6
  24056565.742     -833438.377 3   -556401.841 2
  20402365.461    -5487432.957 7  -4227641.754 7
  23185167.383     8960028.802 5   6930371.035 5
  21938498.359    -8332548.773 7  -6396094.292 6
  21799635.742    -5516344.792 6  -4259044.576 6
 94  2 17 17 49  0.0000000  0  6 25 18 14 15 22 29
  22791415.961     8003591.471 6   6190259.329 6
  24041491.492     -912688.847 3   -618155.463 1
  20396693.922    -5517242.579 7  -4250870.031 7
  23203105.453     9054291.247 5   7003822.190 4
  21927297.234    -8391372.230 7  -6441930.695 6
  21790791.297    -5562836.985 6  -4295272.252 6
 94  2 17 17 49 30.0000000  0  6 25 18 14 15 22 29
  22807357.758     8087334.886 7   6255513.861 6
  24026423.383     -991926.950 3   -679899.402 1
  20391115.383    -5546558.682 7  -4273713.763 7
  23221074.555     9148700.842 5   7077388.004 5
  21916194.414    -8449759.831 7  -6487427.488 6
  21781971.508    -5609238.103 6  -4331428.957 6
 94  2 17 17 50  0.0000000  0  6 25 18 14 15 22 29
  22823326.102     8171247.203 6   6320900.012 6
  24011347.719    -1071131.407 3   -741617.075 1
  20385627.258    -5575376.707 7  -4296169.375 7
  23239057.930     9243261.995 5   7151071.929 5
  21905165.195    -8507698.709 7  -6532574.626 6
  21773163.125    -5655531.051 6  -4367501.378 6
 94  2 17 17 50 30.0000000  0  6 25 18 14 15 22 29
  22839319.258     8255309.640 6   6386403.147 6
  23996271.672    -1150303.041 3   -803309.246 1
  20380237.289    -5603718.335 7  -4318253.767 7
  23257090.734     9337959.966 5   7224862.448 4
  21894228.773    -8565194.162 7  -6577376.250 6
  21764370.313    -5701703.515 6  -4403479.912 6
 94  2 17 17 51  0.0000000  0  6 25 18 14 15 22 29
  22855340.516     8339526.357 6   6452026.509 6
  23981220.086    -1229417.814 3   -864957.100 1
  20374940.367    -5631586.568 7  -4339969.274 7
  23275138.492     9432799.159 5   7298763.017 3
  21883367.547    -8622233.978 7  -6621822.832 6
  21755604.094    -5747740.148 6  -4439352.591 6
 94  2 17 17 51 30.0000000  0  6 25 18 14 15 22 29
  22871400.008     8423916.516 6   6517785.017 6
  23966177.391    -1308465.951 3   -926553.018 1
  20369723.867    -5658980.991 7  -4361315.582 7
  23293207.383     9527781.526 5   7372775.150 5
  21872606.914    -8678794.600 7  -6665896.018 6
  21746870.961    -5793637.105 6  -4475116.427 6
 94  2 17 17 52  0.0000000  0  6 25 18 14 15 22 29
  22887493.109     8508471.719 6   6583672.141 6
  23951145.547    -1387466.651 3   -988112.021 2
  20364599.398    -5685910.493 7  -4382299.615 7
  23311308.992     9622905.012 5   7446897.252 4
  21861931.508    -8734868.008 7  -6709589.551 6
  21738172.172    -5839395.111 7  -4510771.996 7
 94  2 17 17 52 30.0000000  0  6 25 18 14 15 22 29
  22903621.750     8593184.697 6   6649682.176 6
  23936132.969    -1466434.791 3  -1049645.643 1
  20359561.734    -5712367.773 7  -4402915.678 7
  23329436.031     9718165.599 5   7521126.177 4
  21851361.555    -8790453.401 7  -6752902.820 6
  21729490.609    -5885019.367 6  -4546323.342 6
 94  2 17 17 53  0.0000000  0  6 25 18 14 15 22 29
  22919763.172     8678058.116 6   6715817.244 6
  23921097.898    -1545385.424 3  -1111165.633 1
  20354623.148    -5738338.192 7  -4423152.375 7
  23347594.344     9813559.723 5   7595459.176 5
  21840870.859    -8845560.509 7  -6795843.414 6
  21720823.648    -5930514.987 6  -4581774.451 6
 94  2 17 17 53 30.0000000  0  6 25 18 14 15 22 29
  22935941.586     8763090.937 6   6782076.522 6
  23906072.406    -1624330.835 3  -1172681.513 1
  20349771.797    -5763816.392 7  -4443005.514 7
  23365765.977     9909082.173 5   7669892.139 4
  21830472.883    -8900195.232 7  -6838415.914 6
  21712191.930    -5975887.536 7  -4617129.657 7
 94  2 17 17 54  0.0000000  0  6 25 18 14 15 22 29
  22952154.414     8848278.260 6   6848456.188 6
  23891058.297    -1703252.109 3  -1234178.606 1
  20345019.359    -5788779.639 7  -4462457.394 7
  23383968.219    10004735.737 5   7744427.284 5
  21820167.125    -8954364.084 7  -6880625.399 6
  21703584.336    -6021133.531 7  -4652386.259 7
 94  2 17 17 54 30.0000000  0  6 25 18 14 15 22 29
  22968388.055     8933619.123 6   6914955.501 6
  23876050.227    -1782125.004 3  -1295637.956 1
  20340370.922    -5813211.012 7  -4481494.823 7
  23402191.828    10100516.909 5   7819061.858 5
  21809951.234    -9008059.044 7  -6922465.610 6
  21695001.141    -6066264.915 7  -4687553.557 6
 94  2 17 17 55  0.0000000  0  6 25 18 14 15 22 29
  22984662.852     9019107.280 6   6981569.583 6
  23861043.555    -1860949.896 4  -1357059.901 1
  20335820.195    -5837125.495 7  -4500129.481 7
  23420448.750    10196412.543 5   7893785.618 5
  21799820.680    -9061289.183 7  -6963943.637 6
  21686429.078    -6111301.321 7  -4722646.847 7
 94  2 17 17 55 30.0000000  0  6 25 18 14 15 22 29
  23000959.898     9104750.115 6   7048304.191 6
  23846055.789    -1939711.155 3  -1418432.270 1
  20331368.445    -5860525.953 7  -4518363.600 7
  23438714.375    10292425.592 5   7968600.870 4
  21789782.211    -9114027.530 7  -7005038.431 6
  21677884.547    -6156237.898 7  -4757662.361 7
 94  2 17 17 56  0.0000000  0  6 25 18 14 15 22 29
  23017294.625     9190545.959 6   7115158.019 6
  23831081.125    -2018407.829 4  -1479754.278 1
  20327011.922    -5883410.910 7  -4536196.035 6
  23457003.695    10388559.103 5   8043509.993 4
  21779843.047    -9166261.752 7  -7045740.418 6
  21669346.461    -6201059.903 7  -4792588.601 7
 94  2 17 17 56 30.0000000  0  6 25 18 14 15 22 29
  23033645.266     9276488.877 6   7182126.449 6
  23816115.016    -2097060.674 4  -1541042.166 1
  20322754.289    -5905793.490 7  -4553636.998 7
  23475330.195    10484807.221 5   8118508.422 5
  21769996.648    -9217994.272 7  -7086051.459 6
  21660839.297    -6245764.549 7  -4827423.396 7
 94  2 17 17 57  0.0000000  0  6 25 18 14 15 22 29
  23050027.484     9362577.098 6   7249208.106 6
  23801146.805    -2175677.600 3  -1602302.041 1
  20318588.164    -5927682.685 7  -4570693.511 6
  23493665.977    10581164.071 5   8193591.575 4
  21760249.031    -9269234.148 7  -7125978.619 6
  21652357.578    -6290346.585 7  -4862162.650 7
 94  2 17 17 57 30.0000000  0  6 25 18 14 15 22 29
  23066432.367     9448791.101 6   7316387.784 5
  23786212.320    -2254256.863 4  -1663532.597 1
  20314515.289    -5949082.600 7  -4587368.771 7
  23512016.461    10677623.542 5   8268754.689 4
  21750589.680    -9319975.979 7  -7165517.700 6
  21643894.430    -6334805.733 7  -4896806.156 7
 94  2 17 17 58  0.0000000  0  6 25 18 14 15 22 29
  23082847.586     9535116.944 6   7383654.603 5
  23771267.500    -2332781.367 4  -1724720.508 1
  20310536.922    -5969982.405 7  -4603654.326 6
  23530393.234    10774185.898 5   8343997.971 3
  21741029.133    -9370228.898 7  -7204675.810 6
  21635451.398    -6379147.011 7  -4931357.804 7
 94  2 17 17 58 30.0000000  0  6 25 18 14 15 22 29
  23099313.953     9621569.298 6   7451019.998 6
  23756329.492    -2411234.726 4  -1785852.952 1
  20306661.883    -5990365.942 7  -4619537.598 6
  23548790.211    10870857.816 5   8419326.625 4
  21731563.984    -9419973.967 7  -7243438.181 6
  21627042.625    -6423369.591 7  -4965816.965 7
 94  2 17 17 59  0.0000000  0  6 25 18 14 15 22 29
  23115787.047     9708136.690 6   7518475.032 5
  23741404.766    -2489623.238 4  -1846934.909 2
  20302875.617    -6010245.856 7  -4635028.441 7
  23567208.195    10967623.983 5   8494728.727 4
  21722192.977    -9469208.163 7  -7281802.477 6
  21618650.586    -6467474.858 7  -5000184.715 7
 94  2 17 17 59 30.0000000  0  6 25 18 14 15 22 29
  23132272.141     9794831.324 6   7586029.224 5
  23726510.297    -2567951.433 4  -1907969.853 1
  20299194.211    -6029607.773 7  -4650115.650 7
  23585644.063    11064490.388 5   8570208.915 3
  21712926.016    -9517914.752 7  -7319755.644 6
  21610285.219    -6511445.733 7  -5034447.745 7
 94  2 17 18  0  0.0000000  0  6 25 18 14 15 22 29
  23148805.945     9881653.024 6   7653682.436 5
  23711606.891    -2646263.395 4  -1968992.138 1
  20295603.945    -6048461.682 7  -4664807.001 6
  23604086.945    11161436.622 5   8645751.322 3
  21703754.352    -9566118.238 7  -7357316.787 6
  21601939.211    -6555295.741 7  -5068616.588 7
 94  2 17 18  0 30.0000000  0  6 25 18 14 15 22 29
  23165347.430     9968605.238 6   7721437.344 5
  23696698.063    -2724595.157 5  -2030029.823 1
  20292115.078    -6066804.085 7  -4679099.795 6
  23622549.883    11258449.818 5   8721345.920 1
  21694678.406    -9613828.469 7  -7394493.577 6
  21593617.578    -6599031.159 7  -5102696.141 7
 94  2 17 18  1  0.0000000  0  6 25 18 14 15 22 29
  23181921.953    10055684.524 6   7789291.261 5
  23681792.906    -2802939.237 5  -2091077.157 1
  20288726.055    -6084627.870 7  -4692988.459 7
  23641014.633    11355531.604 5   8796993.916 3
  21685690.109    -9661044.957 7  -7431285.635 6
  21585313.305    -6642645.022 7  -5136680.965 7
 94  2 17 18  1 30.0000000  0  6 25 18 14 15 22 29
  23198509.187    10142882.317 6   7857237.521 5
  23666874.289    -2881301.339 5  -2152138.509 1
  20285431.430    -6101937.911 7  -4706476.812 7
  23659506.313    11452673.172 5   8872688.518 3
  21676797.852    -9707777.912 7  -7467700.910 6
  21577036.859    -6686167.252 7  -5170594.388 6
 94  2 17 18  2  0.0000000  0  6 25 18 14 15 22 29
  23215120.688    10230177.007 6   7925259.281 5
  23651973.531    -2959673.111 4  -2213207.386 1
  20282230.859    -6118741.162 7  -4719570.265 7
  23677998.477    11549861.438 5   8948419.514 3
  21667993.695    -9754032.288 7  -7503743.266 7
  21568765.211    -6729613.262 7  -5204448.413 6
 94  2 17 18  2 30.0000000  0  6 25 18 14 15 22 29
  23231756.906    10317557.707 6   7993348.071 5
  23637050.320    -3038025.112 3  -2274260.848 1
  20279128.266    -6135040.600 7  -4732271.136 7
  23696509.437    11647095.467 5   9024186.151 2
  21659286.977    -9799790.429 7  -7539398.936 6
  21560503.742    -6772971.498 6  -5238234.042 6
 94  2 17 18  3  0.0000000  0  6 25 18 14 15 22 29
  23248391.117    10405014.622 6   8061496.258 5
  23622149.469    -3116347.689 3  -2335291.389 1
  20276117.680    -6150868.125 7  -4744604.287 7
  23715006.219    11744369.193 5   9099983.741 3
  21650672.453    -9845038.857 7  -7574657.431 7
  21552275.539    -6816238.387 6  -5271948.488 7
 94  2 17 18  3 30.0000000  0  6 25 18 14 15 22 29
  23265053.375    10492550.402 6   8129705.898 5
  23607255.297    -3194642.316 4  -2396300.111 1
  20273196.141    -6166231.392 7  -4756575.672 7
  23733537.961    11841677.356 5   9175808.147 2
  21642164.227    -9889780.835 7  -7609521.282 7
  21544066.063    -6859409.136 6  -5305588.016 6
 94  2 17 18  4  0.0000000  0  6 25 18 14 15 22 29
  23281727.211    10580151.012 6   8197966.060 5
  23592370.500    -3272912.801 5  -2457290.015 1
  20270361.648    -6181130.608 7  -4768185.454 7
  23752058.180    11939008.569 5   9251650.508 2
  21633740.156    -9934025.476 7  -7643997.608 7
  21535870.789    -6902473.927 6  -5339144.980 6
 94  2 17 18  4 30.0000000  0  6 25 18 14 15 22 29
  23298402.047    10667814.706 6   8266275.352 5
  23577471.273    -3351166.698 5  -2518267.001 2
  20267614.789    -6195573.004 7  -4779439.281 7
  23770574.281    12036356.543 5   9327505.943 2
  21625411.594    -9977791.188 7  -7678100.740 7
  21527696.766    -6945438.702 6  -5372624.010 6
 94  2 17 18  5  0.0000000  0  6 25 18 14 15 22 29
  23315098.063    10755540.783 6   8334633.256 5
  23562571.500    -3429401.503 4  -2579229.086 2
  20264955.859    -6209551.331 7  -4790331.490 7
  23789107.219    12133712.613 5   9403367.685 2
  21617171.984   -10021088.788 7  -7711839.110 7
  21519539.375    -6988323.569 6  -5406040.769 6
 94  2 17 18  5 30.0000000  0  6 25 18 14 15 22 29
  23331809.008    10843325.120 6   8403036.556 5
  23547695.438    -3507613.587 4  -2640173.479 2
  20262386.898    -6223039.201 7  -4800841.532 6
  23807628.258    12231073.121 5   9479232.897 3
  21609022.781   -10063919.773 7  -7745213.884 7
  21511388.398    -7031128.890 6  -5439395.541 6
 94  2 17 18  6  0.0000000  0  6 25 18 14 15 22 29
  23348519.008    10931160.236 6   8471479.419 6
  23532810.273    -3585811.402 4  -2701106.756 3
  20259915.430    -6236029.641 7  -4810963.960 7
  23826161.352    12328432.432 5   9555097.156 2
  21600965.094   -10106275.719 7  -7778218.512 7
  21503246.563    -7073859.015 6  -5472691.727 6
 94  2 17 18  6 30.0000000  0  6 25 18 14 15 22 29
  23365248.914    11019079.790 6   8539988.082 6
  23517927.672    -3663977.286 4  -2762015.143 2
  20257539.016    -6248510.944 7  -4820689.654 7
  23844692.070    12425805.070 5   9630971.811 2
  21593004.773   -10148130.565 7  -7810832.666 7
  21495134.617    -7116509.820 6  -5505926.117 6
 94  2 17 18  7  0.0000000  0  6 25 18 14 15 22 29
  23381994.727    11107085.293 6   8608563.704 5
  23503079.508    -3742120.854 5  -2822906.141 3
  20255262.484    -6260476.102 7  -4830013.153 7
  23863219.055    12523189.294 5   9706855.500 2
  21585139.117   -10189459.139 7  -7843036.747 7
  21487044.797    -7159068.245 6  -5539088.503 6
 94  2 17 18  7 30.0000000  0  6 25 18 14 15 22 29
  23398756.188    11195164.772 6   8677196.985 5
  23488204.109    -3820274.939 4  -2883805.348 2
  20253080.523    -6271932.702 7  -4838940.379 6
  23881750.688    12620578.923 4   9782743.375 2
  21577373.063   -10230268.465 7  -7874836.209 7
  21478963.859    -7201527.529 6  -5572173.644 7
 94  2 17 18  8  0.0000000  0  6 25 18 14 15 22 29
  23415533.148    11283321.583 6   8745890.518 5
  23473330.492    -3898429.576 4  -2944704.974 2
  20251001.305    -6282873.737 7  -4847465.866 6
  23900288.836    12717978.039 4   9858638.659 2
  21569704.422   -10270558.632 7  -7906231.143 6
  21470899.695    -7243886.019 6  -5605180.247 6
 94  2 17 18  8 30.0000000  0  6 25 18 14 15 22 29
  23432320.055    11371545.212 6   8814636.135 6
  23458463.531    -3976575.122 5  -3005597.514 2
  20249019.953    -6293291.821 7  -4855583.864 6
  23918823.781    12815387.334 4   9934541.862 1
  21562133.094   -10310336.313 7  -7937226.733 7
  21462863.594    -7286146.679 6  -5638110.616 6
 94  2 17 18  9  0.0000000  0  6 25 18 14 15 22 29
  23449118.852    11459825.648 6   8883425.993 6
  23443586.711    -4054700.511 4  -3066474.406 2
  20247138.891    -6303165.108 7  -4863277.326 6
  23937360.211    12912818.276 4  10010461.948 2
  21554666.836   -10349588.552 7  -7967812.881 7
  21454829.141    -7328288.935 6  -5670948.728 7
 94  2 17 18  9 30.0000000  0  6 25 18 14 15 22 29
  23465934.867    11548151.345 6   8952251.108 5
  23428726.727    -4132803.101 4  -3127333.496 2
  20245359.328    -6312505.679 7  -4870555.709 6
  23955901.672    13010257.930 4  10086388.804 1
  21547292.703   -10388338.907 7  -7998007.951 7
  21446834.609    -7370338.597 6  -5703714.671 7
 94  2 17 18 10  0.0000000  0  6 25 18 14 15 22 29
  23482747.016    11636537.166 6   9021123.082 5
  23413875.633    -4210860.214 5  -3188157.132 2
  20243685.094    -6321304.332 7  -4877411.804 6
  23974451.938    13107712.576 4  10162327.385 2
  21540017.469   -10426568.689 7  -8027797.391 7
  21438859.586    -7412289.045 6  -5736403.342 7
 94  2 17 18 10 30.0000000  0  6 25 18 14 15 22 29
  23499579.539    11724993.444 5   9090049.975 5
  23399031.578    -4288875.992 5  -3248948.596 2
  20242111.672    -6329574.552 7  -4883856.131 6
  23993000.766    13205180.715 4  10238276.438 3
  21532844.422   -10464268.254 7  -8057173.659 7
  21430893.977    -7454139.427 6  -5769014.014 7
 94  2 17 18 11  0.0000000  0  6 25 18 14 15 22 29
  23516429.461    11813526.818 6   9159036.930 5
  23384189.477    -4366861.268 5  -3309716.291 1
  20240634.742    -6337332.867 7  -4889901.574 6
  24011547.023    13302653.987 3  10314229.511 2
  21525769.430   -10501439.873 7  -8086138.555 7
  21422949.047    -7495883.457 6  -5801541.814 7
 94  2 17 18 11 30.0000000  0  6 25 18 14 15 22 29
  23533290.016    11902140.846 6   9228086.730 5
  23369355.703    -4444810.694 5  -3370456.057 1
  20239254.719    -6344583.652 7  -4895551.543 6
  24030101.273    13400129.756 3  10390184.530 2
  21518793.766   -10538080.100 7  -8114689.381 7
  21415025.148    -7537514.617 6  -5833981.668 7
 94  2 17 18 12  0.0000000  0  6 25 18 14 15 22 29
  23550163.031    11990833.207 5   9297197.571 5
  23354528.078    -4522715.951 5  -3431161.415 2
  20237971.813    -6351320.135 7  -4900800.758 6
  24048642.961    13497610.810 3  10466143.658 3
  21511926.438   -10574175.825 7  -8142815.916 7
  21407132.461    -7579011.302 6  -5866316.740 7
 94  2 17 18 12 30.0000000  0  6 25 18 14 15 22 29
  23567057.867    12079594.576 6   9366362.162 5
  23339713.570    -4600576.362 5  -3491831.819 2
  20236792.078    -6357543.325 7  -4905650.002 6
  24067188.172    13595095.182 3  10542105.356 3
  21505162.789   -10609718.804 7  -8170511.735 7
  21399259.672    -7620374.665 6  -5898547.920 7
 94  2 17 18 13  0.0000000  0  6 25 18 14 15 22 29
  23583961.367    12168410.552 5   9435569.313 5
  23324900.023    -4678400.713 5  -3552474.122 1
  20235705.063    -6363239.445 7  -4910088.548 7
  24085746.945    13692577.646 3  10618065.588 3
  21498509.242   -10644695.413 7  -8197766.232 7
  21391415.734    -7661598.625 6  -5930670.485 7
 94  2 17 18 13 30.0000000  0  6 25 18 14 15 22 29
  23600872.117    12257292.666 5   9504828.029 5
  23310096.578    -4756185.853 5  -3613085.850 2
  20234726.258    -6368392.634 7  -4914104.024 7
  24104300.227    13790055.656 3  10694022.363 2
  21491962.320   -10679092.806 7  -8224569.390 7
  21383594.008    -7702689.625 6  -5962689.426 7
 94  2 17 18 14  0.0000000  0  6 25 18 14 15 22 29
  23617804.539    12346249.848 6   9574145.207 5
  23295302.430    -4833929.060 5  -3673664.948 2
  20233851.922    -6372988.684 7  -4917685.372 7
  24122838.375    13887531.537 3  10769977.466 2
  21485528.648   -10712897.092 7  -8250910.381 7
  21375799.508    -7743656.105 6  -5994611.343 7
 94  2 17 18 14 30.0000000  0  6 25 18 14 15 22 29
  23634746.750    12435285.173 6   9643523.275 5
  23280527.156    -4911634.336 5  -3734214.476 1
  20233083.273    -6377025.880 7  -4920831.250 7
  24141399.664    13985000.194 3  10845926.941 2
  21479205.477   -10746104.597 7  -8276786.359 7
  21368016.281    -7784506.354 6  -6026442.705 7
 94  2 17 18 15  0.0000000  0  6 25 18 14 15 22 29
  23651708.375    12524411.527 6   9712972.278 5
  23265742.375    -4989296.989 5  -3794730.760 2
  20232423.508    -6380494.452 7  -4923534.043 7
  24159943.758    14082464.290 3  10921872.874 1
  21473002.617   -10778731.014 7  -8302209.532 7
  21360270.195    -7825225.193 6  -6058171.665 7
 94  2 17 18 15 30.0000000  0  6 25 18 14 15 22 29
  23668679.305    12613614.505 6   9782480.976 4
  23250970.469    -5066908.907 5  -3855207.543 2
  20231866.828    -6383417.116 7  -4925811.453 7
  24178483.180    14179909.837 3  10997804.340 2
  21466894.219   -10810813.380 7  -8327208.786 7
  21352552.711    -7865830.780 6  -6089812.368 7
 94  2 17 18 16  0.0000000  0  6 25 18 14 15 22 29
  23685667.102    12702871.204 5   9852031.566 5
  23236211.914    -5144470.405 5  -3915645.038 3
  20231411.633    -6385811.133 7  -4927676.918 7
  24197026.383    14277335.182 4  11073720.077 2
  21460891.148   -10842361.505 7  -8351791.710 7
  21344850.750    -7906312.240 6  -6121356.343 7
 94  2 17 18 16 30.0000000  0  7 25 18 14 15 22 29 19
  23702656.719    12792177.700 5   9921620.954 5
  23221452.930    -5222000.543 5  -3976058.082 2
  20231051.898    -6387685.794 7  -4929137.707 7
  24215560.758    14374726.431 5  11149609.258 1
  21454983.266   -10873406.004 7  -8375982.221 7
  21337171.656    -7946666.757 6  -6152801.407 7
  24761485.719      -48894.37813
 94  2 17 18 17  0.0000000  0  7 25 18 14 15 22 29 19
  23719663.203    12881532.785 5   9991248.171 4
  23206711.617    -5299500.235 5  -4036447.411 2
  20230795.906    -6389040.566 7  -4930193.378 7
  24234084.063    14472080.574 4  11225469.546 2
  21449175.281   -10903947.960 7  -8399781.122 7
  21329506.992    -7986895.400 6  -6184148.400 7
  24742876.500     -146581.230 2    -38046.19511
 94  2 17 18 17 30.0000000  0  7 25 18 14 15 22 29 19
  23736663.313    12970944.006 5  10060919.155 3
  23191967.445    -5376950.791 5  -4096798.452 1
  20230635.180    -6389864.522 7  -4930835.429 7
  24252610.320    14569406.924 4  11301308.129 2
  21443465.266   -10933949.991 7  -8423159.311 7
  21321884.859    -8026996.077 6  -6215395.666 7
  24724342.914     -244107.600 3   -114040.610 1
 94  2 17 18 18  0.0000000  0  7 25 18 14 15 22 29 19
  23753710.523    13060399.541 5  10130624.642 3
  23177231.672    -5454383.532 5  -4157135.643 2
  20230583.133    -6390155.906 7  -4931062.488 6
  24271112.180    14666689.124 4  11377112.338 2
  21437859.031   -10963414.259 7  -8446118.457 7
  21314271.875    -8066975.204 6  -6246548.227 7
  24705791.516     -341465.999 3   -189904.097 1
 94  2 17 18 18 30.0000000  0  7 25 18 14 15 22 29 19
  23770723.672    13149906.909 5  10200370.552 4
  23162499.734    -5531793.104 5  -4217454.731 2
  20230636.406    -6389895.213 7  -4930859.349 7
  24289619.023    14763925.162 4  11452880.564 2
  21432358.141   -10992323.193 7  -8468644.865 7
  21306687.039    -8106835.751 6  -6277608.393 7
  24687303.031     -438671.990 2   -265648.868 1
 94  2 17 18 19  0.0000000  0  7 25 18 14 15 22 29 19
  23787768.781    13239445.188 5  10270140.520 5
  23147776.758    -5609169.256 5  -4277747.783 2
  20230783.094    -6389099.438 7  -4930239.267 6
  24308115.898    14861109.907 5  11528608.844 2
  21426966.102   -11020653.476 7  -8490720.380 7
  21299116.266    -8146579.263 6  -6308577.357 7
  24668833.477     -535742.513 2
 94  2 17 18 19 30.0000000  0  7 25 18 14 15 22 29 19
  23804815.625    13329014.850 5  10339934.968 5
  23133062.656    -5686510.271 5  -4338013.488 2
  20231039.031    -6387768.012 7  -4929201.800 6
  24326600.305    14958242.527 4  11604296.495 2
  21421686.945   -11048409.748 7  -8512348.601 7
  21291589.617    -8186203.678 6  -6339453.514 7
  24650373.703     -632681.527 1
 94  2 17 18 20  0.0000000  0  7 25 18 14 15 22 29 19
  23821867.773    13418595.883 5  10409738.266 5
  23118352.828    -5763830.913 5  -4398263.280 1
  20231395.969    -6385906.509 7  -4927751.278 6
  24345068.211    15055309.143 4  11679932.707 1
  21416508.953   -11075608.156 7  -8533542.133 7
  21284070.547    -8225705.322 6  -6370234.015 7
  24631958.039     -729525.207 2        -0.43711
 94  2 17 18 20 30.0000000  0  7 25 18 14 15 22 29 19
  23838921.000    13508200.320 5  10479559.788 5
  23103642.094    -5841102.067 5  -4458474.491 2
  20231848.070    -6383509.865 7  -4925883.771 6
  24363532.039    15152321.868 4  11755526.951 1
  21411440.875   -11102220.216 7  -8554278.766 7
  21276573.102    -8265077.081 6  -6400913.309 7
  24613545.859     -826261.696 2    -75379.482 1
 94  2 17 18 21  0.0000000  0  6 25 18 14 15 22 29
  23855971.781    13597819.742 5  10549392.993 5
  23088957.281    -5918322.439 5  -4518646.166 2
  20232403.695    -6380592.121 7  -4923610.206 6
  24381977.766    15249266.737 4  11831068.321 1
  21406484.977   -11128273.318 7  -8574579.847 7
  21269105.313    -8304335.691 6  -6431504.431 7
 94  2 17 18 21 30.0000000  0  6 25 18 14 15 22 29
  23873023.133    13687449.732 5  10619234.395 5
  23074264.023    -5995513.204 5  -4578794.764 2
  20233059.992    -6377148.149 7  -4920926.597 6
  24400406.359    15346131.263 4  11906547.046 1
  21401628.805   -11153794.799 7  -8594466.674 7
  21261652.828    -8343491.843 6  -6462015.714 7
 94  2 17 18 22  0.0000000  0  6 25 18 14 15 22 29
  23890078.875    13777093.662 5  10689086.742 5
  23059572.969    -6072665.956 5  -4638913.744 2
  20233821.750    -6373160.184 7  -4917819.097 6
  24418824.688    15442922.011 4  11981968.327 2
  21396878.242   -11178756.390 7  -8613917.224 7
  21254224.188    -8382532.675 6  -6492437.149 7
 94  2 17 18 22 30.0000000  0  7 25 18 14 15 22 29 19
  23907151.242    13866757.860 5  10758954.829 5
  23044905.102    -6149789.008 5  -4699009.580 2
  20234679.523    -6368634.759 7  -4914292.797 6
  24437230.438    15539630.127 4  12057325.186 2
  21392233.305   -11203162.152 7  -8632934.673 7
  21246818.570    -8421478.038 6  -6522784.186 7
  24540151.180      -48098.14213
 94  2 17 18 23  0.0000000  0  6 25 18 14 22 29 19
  23924207.688    13956433.986 5  10828832.217 4
  23030236.711    -6226901.469 5  -4759097.176 2
  20235645.570    -6363573.116 7  -4910348.665 6
  21387692.891   -11227034.296 7  -8651536.311 7
  21239414.289    -8460319.947 6  -6553050.604 7
  24521866.359     -144211.477 3
 94  2 17 18 23 30.0000000  0  7 25 18 14 15 22 29 19
  23941270.156    14046095.845 5  10898698.513 4
  23015558.422    -6304012.063 5  -4819183.302 2
  20236707.266    -6357984.128 7  -4905993.618 6
  24473982.492       48252.40813
  21383251.664   -11250366.234 7  -8669717.018 7
  21232051.961    -8499057.008 6  -6583235.317 7
  24503585.172     -240228.891 3    -37398.60311
 94  2 17 18 24  0.0000000  0  7 25 18 14 15 22 29 19
  23958334.906    14135738.565 5  10968549.860 5
  23000895.242    -6381094.151 5  -4879247.255 2
  20237870.203    -6351874.627 7  -4901232.977 6
  24492336.844      144687.001 4     37561.57211
  21378919.719   -11273146.915 7  -8687468.169 7
  21224697.203    -8537690.434 6  -6613339.279 7
  24485342.883     -336130.294 3   -112126.910 1
 94  2 17 18 24 30.0000000  0  7 25 18 14 15 22 29 19
  23975392.383    14225368.206 5  11038391.030 5
  22986231.945    -6458142.654 5  -4939285.024 3
  20239128.164    -6345251.383 7  -4896072.011 6
  24510676.219      241029.585 3    112633.556 1
  21374684.406   -11295392.810 7  -8704802.604 7
  21217364.758    -8576223.241 6  -6643364.848 7
  24467115.758     -431901.106 3   -186753.429 2
 94  2 17 18 25  0.0000000  0  7 25 18 14 15 22 29 19
  23992437.742    14314966.574 6  11108207.847 4
  22971574.125    -6535160.213 5  -4999298.670 3
  20240488.828    -6338127.757 7  -4890521.150 6
  24528985.727      337265.832 4    187622.764 1
  21370547.758   -11317124.151 7  -8721736.099 7
  21210044.688    -8614663.341 6  -6673318.175 7
  24448911.969     -527553.744 3   -261287.832 1
 94  2 17 18 25 30.0000000  0  7 25 18 14 15 22 29 19
  24009481.984    14404545.635 5  11178009.639 4
  22956916.547    -6612139.865 5  -5059282.788 3
  20241938.266    -6330495.207 7  -4884573.721 7
  24547286.297      433392.411 4    262526.433 2
  21366512.547   -11338319.262 7  -8738251.754 7
  21202748.719    -8653009.540 6  -6703198.322 7
  24430734.984     -623058.486 3   -335706.984 1
 94  2 17 18 26  0.0000000  0  7 25 18 14 15 22 29 19
  24026529.906    14494135.187 5  11247819.577 4
  22942283.852    -6689100.557 5  -5119252.143 4
  20243485.813    -6322343.694 7  -4878221.904 7
  24565552.891      529408.137 4    337343.732 1
  21362589.563   -11358965.479 7  -8754339.700 7
  21195474.469    -8691254.937 6  -6732999.925 7
  24412596.258     -718419.445 3   -410014.137 2
 94  2 17 18 26 30.0000000  0  7 25 18 14 15 22 29 19
  24043586.352    14583741.141 5  11317642.282 4
  22927625.609    -6766063.876 5  -5179223.521 4
  20245141.367    -6313658.352 7  -4871454.130 7
  24583802.000      625310.008 4    412072.342 2
  21358764.094   -11379055.024 7  -8769993.879 7
  21188223.797    -8729381.824 6  -6762709.184 7
  24394468.164     -813658.879 3   -484226.564 1
 94  2 17 18 27  0.0000000  0  7 25 18 14 15 22 29 19
  24060639.875    14673351.463 5  11387468.429 5
  22912986.438    -6843035.089 5  -5239201.051 5
  20246896.797    -6304432.908 7  -4864265.484 7
  24602025.922      721093.911 4    486709.014 2
  21355051.547   -11398573.945 7  -8785203.426 7
  21180998.945    -8767375.062 6  -6792314.297 7
  24376371.102     -908785.035 3   -558350.720 2
 94  2 17 18 27 30.0000000  0  7 25 18 14 15 22 29 19
  24077682.383    14762964.806 5  11457296.914 3
  22898337.234    -6920016.280 5  -5299186.360 4
  20248754.367    -6294666.037 7  -4856654.956 7
  24620231.531      816758.583 3    561252.745 1
  21351445.719   -11417510.183 7  -8799958.931 7
  21173794.461    -8805228.123 6  -6821810.184 7
  24358291.180    -1003792.257 3   -632382.247 1
 94  2 17 18 28  0.0000000  0  7 25 18 14 15 22 29 19
  24094746.234    14852580.277 5  11527127.072 5
  22883688.461    -6996991.688 5  -5359167.155 4
  20250718.539    -6284359.105 7  -4848623.596 7
  24638401.781      912307.551 3    635706.310 1
  21347953.805   -11435873.917 7  -8814268.332 7
  21166613.023    -8842943.774 6  -6851198.998 7
  24340223.773    -1098685.006 3   -706324.575 1
 94  2 17 18 28 30.0000000  0  7 25 18 14 15 22 29 19
  24111794.891    14942191.953 5  11596954.241 5
  22869046.070    -7073936.233 5  -5419123.911 4
  20252779.203    -6273522.736 7  -4840179.693 7
  24656574.578     1007739.882 3    710068.997 1
  21344561.953   -11453681.151 7  -8828144.106 7
  21159457.273    -8880525.342 6  -6880483.331 7
  24322199.148    -1193448.307 3   -780166.048 1
 94  2 17 18 29  0.0000000  0  7 25 18 14 15 22 29 19
  24128852.758    15031800.167 5  11666778.721 5
  22854413.188    -7150828.155 5  -5479039.654 4
  20254941.031    -6262164.478 7  -4831329.122 7
  24674712.430     1103054.565 3    784339.982 1
  21341281.578   -11470930.243 7  -8841584.963 7
  21152325.711    -8917990.515 6  -6909676.974 7
  24304201.828    -1288052.410 3   -853883.471 1
 94  2 17 18 29 30.0000000  0  7 25 18 14 15 22 29 19
  24145905.023    15121411.070 5  11736605.300 5
  22839795.672    -7227657.545 5  -5538906.657 4
  20257204.094    -6250289.200 7  -4822075.680 7
  24692829.570     1198251.356 3    858519.105 1
  21338105.266   -11487621.805 7  -8854591.375 7
  21145223.070    -8955355.812 7  -6938792.783 7
  24286226.680    -1382494.066 3   -927474.337 1
 94  2 17 18 30  0.0000000  0  7 25 18 14 15 22 29 19
  24162960.539    15211018.057 5  11806428.825 5
  22825189.406    -7304426.402 5  -5598726.500 4
  20259556.672    -6237905.281 7  -4812425.890 7
  24710912.914     1293326.285 3    932603.271 1
  21335037.422   -11503759.609 7  -8867166.298 7
  21138126.016    -8992622.316 7  -6967831.612 7
  24268294.531    -1476770.864 3  -1000936.774 2
 94  2 17 18 30 30.0000000  0  7 25 18 14 15 22 29 19
  24180001.555    15300622.652 5  11876250.485 4
  22810588.859    -7381132.495 5  -5658497.438 4
  20262011.180    -6225001.172 7  -4802370.752 7
  24728992.344     1388285.661 3   1006597.391 1
  21332069.695   -11519322.600 7  -8879293.298 7
  21131060.672    -9029773.232 7  -6996780.368 7
  24250368.000    -1570863.216 3  -1074255.495 2
 94  2 17 18 31  0.0000000  0  7 25 18 14 15 22 29 19
  24197044.422    15390214.184 5  11946061.981 4
  22796000.430    -7457799.256 5  -5718237.732 4
  20264570.469    -6211569.260 7  -4791904.350 7
  24747032.195     1483121.162 3   1080494.979 1
  21329222.977   -11534307.529 7  -8890969.880 7
  21124013.992    -9066807.216 7  -7025638.002 7
  24232497.789    -1664783.852 3  -1147440.386 2
 94  2 17 18 31 30.0000000  0  7 25 18 14 15 22 29 19
  24214103.203    15479794.973 5  12015865.101 5
  22781410.133    -7534442.729 5  -5777959.860 3
  20267224.922    -6197606.089 7  -4781023.972 7
  24765057.453     1577833.385 3   1154296.510 1
  21326477.781   -11548708.677 7  -8902191.562 7
  21116991.344    -9103704.795 7  -7054389.361 7
  24214664.234    -1758550.691 3  -1220505.437 1
 94  2 17 18 32  0.0000000  0  7 25 18 14 15 22 29 19
  24231143.172    15569370.743 5  12085664.300 3
  22766847.320    -7611066.110 5  -5837666.335 4
  20269986.875    -6183105.172 7  -4769724.566 7
  24783050.867     1672419.059 3   1227999.421 1
  21323848.906   -11562523.592 7  -8912956.432 7
  21110001.891    -9140451.197 7  -7083022.908 7
  24196848.719    -1852162.703 3  -1293449.879 1
 94  2 17 18 32 30.0000000  0  7 25 18 14 15 22 29 19
  24248196.805    15658941.999 5  12155459.982 4
  22752263.070    -7687665.682 6  -5897354.255 3
  20272852.359    -6168041.938 7  -4757986.997 6
  24801027.906     1766875.200 3   1301601.386 1
  21321336.922   -11575753.324 7  -8923265.314 7
  21103037.000    -9177045.396 7  -7111537.856 7
  24179071.617    -1945635.613 3  -1366285.952 2
 94  2 17 18 33  0.0000000  0  7 25 18 14 15 22 29 19
  24265236.539    15748518.273 4  12225259.601 2
  22737688.367    -7764229.619 6  -5957014.406 4
  20275824.609    -6152407.860 7  -4745804.614 7
  24818986.836     1861206.981 3   1375106.434 1
  21318929.711   -11588387.049 7  -8933109.780 7
  21096103.805    -9213481.896 7  -7139929.919 7
  24161290.930    -2038982.808 3  -1439024.014 1
 94  2 17 18 33 30.0000000  0  7 25 18 14 15 22 29 19
  24282279.797    15838084.541 5  12295051.417 3
  22723127.352    -7840745.824 6  -6016637.357 4
  20278909.883    -6136219.562 7  -4733190.371 7
  24836915.602     1955406.095 3   1448508.109 1
  21316637.375   -11600428.663 7  -8942492.857 7
  21089200.563    -9249777.667 7  -7168212.311 7
  24143561.672    -2132198.625 3  -1511659.749 2
 94  2 17 18 34  0.0000000  0  7 25 18 14 15 22 29 19
  24299316.742    15927635.154 5  12364831.034 3
  22708575.281    -7917195.614 6  -6076208.560 3
  20282092.016    -6119470.753 7  -4720139.365 7
  24854813.227     2049471.291 3   1521805.413 1
  21314459.625   -11611885.605 7  -8951420.342 7
  21082318.539    -9285936.087 7  -7196387.675 7
  24125849.852    -2225262.645 3  -1584177.164 2
 94  2 17 18 34 30.0000000  0  7 25 18 14 15 22 29 19
  24316352.891    16017163.047 5  12434592.945 2
  22694039.398    -7993577.286 5  -6135726.696 4
  20285385.922    -6102168.234 7  -4706656.897 7
  24872691.047     2143404.229 3   1594999.743 1
  21312386.492   -11622759.722 7  -8959893.673 7
  21075460.383    -9321951.764 7  -7224451.822 7
  24108175.813    -2318166.837 3  -1656570.024 2
 94  2 17 18 35  0.0000000  0  7 25 18 14 22 29 19  4
  24333390.859    16106664.888 5  12504334.561 2
  22679514.305    -8069896.580 5  -6195196.219 4
  20288780.102    -6084342.195 7  -4692766.490 7
  21310428.344   -11633052.322 7  -8967913.883 7
  21068633.172    -9357829.009 7  -7252408.093 8
  24090529.305    -2410892.062 3  -1728823.443 1
  24837837.008      -30779.663 3
 94  2 17 18 35 30.0000000  0  7 25 18 14 22 29 19  4
  24350412.945    16196144.823 5  12574059.083 2
  22665008.727    -8146139.739 6  -6254606.416 4
  20292271.203    -6065991.711 7  -4678467.421 7
  21308578.086   -11642767.570 7  -8975484.200 7
  21061830.789    -9393561.199 7  -7280251.338 8
  24072925.461    -2503406.921 3  -1800912.893 2
  24832062.961      -61088.741 3
 94  2 17 18 36  0.0000000  0  7 25 18 14 22 29 19  4
  24367436.078    16285625.790 5  12643784.411 3
  22650522.875    -8222298.535 6  -6313950.862 4
  20295867.555    -6047092.785 7  -4663741.002 7
  21306839.984   -11651900.272 7  -8982600.576 7
  21055067.766    -9429131.673 7  -7307968.566 8
  24055355.164    -2595713.261 3  -1872839.896 3
  24826397.414      -90918.807 3
 94  2 17 18 36 30.0000000  0  7 25 18 14 22 29 19  4
  24384467.992    16375098.477 5  12713503.286 2
  22636037.891    -8298388.628 5  -6373241.795 5
  20299563.453    -6027657.983 7  -4648597.017 7
  21305214.359   -11660455.997 7  -8989267.358 7
  21048314.250    -9464567.204 7  -7335580.649 8
  24037825.250    -2687831.383 3  -1944620.197 1
  24820813.195     -120279.283 3
 94  2 17 18 37  0.0000000  0  7 25 18 14 22 29 19  4
  24401495.453    16464577.849 5  12783227.399 3
  22621576.891    -8374404.608 6  -6432474.979 5
  20303367.453    -6007675.126 7  -4633025.982 7
  21303697.352   -11668426.521 7  -8995478.150 7
  21041596.906    -9499883.572 7  -7363099.881 8
  24020339.484      -45939.59213
  24815310.961     -149153.722 3
 94  2 17 18 37 30.0000000  0  7 25 18 14 22 29 19  4
  24418525.922    16554075.042 5  12852965.352 2
  22607123.898    -8450324.275 5  -6491633.138 5
  20307286.586    -5987109.487 7  -4617000.836 7
  21302294.602   -11675801.602 7  -9001224.957 7
  21034908.648    -9535061.757 7  -7390511.441 8
  24002866.094     -137674.836 3    -35723.53211
  24809920.102     -177512.236 3
 94  2 17 18 38  0.0000000  0  7 25 18 14 22 29 19  4
  24435563.375    16643579.962 5  12922709.322 2
  22592703.656    -8526165.264 6  -6550729.962 4
  20311306.602    -5965951.506 7  -4600514.121 7
  21301001.313   -11682582.849 7  -9006509.035 7
  21028231.484    -9570095.323 7  -7417810.302 8
  23985448.367     -229237.974 3   -107071.401 1
  24804622.477     -205360.543 3
 94  2 17 18 38 30.0000000  0  7 25 18 14 22 29 19  4
  24452596.844    16733091.054 4  12992458.115 3
  22578273.961    -8601928.016 5  -6609765.828 5
  20315447.609    -5944208.032 7  -4583571.172 7
  21299827.438   -11688757.804 7  -9011320.681 7
  21021605.242    -9604965.442 7  -7444981.809 8
  23968048.156     -320623.926 3   -178281.138 1
  24799419.508     -232695.634 3
 94  2 17 18 39  0.0000000  0  7 25 18 14 22 29 19  4
  24469631.070    16822613.100 4  13062215.410 3
  22563876.531    -8677606.952 5  -6668736.380 5
  20319695.117    -5921873.631 7  -4566167.770 7
  21298770.422   -11694316.131 7  -9015651.843 7
  21015010.281    -9639642.294 7  -7472002.723 8
  23950704.758     -411826.669 3   -249348.120 1
  24794327.422     -259511.187 2        -0.02611
 94  2 17 18 39 30.0000000  0  7 25 18 14 22 29 19  4
  24486664.078    16912120.346 4  13131961.213 4
  22549492.555    -8753214.900 5  -6727651.616 5
  20324056.391    -5898955.786 7  -4548309.732 7
  21297830.945   -11699264.577 7  -9019507.771 7
  21008449.617    -9674112.988 7  -7498862.991 8
  23933390.719     -502860.508 3   -320283.529 1
  24789310.609     -285835.278 3    -20512.259 1
 94  2 17 18 40  0.0000000  0  7 25 18 14 22 29 19  4
  24503690.695    17001628.615 5  13201707.848 4
  22535112.594    -8828767.960 5  -6786524.082 5
  20328521.727    -5875480.911 7  -4530017.641 7
  21297011.508   -11703591.342 7  -9022879.274 7
  21001923.641    -9708387.702 7  -7525570.551 8
  23916093.586     -593735.310 3   -391095.002 1
  24784390.297     -311687.846 3
 94  2 17 18 40 30.0000000  0  7 25 18 14 22 29 19  4
  24520738.906    17091153.543 5  13271467.437 5
  22520744.438    -8904253.403 5  -6845343.845 4
  20333097.234    -5851460.701 7  -4511300.617 7
  21296305.789   -11707282.447 7  -9025755.455 7
  20995440.797    -9742478.061 7  -7552134.452 8
  23898838.609     -684423.634 4   -461761.169 1
  24779561.258     -337055.322 3
 94  2 17 18 41  0.0000000  0  7 25 18 14 22 29 19  4
  24537766.438    17180665.290 4  13341216.730 4
  22506396.102    -8979687.582 5  -6904123.668 5
  20337768.727    -5826906.463 7  -4492167.472 7
  21295718.766   -11710364.488 7  -9028157.048 7
  20988978.820    -9776416.686 7  -7578580.123 8
  23881601.336     -774932.787 3   -532287.682 2
  24774824.102     -361942.867 3
 94  2 17 18 41 30.0000000  0  7 25 18 14 22 29 19  4
  24554788.539    17270169.581 4  13410960.224 4
  22492056.734    -9055055.376 6  -6962851.765 5
  20342541.359    -5801816.709 7  -4472617.040 7
  21295250.328   -11712834.231 7  -9030081.523 7
  20982548.164    -9810209.526 7  -7604912.195 8
  23864409.477     -865254.964 3   -602668.497 2
  24770182.820     -386345.894 3
 94  2 17 18 42  0.0000000  0  7 25 18 14 22 29 19  4
  24571830.813    17359670.671 5  13480701.212 4
  22477719.328    -9130341.924 5  -7021516.541 5
  20347419.797    -5776189.786 7  -4452648.039 7
  21294893.047   -11714694.732 7  -9031531.281 7
  20976141.500    -9843856.069 7  -7631130.259 8
  23847268.969     -955376.499 3   -672892.968 1
  24765626.578     -410240.336 2
 94  2 17 18 42 30.0000000  0  7 25 18 14 22 29 19  4
  24588858.406    17449139.484 5  13550417.072 4
  22463421.914    -9205533.850 5  -7080107.601 4
  20352406.891    -5749996.264 7  -4432237.523 7
  21294655.828   -11715953.790 7  -9032512.366 7
  20969770.266    -9877339.410 7  -7657221.153 8
  23830162.172    -1045290.701 4   -742955.876 1
  24761190.914     -433610.609 3
 94  2 17 18 43  0.0000000  0  7 25 18 14 22 29 19  4
  24605872.852    17538568.810 3  13620102.190 4
  22449121.852    -9280627.001 5  -7138621.680 5
  20357495.211    -5723230.680 7  -4411381.248 7
  21294526.867   -11716615.968 7  -9033028.353 7
  20963434.672    -9910642.676 7  -7683171.729 8
  23813075.359    -1135016.610 4   -812872.048 2
  24756829.281     -456479.663 2
 94  2 17 18 43 30.0000000  0  7 25 18 14 22 29 19  4
  24622883.703    17627978.781 4  13689772.210 3
  22434852.250    -9355622.416 5  -7197059.608 5
  20362704.109    -5695889.522 7  -4390076.479 6
  21294518.516   -11716672.296 7  -9033072.244 7
  20957135.391    -9943751.850 7  -7708971.070 8
  23796042.414    -1224551.380 4   -882639.309 3
  24752579.195     -478854.338 3     -8668.78111
 94  2 17 18 44  0.0000000  0  6 18 14 22 29 19  4
  22420594.070    -9430526.764 5  -7255426.569 5
  20368015.422    -5667958.591 7  -4368312.139 7
  21294626.945   -11716124.961 7  -9032645.742 7
  20950876.195    -9976653.639 7  -7734608.797 8
  23779047.477    -1313876.456 4   -952243.138 3
  24748405.234     -500722.802 3    -25709.171 1
 94  2 17 18 44 30.0000000  0  6 18 14 22 29 19  4
  22406358.859    -9505340.303 5  -7313722.795 5
  20373444.039    -5639449.429 7  -4346097.224 7
  21294837.766   -11714983.489 7  -9031756.279 7
  20944649.648   -10009358.002 7  -7760092.697 8
  23762090.086    -1402987.725 4  -1021680.357 2
  24744337.828     -522106.180 2    -42371.521 1
 94  2 17 18 45  0.0000000  0  5 18 14 22 29 19
  22392149.734    -9580065.538 6  -7371950.216 5
  20378970.148    -5610378.600 7  -4323444.648 6
  21295168.070   -11713256.453 7  -9030410.526 7
  20938464.813   -10041868.639 7  -7785425.637 8
  23745181.930    -1491873.695 4  -1090942.038 3
 94  2 17 18 45 30.0000000  0  5 18 14 22 29 19
  22377941.453    -9654716.406 6  -7430119.692 5
  20384608.609    -5580744.484 7  -4300353.148 7
  21295607.070   -11710951.599 7  -9028614.527 7
  20932311.031   -10074190.838 7  -7810611.740 8
  23728312.734    -1580534.256 4  -1160028.062 3
 94  2 17 18 46  0.0000000  0  5 18 14 22 29 19
  22363744.930    -9729279.679 6  -7488220.903 5
  20390357.156    -5550560.740 7  -4276833.365 7
  21296160.156   -11708066.753 7  -9026366.577 7
  20926201.750   -10106327.906 7  -7835653.587 8
  23711478.727    -1668976.146 4  -1228943.719 3
 94  2 17 18 46 30.0000000  0  5 18 14 22 29 19
  22349576.117    -9803749.913 6  -7546249.628 5
  20396204.773    -5519832.736 7  -4252889.492 7
  21296817.969   -11704579.868 7  -9023649.516 7
  20920113.570   -10138285.726 7  -7860555.756 8
  23694689.727    -1757218.217 4  -1297703.652 3
 94  2 17 18 47  0.0000000  0  5 18 14 22 29 19
  22335424.438    -9878146.757 6  -7604221.183 5
  20402150.234    -5488562.704 7  -4228523.252 7
  21297597.063   -11700477.903 7  -9020453.156 7
  20914076.125   -10170066.077 7  -7885319.646 8
  23677929.289    -1845278.820 4  -1366322.202 3
 94  2 17 18 47 30.0000000  0  5 18 14 22 29 19
  22321280.844    -9952435.367 6  -7662108.395 5
  20408209.953    -5456733.436 7  -4203721.243 7
  21298506.008   -11695721.567 7  -9016746.909 7
  20908054.672   -10201656.772 6  -7909935.748 8
  23661210.391    -1933143.861 3  -1434788.362 3
 94  2 17 18 48  0.0000000  0  5 18 14 22 29 19
  22307170.094   -10026597.997 6  -7719897.430 5
  20414372.328    -5424350.525 7  -4178487.823 7
  21299536.031   -11690299.005 7  -9012521.524 7
  20902084.094   -10233062.065 6  -7934407.397 8
  23644528.906    -2020800.093 3  -1503091.832 3
 94  2 17 18 48 30.0000000  0  5 18 14 22 29 19
  22293083.805   -10100660.467 6  -7777608.420 5
  20420642.617    -5391419.939 7  -4152827.645 7
  21300692.094   -11684232.165 7  -9007794.113 7
  20896139.375   -10264290.187 6  -7958740.988 8
  23627884.570    -2108258.649 4  -1571241.262 3
 94  2 17 18 49  0.0000000  0  5 18 14 22 29 19
  22279003.734   -10174609.438 6  -7835230.987 5
  20427007.648    -5357940.987 7  -4126740.164 7
  21301969.211   -11677531.867 7  -9002573.098 7
  20890232.336   -10295321.375 6  -7982921.125 8
  23611278.016    -2195507.875 4  -1639227.591 4
 94  2 17 18 49 30.0000000  0  5 18 14 22 29 19
  22264962.563   -10248442.659 6  -7892763.347 5
  20433481.891    -5323914.568 7  -4100226.091 7
  21303358.828   -11670215.843 7  -8996872.294 7
  20884365.734   -10326163.408 6  -8006953.871 8
  23594707.609    -2282551.514 4  -1707053.707 3
 94  2 17 18 50  0.0000000  0  5 18 14 22 29 19
  22250930.648   -10322171.688 6  -7950214.515 5
  20440068.883    -5289319.243 7  -4073268.713 7
  21304872.430   -11662290.064 7  -8990696.358 7
  20878535.461   -10356800.724 6  -8030827.096 8
  23578201.281    -2369384.582 4  -1774715.779 3
 94  2 17 18 50 30.0000000  0  5 18 14 22 29 19
  22236909.484   -10395795.612 6  -8007583.781 5
  20446759.180    -5254150.036 7  -4045864.158 7
  21306492.969   -11653756.192 7  -8984046.592 7
  20872743.008   -10387227.247 6  -8054536.065 8
  23561707.203    -2456003.450 4  -1842210.933 3
 94  2 17 18 51  0.0000000  0  5 18 14 22 29 19
  22222932.773   -10469307.420 6  -8064865.689 5
  20453565.641    -5218396.543 7  -4018004.313 7
  21308227.820   -11644603.555 7  -8976914.666 7
  20866997.523   -10417443.351 6  -8078081.074 8
  23545263.297    -2542391.153 4  -1909525.962 2
 94  2 17 18 51 30.0000000  0  5 18 14 22 29 19
  22208963.492   -10542713.774 6  -8122065.419 5
  20460478.656    -5182060.175 7  -3989690.274 7
  21310093.281   -11634834.645 7  -8969302.530 7
  20861274.992   -10447464.834 6  -8101474.433 8
  23528879.523    -2628544.121 4  -1976658.089 3
 94  2 17 18 52  0.0000000  0  5 18 14 22 29 19
  22195011.820   -10616030.664 6  -8179195.441 5
  20467502.875    -5145155.644 7  -3960933.515 7
  21312064.086   -11624465.996 7  -8961223.078 7
  20855606.617   -10477295.084 6  -8124718.781 8
  23512519.602    -2714470.834 3  -2043613.916 3
 94  2 17 18 52 30.0000000  0  5 18 14 22 29 19
  22181070.008   -10689251.250 6  -8236250.429 5
  20474629.227    -5107697.703 7  -3931745.525 7
  21314146.758   -11613498.313 7  -8952676.843 7
  20849971.641   -10506926.868 6  -8147808.480 8
  23496202.883    -2800167.574 3  -2110390.555 2
 94  2 17 18 53  0.0000000  0  5 18 14 22 29 19
  22167157.023   -10762362.831 6  -8293220.464 5
  20481863.906    -5069679.856 7  -3902121.257 7
  21316350.906   -11601924.767 7  -8943658.511 7
  20844365.508   -10536344.171 6  -8170731.056 8
  23479947.844    -2885639.359 4  -2176991.899 4
 94  2 17 18 53 30.0000000  0  6 18 14 22 29 19  4
  22153260.367   -10835355.933 6  -8350098.186 5
  20489205.242    -5031101.350 7  -3872060.107 7
  21318671.906   -11589751.583 7  -8934172.933 7
  20838814.039   -10565543.870 7  -8193484.062 8
  23463735.461    -2970889.724 3  -2243420.704 2
  24687221.852          -0.50613
 94  2 17 18 54  0.0000000  0  6 18 14 22 29 19  4
  22139410.469   -10908239.031 6  -8406890.163 5
  20496651.750    -4991965.399 7  -3841564.585 7
  21321099.195   -11576979.819 7  -8924220.926 7
  20833301.195   -10594522.905 7  -8216065.127 7
  23447539.242    -3055919.609 3  -2309677.738 2
  24684950.898      -11921.177 2
 94  2 17 18 54 30.0000000  0  6 18 14 22 29 19  4
  22125546.945   -10981019.994 6  -8463602.555 5
  20504202.938    -4952292.991 7  -3810651.042 7
  21323644.117   -11563612.130 7  -8913804.561 7
  20827822.969   -10623302.186 7  -8238490.544 8
  23431413.266    -3140747.019 3  -2375776.980 4
  24682783.508      -23328.267 2
 94  2 17 18 55  0.0000000  0  6 18 14 22 29 19  4
  22111721.789   -11053706.413 6  -8520241.267 5
  20511855.875    -4912077.616 7  -3779314.404 7
  21326297.523   -11549660.934 7  -8902933.521 7
  20822372.523   -10651907.649 7  -8260780.509 8
  23415300.523    -3225378.504 3  -2441723.562 2
  24680707.555      -34241.190 3     -4205.82311
 94  2 17 18 55 30.0000000  0  6 18 14 22 29 19  4
  22097897.891   -11126288.264 6  -8576798.512 5
  20519618.297    -4871297.972 7  -3747538.072 7
  21329062.563   -11535118.972 7  -8891602.146 7
  20816966.055   -10680337.803 7  -8282933.874 8
  23399237.320    -3309791.142 3  -2507499.597 4
  24678731.461      -44660.452 2    -12324.775 1
 94  2 17 18 56  0.0000000  0  6 18 14 22 29 19  4
  22084126.336   -11198773.739 6  -8633280.645 5
  20527481.445    -4829971.614 7  -3715335.739 7
  21331944.586   -11519982.712 7  -8879807.680 7
  20811591.070   -10708592.720 7  -8304950.693 8
  23383218.203    -3393994.674 3  -2573112.689 4
  24676841.031      -54598.268 3    -20068.589 1
 94  2 17 18 56 30.0000000  0  6 18 14 22 29 19  4
  22070343.344   -11271132.388 6  -8689663.955 5
  20535449.453    -4788093.156 7  -3682703.194 7
  21334944.203   -11504242.080 7  -8867542.271 7
  20806248.695   -10736662.566 7  -8326823.299 7
  23367236.102    -3477981.003 3  -2638556.563 3
  24675049.672      -64047.644 3
 94  2 17 18 57  0.0000000  0  6 18 14 22 29 19  4
  22056596.141   -11343352.884 6  -8745939.621 5
  20543525.734    -4745656.624 7  -3649635.789 7
  21338054.750   -11487890.447 7  -8854800.765 7
  20800944.914   -10764531.456 7  -8348539.314 8
  23351283.703    -3561732.982 3  -2703817.783 4
  24673339.258      -73007.982 3
 94  2 17 18 57 30.0000000  0  6 18 14 22 29 19  4
  22042877.195   -11415433.590 6  -8802106.365 5
  20551700.641    -4702688.857 7  -3616154.429 7
  21341284.008   -11470920.665 7  -8841577.571 7
  20795690.164   -10792172.197 7  -8370077.548 7
  23335391.484    -3645254.097 4  -2768899.133 3
  24671727.602      -81463.843 3
 94  2 17 18 58  0.0000000  0  6 18 14 22 29 19  4
  22029193.492   -11487374.197 6  -8858163.916 5
  20559970.711    -4659207.239 7  -3582272.674 7
  21344630.422   -11453330.800 7  -8827871.195 7
  20790473.891   -10819571.315 7  -8391427.511 8
  23319551.844    -3728543.362 4  -2833799.815 4
  24670204.172      -89419.340 3
 94  2 17 18 58 30.0000000  0  6 18 14 22 29 19  4
  22015537.383   -11559177.130 6  -8914114.206 5
  20568349.055    -4615210.220 7  -3547989.311 7
  21348095.547   -11435128.662 7  -8813687.722 7
  20785304.953   -10846738.467 7  -8412596.715 7
  23303750.266    -3811604.360 4  -2898522.594 3
  24668788.820      -96880.604 3     -2859.47011
 94  2 17 18 59  0.0000000  0  6 18 14 22 29 19  4
  22001896.578   -11630861.163 6  -8969971.843 5
  20576817.352    -4570705.549 7  -3513310.372 7
  21351672.266   -11416330.547 7  -8799039.856 7
  20780178.344   -10873662.178 7  -8433576.223 8
  23287976.844    -3894441.990 4  -2963071.348 4
  24667463.203     -103856.163 3     -8294.954 1
 94  2 17 18 59 30.0000000  0  6 18 14 22 29 19  4
  21988266.883   -11702448.172 6  -9025753.886 5
  20585379.492    -4525700.241 7  -3478241.326 7
  21355356.953   -11396956.494 7  -8783943.197 7
  20775092.203   -10900369.663 7  -8454387.244 7
  23272257.266    -3977083.480 5  -3027467.244 4
  24666235.266     -110365.317 3    -13367.036 1
 94  2 17 19  0  0.0000000  0  6 18 14 22 29 19  4
  21974661.242   -11773944.142 6  -9081464.981 5
  20594043.844    -4480171.468 7  -3442764.396 7
  21359155.055   -11377001.627 7  -8768393.962 7
  20770051.680   -10926886.852 7  -8475049.973 7
  23256566.867    -4059524.450 5  -3091706.885 2
  24665074.188     -116411.704 3    -18078.544 1
 94  2 17 19  0 30.0000000  0  6 18 14 22 29 19  4
  21961067.766   -11845360.022 6  -9137113.672 5
  20602811.617    -4434108.720 7  -3406871.373 7
  21363061.359   -11356467.526 7  -8752393.371 8
  20765034.922   -10953221.316 7  -8495570.319 7
  23240917.266    -4141766.535 5  -3155791.550 3
  24664009.906     -121978.885 3    -22416.602 1
 94  2 17 19  1  0.0000000  0  6 18 14 22 29 19  4
  21947503.586   -11916691.971 6  -9192696.970 5
  20611678.055    -4387498.311 7  -3370551.600 7
  21367079.758   -11335349.699 7  -8735937.930 8
  20760065.516   -10979364.725 7  -8515941.792 7
  23225309.188    -4223798.004 5  -3219712.101 4
  24663048.039     -127051.513 3    -26369.336 1
 94  2 17 19  1 30.0000000  0  6 18 14 22 29 19  4
  21933935.266   -11987951.315 6  -9248223.694 5
  20620653.984    -4340336.312 7  -3333802.018 7
  21371213.680   -11313647.210 7  -8719026.895 7
  20755120.000   -11005339.710 7  -8536182.031 7
  23209731.836    -4305629.479 5  -3283476.799 3
  24662171.234     -131633.608 3    -29939.832 1
 94  2 17 19  2  0.0000000  0  6 18 14 22 29 19  4
  21920399.367   -12059099.660 6  -9303663.924 5
  20629731.891    -4292610.331 7  -3296612.974 7
  21375459.016   -11291338.524 7  -8701643.494 8
  20750220.742   -11031091.729 7  -8556248.537 7
  23194221.234    -4387230.778 5  -3347062.163 3
  24661395.273     -135693.040 3    -33102.992 1
 94  2 17 19  2 30.0000000  0  6 18 14 22 29 19  4
  21906879.383   -12130124.018 6  -9359007.550 5
  20638921.383    -4244339.777 7  -3258999.587 7
  21379813.047   -11268438.567 7  -8683799.357 8
  20745366.906   -11056606.707 7  -8576130.331 7
  23178721.930    -4468610.865 5  -3410475.123 3
  24660740.547     -139259.468 3    -35882.028 1
 94  2 17 19  3  0.0000000  0  5 18 14 22 29 19
  21893390.516   -12201010.924 6  -9414244.058 6
  20648208.719    -4195530.265 7  -3220966.230 7
  21384289.063   -11244933.725 7  -8665483.888 8
  20740556.414   -11081874.576 7  -8595819.559 7
  23163283.359    -4549773.908 5  -3473718.986 4
 94  2 17 19  3 30.0000000  0  5 18 14 22 29 19
  21879932.539   -12271753.287 6  -9469367.970 6
  20657598.516    -4146205.427 7  -3182531.318 7
  21388875.633   -11220826.921 7  -8646699.356 7
  20735794.883   -11106896.650 7  -8615317.266 7
  23147883.570    -4630723.284 5  -3536796.339 3
 94  2 17 19  4  0.0000000  0  5 18 14 22 29 19
  21866499.563   -12342345.715 6  -9524375.037 6
  20667077.563    -4096382.405 7  -3143708.219 7
  21393574.844   -11196126.881 7  -8627452.564 7
  20731078.539   -11131684.659 7  -8634632.595 7
  23132515.789    -4711454.420 5  -3599703.655 4
 94  2 17 19  4 30.0000000  0  5 18 14 22 29 19
  21853094.500   -12412799.253 6  -9579273.877 6
  20676656.625    -4046062.739 7  -3104498.122 7
  21398388.984   -11170841.736 7  -8607749.836 7
  20726398.227   -11156270.758 7  -8653790.581 7
  23117190.617    -4791961.917 5  -3662436.703 5
 94  2 17 19  5  0.0000000  0  5 18 14 22 29 19
  21839717.570   -12483131.669 6  -9634078.347 6
  20686318.922    -3995258.348 7  -3064910.314 7
  21403311.227   -11144987.232 7  -8587603.456 7
  20721756.039   -11180669.705 7  -8672802.744 7
  23101913.297    -4872260.731 5  -3725007.140 4
 94  2 17 19  5 30.0000000  0  5 18 14 22 29 19
  21826350.469   -12553327.788 6  -9688776.610 6
  20696081.305    -3943965.874 7  -3024942.180 7
  21408330.563   -11118573.941 7  -8567021.645 7
  20717153.586   -11204877.230 7  -8691665.749 7
  23086670.641    -4952341.341 5  -3787407.539 5
 94  2 17 19  6  0.0000000  0  5 18 14 22 29 19
  21813010.258   -12623404.641 6  -9743381.935 6
  20705934.289    -3892183.023 7  -2984591.933 7
  21413458.859   -11091614.062 7  -8546013.931 7
  20712581.180   -11228899.712 7  -8710384.560 7
  23071475.938    -5032219.805 5  -3849650.436 4
 94  2 17 19  6 30.0000000  0  5 18 14 22 29 19
  21799705.539   -12693364.299 6  -9797895.944 6
  20715885.953    -3839902.594 7  -2943853.963 7
  21418696.820   -11064109.447 7  -8524581.747 7
  20708051.102   -11252713.458 7  -8728940.725 7
  23056309.844    -5111899.073 5  -3911738.108 4
 94  2 17 19  7  0.0000000  0  5 18 14 22 29 19
  21786409.531   -12763208.839 6  -9852320.261 6
  20725930.047    -3787120.664 7  -2902725.215 7
  21424036.102   -11036051.408 7  -8502718.329 7
  20703558.477   -11276302.838 7  -8747322.071 7
  23041185.156    -5191384.838 5  -3973674.996 4
 94  2 17 19  7 30.0000000  0  5 18 14 22 29 19
  21773154.156   -12832936.826 6  -9906653.737 6
  20736069.578    -3733815.610 7  -2861188.836 7
  21429479.234   -11007435.288 7  -8480420.056 7
  20699112.656   -11299667.629 7  -8765528.412 7
  23026101.805    -5270651.483 5  -4035441.145 5
 94  2 17 19  8  0.0000000  0  5 18 14 22 29 19
  21759884.281   -12902565.333 6  -9960909.699 6
  20746315.031    -3679981.020 7  -2819239.829 7
  21435030.484   -10978273.311 7  -8457696.439 7
  20694709.188   -11322815.626 7  -8783565.802 7
  23011063.805    -5349697.064 5  -4097035.042 5
 94  2 17 19  8 30.0000000  0  5 18 14 22 29 19
  21746657.555   -12972089.645 6 -10015084.471 6
  20756660.180    -3625619.859 7  -2776880.512 7
  21440681.727   -10948559.413 7  -8434542.757 7
  20690345.688   -11345744.001 7  -8801432.069 7
  22996066.523    -5428512.668 5  -4158449.738 5
 94  2 17 19  9  0.0000000  0  5 18 14 22 29 19
  21733454.063   -13041492.874 6 -10069164.888 6
  20767107.148    -3570726.169 7  -2734106.235 7
  21446449.148   -10918278.330 7  -8410947.112 7
  20686022.227   -11368458.917 7  -8819132.011 7
  22981105.242    -5507088.690 5  -4219677.759 3
 94  2 17 19  9 30.0000000  0  5 18 14 22 29 19
  21720265.234   -13110753.652 6 -10123134.308 6
  20777655.047    -3515300.293 7  -2690917.269 7
  21452316.313   -10887430.779 7  -8386910.067 7
  20681737.578   -11390960.617 7  -8836665.812 7
  22966201.211    -5585419.804 5  -4280714.923 4
 94  2 17 19 10  0.0000000  0  6 18 14 22 29 19  4
  21707129.172   -13179862.844 6 -10176985.604 6
  20788300.266    -3459362.907 7  -2647329.726 7
  21458298.609   -10855997.315 7  -8362416.474 7
  20677503.773   -11413226.979 7  -8854016.223 7
  22951335.391    -5663510.404 5  -4341564.684 4
  24661104.375        1767.29313
 94  2 17 19 10 30.0000000  0  6 18 14 22 29 19  4
  21694014.539   -13248825.917 6 -10230723.051 6
  20799034.203    -3402940.121 7  -2603363.947 7
  21464394.070   -10823970.069 7  -8337460.191 7
  20673309.641   -11435261.415 7  -8871185.921 7
  22936526.047    -5741368.736 5  -4402233.454 4
  24661842.453        5625.493 2      1545.24111
 94  2 17 19 11  0.0000000  0  6 18 14 22 29 19  4
  21680909.297   -13317637.023 6 -10284342.065 6
  20809860.680    -3346034.393 7  -2559021.840 7
  21470599.148   -10791352.381 7  -8312043.830 7
  20669162.359   -11457055.795 7  -8888168.553 7
  22921757.781    -5818991.440 5  -4462718.618 3
  24662653.805        9917.786 2      4889.900 1
 94  2 17 19 11 30.0000000  0  6 18 14 22 29 19  4
  21667829.125   -13386317.913 6 -10337859.618 6
  20820783.328    -3288655.231 7  -2514310.833 7
  21476912.180   -10758157.603 7  -8286177.793 7
  20665063.828   -11478603.137 7  -8904958.687 7
  22907024.859    -5896390.178 5  -4523029.283 4
  24663562.867       14649.227 2      8576.706 1
 94  2 17 19 12  0.0000000  0  6 18 14 22 29 19  4
  21654800.922   -13454877.968 6 -10391283.009 6
  20831791.367    -3230797.999 7  -2469227.298 7
  21483340.484   -10724374.339 7  -8259853.189 7
  20661013.141   -11499886.272 7  -8921542.949 7
  22892347.523    -5973553.671 5  -4583156.607 3
  24664568.836       19836.864 3     12619.046 1
 94  2 17 19 12 30.0000000  0  6 18 14 22 29 19  4
  21641760.289   -13523324.342 6 -10444617.812 6
  20842892.961    -3172464.917 7  -2423772.970 7
  21489881.469   -10690029.276 7  -8233090.831 7
  20657012.359   -11520930.889 7  -8937941.349 8
  22877699.570    -6050496.852 5  -4643112.271 4
  24665605.109       25480.461 3     17016.652 2
 94  2 17 19 13  0.0000000  0  6 18 14 22 29 19  4
  21628757.766   -13591660.300 6 -10497866.579 6
  20854083.492    -3113659.700 7  -2377950.743 7
  21496518.555   -10655142.263 7  -8205906.165 7
  20653043.234   -11541747.468 7  -8954162.048 8
  22863092.648    -6127241.046 5  -4702912.888 5
  24666794.117       31597.109 3     21782.841 1
 94  2 17 19 13 30.0000000  0  6 18 14 22 29 19  4
  21615777.930   -13659880.421 7 -10551025.084 6
  20865362.398    -3054390.730 7  -2331767.153 7
  21503263.781   -10619718.821 7  -8178303.521 7
  20649127.797   -11562342.395 7  -8970210.034 8
  22848530.766    -6203791.378 5  -4762562.429 5
  24668039.016       38194.654 3     26923.717 1
 94  2 17 19 14  0.0000000  0  6 18 14 22 29 19  4
  21602820.273   -13727966.749 7 -10604079.331 6
  20876726.086    -2994673.212 7  -2285234.056 7
  21510092.875   -10583771.090 7  -8150292.327 7
  20645248.117   -11582727.833 7  -8986094.782 8
  22834001.305    -6280145.454 5  -4822059.021 4
  24669384.094       45268.248 3     32435.599 1
 94  2 17 19 14 30.0000000  0  6 18 14 22 29 19  4
  21589901.688   -13795872.550 7 -10656992.913 6
  20888179.320    -2934484.259 7  -2238333.604 7
  21517041.789   -10547291.173 7  -8121866.454 7
  20641412.508   -11602887.727 7  -9001803.778 8
  22819511.523    -6356285.589 5  -4881388.924 5
  24670827.789       52825.752 3     38324.533 1
 94  2 17 19 15  0.0000000  0  6 18 14 22 29 19  4
  21577022.250   -13863584.788 7 -10709755.664 6
  20899728.734    -2873807.464 7  -2191053.020 7
  21524087.453   -10510272.777 7  -8093020.983 7
  20637622.281   -11622806.819 7  -9017325.133 8
  22805064.242    -6432191.402 5  -4940536.223 5
  24672358.672       60862.311 3     44586.705 1
 94  2 17 19 15 30.0000000  0  6 18 14 22 29 19  4
  21564174.352   -13931109.895 7 -10762372.609 6
  20911362.930    -2812647.979 7  -2143396.307 7
  21531232.031   -10472721.491 7  -8063760.273 7
  20633868.461   -11642499.276 7  -9032669.895 8
  22790659.977    -6507866.112 5  -4999503.462 5
  24673963.414       69339.975 3
 94  2 17 19 16  0.0000000  0  6 18 14 22 29 19  4
  21551349.977   -13998446.898 7 -10814842.975 6
  20923100.344    -2750972.585 7  -2095337.590 7
  21538484.516   -10434625.637 7  -8034075.223 7
  20630168.992   -11661956.565 7  -9047831.408 8
  22776316.219    -6583296.960 5  -5058280.649 5
  24675644.391       78247.226 2
 94  2 17 19 16 30.0000000  0  6 18 14 22 29 19  4
  21538571.383   -14065595.409 6 -10867166.467 6
  20934939.445    -2688751.075 7  -2046853.335 7
  21545850.734   -10395956.315 7  -8003943.312 7
  20626517.086   -11681158.357 7  -9062793.850 8
  22762003.555    -6658469.938 5  -5116856.905 5
  24677441.945        4721.78011
 94  2 17 19 16 59.9990000  0  5 18 14 22 29 19
  21525834.183   -14132570.726 7 -10919355.006 6
  20946882.354    -2625977.917 7  -1997939.214 7
  21553320.534   -10356686.226 7  -7973343.268 7
  20622917.128   -11700085.495 7  -9077542.260 8
  22747752.284    -6733381.405 5  -5175229.380 5
 94  2 17 19 17 29.9990000  0  5 18 14 22 29 19
  21513117.597   -14199389.676 7 -10971421.700 6
  20958931.909    -2562673.162 7  -1948610.868 7
  21560904.300   -10316813.841 7  -7942273.904 7
  20619364.690   -11718730.768 7  -9092071.050 8
  22733540.136    -6808049.109 5  -5233411.935 5
 94  2 17 19 17 59.9990000  0  5 18 14 22 29 19
  21500432.573   -14266061.295 7 -11023373.588 6
  20971073.300    -2498865.039 7  -1898890.283 7
  21568598.628   -10276357.453 7  -7910749.460 7
  20615875.089   -11737094.012 7  -9106380.059 8
  22719372.698    -6882471.056 5  -5291402.989 5
 94  2 17 19 18 29.9990000  0  5 18 14 22 29 19
  21487766.737   -14332602.924 7 -11075224.196 6
  20983300.870    -2434603.818 7  -1848816.629 7
  21576404.558   -10235349.287 7  -7878795.059 7
  20612429.073   -11755189.987 7  -9120480.816 8
  22705259.042    -6956674.030 5  -5349223.409 5
 94  2 17 19 18 59.9990000  0  5 18 14 22 29 19
  21475132.589   -14399009.220 7 -11126969.337 6
  20995614.026    -2369905.082 7  -1798402.068 7
  21584308.909   -10193817.111 7  -7846432.339 7
  20609033.628   -11773026.083 7  -9134379.073 8
  22691181.558    -7030662.333 5  -5406876.564 5
 94  2 17 19 19 29.9990000  0  5 18 14 22 29 19
  21462532.714   -14465238.681 7 -11178576.693 6
  21008014.675    -2304752.109 7  -1747633.548 7
  21592311.948   -10151766.055 7  -7813665.292 7
  20605696.112   -11790598.013 7  -9148071.492 8
  22677147.401    -7104408.035 5  -5464340.686 5
 94  2 17 19 19 59.9990000  0  5 18 14 22 29 19
  21449961.042   -14531283.467 7 -11230040.134 6
  21020499.878    -2239128.991 7  -1696498.678 7
  21600407.323   -10109204.905 7  -7780500.753 7
  20602406.222   -11807917.274 7  -9161567.030 8
  22663162.089    -7177908.939 5  -5521614.065 5
 94  2 17 19 20 29.9990000  0  5 18 14 22 29 19
  21437417.995   -14597154.017 7 -11281367.811 6
  21033076.370    -2173031.356 7  -1644994.061 7
  21608604.019   -10066142.326 7  -7746945.497 7
  20599147.362   -11824989.252 7  -9174869.869 8
  22649221.300    -7251174.871 5  -5578704.359 5
 94  2 17 19 20 59.9990000  0  5 18 14 22 29 19
  21424919.534   -14662861.832 7 -11332568.676 6
  21045745.073    -2106471.293 7  -1593129.110 7
  21616895.769   -10022572.137 7  -7712994.693 7
  20595935.425   -11841837.376 7  -9187998.285 8
  22635313.229    -7324218.814 5  -5635621.664 5
 94  2 17 19 21 29.9990000  0  5 18 14 22 29 19
  21412451.644   -14728428.945 7 -11383659.918 6
  21058496.276    -2039477.567 7  -1540926.231 7
  21625275.644    -9978491.256 7  -7678645.966 7
  20592777.081   -11858465.031 7  -9200954.898 8
  22621457.065    -7397060.220 6  -5692381.154 5
 94  2 17 19 21 59.9990000  0  5 18 14 22 29 19
  21399994.073   -14793849.995 7 -11434637.342 6
  21071330.901    -1972033.171 7  -1488372.180 6
  21633777.972    -9933860.526 7  -7643868.778 7
  20589661.823   -11874839.737 7  -9213714.419 8
  22607635.042    -7469677.844 6  -5748966.266 5
 94  2 17 19 22 29.9990000  0  5 18 14 22 29 19
  21387566.815   -14859123.854 7 -11485500.066 6
  21084245.167    -1904157.636 7  -1435482.171 7
  21642376.487    -9888665.924 7  -7608652.213 7
  20586594.690   -11890953.808 7  -9226270.841 8
  22593863.690    -7542079.971 6  -5805383.473 5
 94  2 17 19 22 59.9990000  0  5 18 14 22 29 19
  21375184.745   -14924238.320 7 -11536238.593 6
  21097240.323    -1835854.879 7  -1382259.273 6
  21651080.878    -9842907.262 7  -7572996.125 7
  20583580.542   -11906792.048 7  -9238612.331 8
  22580120.878    -7614259.639 6  -5861627.339 5
 94  2 17 19 23 29.9990000  0  6 18 14 22 29 19  4
  21362821.292   -14989179.668 7 -11586842.224 6
  21110321.901    -1767106.851 7  -1328689.405 7
  21659896.261    -9796596.742 7  -7536910.024 7
  20580621.573   -11922333.366 7  -9250722.452 8
  22566435.089    -7686195.913 6  -5917681.537 5
  24711181.964        7791.86813
 94  2 17 19 23 59.9990000  0  6 18 14 22 29 19  4
  21350500.573   -15053930.850 7 -11637297.672 6
  21123492.542    -1697902.821 7  -1274764.216 7
  21668813.128    -9749754.645 7  -7500409.712 7
  20577719.425   -11937595.170 7  -9262614.780 8
  22552791.972    -7757879.372 5  -5973538.735 5
  24714218.144       23709.605 4
 94  2 17 19 24 29.9990000  0  6 18 14 22 29 19  4
  21338213.394   -15118497.532 7 -11687609.358 6
  21136745.651    -1628257.187 7  -1220494.911 6
  21677815.394    -9702419.616 7  -7463525.293 7
  20574866.253   -11952598.142 7  -9274305.420 8
  22539200.784    -7829322.731 6  -6029208.838 5
  24717324.394       40046.122 3
 94  2 17 19 24 59.9990000  0  6 18 14 22 29 19  4
  21325968.315   -15182878.054 7 -11737775.984 6
  21150081.433    -1558161.684 7  -1165875.062 7
  21686917.909    -9654603.886 7  -7426266.318 7
  20572055.940   -11967354.212 7  -9285803.659 8
  22525655.417    -7900512.319 5  -6084681.199 5
  24720498.964       56795.822 3      6566.16011
 94  2 17 19 25 29.9990000  0  6 18 14 22 29 19  4
  21313741.230   -15247073.494 7 -11787798.393 6
  21163508.784    -1487618.265 7  -1110906.194 7
  21696116.800    -9606299.066 7  -7388626.236 7
  20569291.190   -11981881.766 7  -9297123.834 8
  22512147.003    -7971465.784 5  -6139969.560 5
  24723751.729       73959.259 2
 94  2 17 19 25 59.9990000  0  6 18 14 22 29 19  4
  21301568.480   -15311098.019 7 -11837687.608 6
  21177014.503    -1416642.589 7  -1055600.491 7
  21705390.167    -9557517.642 7  -7350614.772 7
  20566570.097   -11996194.246 7  -9308276.421 8
  22498686.339    -8042203.223 5  -6195089.580 5
  24727118.722        8828.13612
 94  2 17 19 26 29.9990000  0  6 18 14 22 29 19  4
  21289407.659   -15374945.644 7 -11887438.981 6
  21190605.917    -1345219.118 7   -999945.864 7
  21714768.628    -9508228.164 7  -7312207.426 7
  20563892.862   -12010253.392 7  -9319231.607 8
  22485273.026    -8112710.496 5  -6250030.242 5
  24730538.667       26804.444 3
 94  2 17 19 26 59.9990000  0  6 18 14 22 29 19  4
  21277298.354   -15438608.474 7 -11937046.362 6
  21204280.839    -1273354.561 7   -943947.535 7
  21724246.644    -9458410.717 7  -7273388.672 7
  20561265.862   -12024051.641 7  -9329983.499 8
  22471892.487    -8182988.158 6  -6304791.996 5
  24734036.878       45207.923 3
 94  2 17 19 27 29.9990000  0  6 18 14 22 29 19  4
  21265215.878   -15502091.999 7 -11986514.020 6
  21218040.597    -1201059.966 7   -887614.117 7
  21733829.433    -9408063.662 7  -7234157.233 7
  20558693.370   -12037570.457 7  -9340517.649 8
  22458567.237    -8253039.021 6  -6359377.024 5
  24737616.409       64030.697 3
 94  2 17 19 27 59.9990000  0  6 18 14 22 29 19  4
  21253162.097   -15565408.193 7 -12035851.291 6
  21231878.784    -1128351.707 6   -830958.353 7
  21743509.862    -9357208.974 7  -7194530.236 7
  20556173.847   -12050804.730 7  -9350830.072 8
  22445283.409    -8322854.279 6  -6413778.460 5
  24741276.886       83257.608 3
 94  2 17 19 28 29.9990000  0  6 18 14 22 29 19  4
  21241161.550   -15628547.928 7 -12085051.055 6
  21245789.300    -1055229.139 6   -773979.752 6
  21753286.722    -9305830.928 7  -7154495.427 7
  20553713.948   -12063741.502 7  -9360910.685 8
  22432043.972    -8392432.032 6  -6467994.833 5
  24745023.401      102899.355 3
 94  2 17 19 28 59.9990000  0  5 18 14 22 29 19
  21229169.800   -15691503.727 7 -12134107.493 6
  21259780.511     -981695.403 6   -716680.765 7
  21763157.620    -9253938.732 7  -7114059.979 7
  20551311.245   -12076379.936 7  -9370758.820 8
  22418850.315    -8461778.324 6  -6522030.832 5
 94  2 17 19 29 29.9990000  0  5 18 14 22 29 19
  21217232.089   -15754292.138 7 -12183033.508 6
  21273851.886     -907754.528 6   -659064.527 7
  21773126.987    -9201547.045 7  -7073235.301 7
  20548964.120   -12088721.147 7  -9380375.366 8
  22405693.675    -8530910.390 6  -6575899.905 5
 94  2 17 19 29 59.9990000  0  5 18 14 22 29 19
  21205315.394   -15816875.527 7 -12231799.757 6
  21288011.175     -833368.019 6   -601101.044 6
  21783196.690    -9148643.604 7  -7032011.850 7
  20546671.245   -12100754.164 7  -9389751.747 8
  22392581.050    -8599811.756 6  -6629589.213 5
 94  2 17 19 30 29.9990000  0  5 18 14 22 29 19
  21193449.753   -15879244.378 7 -12280398.837 7
  21302253.042     -758526.463 6   -542782.981 7
  21793358.604    -9095227.948 7  -6990389.281 7
  20544438.315   -12112483.849 7  -9398891.769 8
  22379504.323    -8668490.397 6  -6683104.981 5
 94  2 17 19 30 59.9990000  0  5 18 14 22 29 19
  21181620.401   -15941399.980 7 -12328831.753 7
  21316577.933     -683224.912 6   -484106.472 6
  21803620.245    -9041307.217 7  -6948373.143 7
  20542259.011   -12123915.305 7  -9407799.414 8
  22366480.308    -8736941.027 6  -6736443.082 5
 94  2 17 19 31 29.9990000  0  5 18 14 22 29 19
  21169836.120   -16003348.726 7 -12377103.478 7
  21330996.878     -607460.068 6   -425068.969 6
  21813977.026    -8986896.055 7  -6905974.859 7
  20540148.011   -12135065.366 7  -9416487.775 8
  22353501.956    -8805152.849 6  -6789595.093 5
 94  2 17 19 31 59.9990000  0  6 27 18 14 22 29 19
  24847130.464      -44598.57212
  21158088.198   -16065082.576 7 -12425207.750 7
  21345499.026     -531237.575 6   -365674.845 6
  21824422.878    -8932013.688 7  -6863209.389 7
  20538072.815   -12145949.402 7  -9424968.846 8
  22340568.745    -8873116.077 6  -6842553.405 5
 94  2 17 19 32 29.9990000  0  6 27 18 14 22 29 19
  24830177.573     -133721.934 3    -34713.98611
  21146381.550   -16126610.682 7 -12473151.715 7
  21360090.604     -454578.139 6   -305940.246 6
  21834955.245    -8876646.252 7  -6820065.947 7
  20536055.636   -12156563.420 7  -9433239.508 8
  22327691.112    -8940823.515 6  -6895312.398 5
 94  2 17 19 32 59.9990000  0  6 27 18 14 22 29 19
  24813240.675     -222753.551 3   -104089.157 1
  21134708.058   -16187930.145 7 -12520933.090 7
  21374758.237     -377497.325 6   -245877.312 6
  21845589.604    -8820783.685 7  -6776536.674 7
  20534082.378   -12166899.007 7  -9441293.214 8
  22314847.995    -9008259.532 6  -6947859.899 5
 94  2 17 19 33 29.9990000  0  7 27 18 14 28 22 29 19
  24796315.683     -311709.470 3   -173405.331 2
  21123080.659   -16249046.058 7 -12568555.858 7
  21389499.706     -300028.699 6   -185512.177 6
  24774867.675          -0.46813
  21856316.565    -8764432.804 7  -6732626.909 7
  20532171.292   -12176961.254 7  -9449133.931 8
  22302066.472    -9075432.384 6  -7000202.336 5
 94  2 17 19 33 59.9990000  0  7 27 18 14 28 22 29 19
  24779392.362     -400584.702 3   -242658.645 1
  21111489.261   -16309967.468 7 -12616027.066 7
  21404309.386     -222193.905 6   -124861.715 6
  24760897.065      -73451.892 3
  21867134.511    -8707585.766 7  -6688330.533 7
  20530308.980   -12186741.862 7  -9456755.186 8
  22289332.878    -9142360.404 6  -7052353.998 5
 94  2 17 19 34 29.9990000  0  7 27 18 14 28 22 29 19
  24762511.253     -489349.834 3   -311826.217 1
  21099930.144   -16370685.542 7 -12663339.826 7
  21419191.933     -143981.591 6    -63917.087 6
  24746947.495     -146749.154 4    -28542.87911
  21878039.784    -8650224.582 7  -6643633.516 7
  20528507.175   -12196210.229 7  -9464133.139 8
  22276649.456    -9209036.060 6  -7104309.018 5
 94  2 17 19 34 59.9990000  0  7 27 18 14 28 22 29 19
  24745633.300     -577990.069 3   -380896.484 1
  21088413.675   -16431195.187 7 -12710490.190 7
  21434149.511      -65394.113 6     -2680.126 6
  24733033.253     -219896.910 3    -85541.057 1
  21889051.019    -8592373.133 7  -6598554.478 7
  20526763.815   -12205365.805 7  -9471267.363 8
  22264003.167    -9275474.565 6  -7156079.239 5
 94  2 17 19 35 29.9990000  0  7 27 18 14 28 22 29 19
  24728798.292     -666481.158 3   -449850.524 1
  21076943.800   -16491490.273 7 -12757473.355 7
  21449179.362       13594.805 6     58869.649 6
  24719134.534     -292863.018 3   -142397.694 1
  21900153.745    -8534035.173 7  -6553096.346 7
  20525086.487   -12214205.013 7  -9478155.059 8
  22251407.300    -9341678.764 6  -7207666.889 5
 94  2 17 19 35 59.9990000  0  7 27 18 14 28 22 29 19
  24711983.995     -754810.308 3   -518678.413 2
  21065512.870   -16551573.213 7 -12804291.209 7
  21464290.183       93000.348 6    120744.063 6
  24705277.065     -365659.539 3   -199122.190 1
  21911338.026    -8475227.192 7  -6507271.974 7
  20523459.222   -12222734.272 7  -9484801.240 8
  22238857.683    -9407647.248 6  -7259070.862 5
 94  2 17 19 36 29.9990000  0  7 27 18 14 28 22 29 19
  24695203.729     -842978.370 3   -587380.676 1
  21054111.987   -16611426.931 7 -12850930.448 7
  21479481.675      172829.569 6    182948.624 6
  24691471.534     -438300.277 3   -255725.302 1
  21922620.706    -8415949.143 7  -6461081.293 7
  20521894.214   -12230953.910 7  -9491206.161 8
  22226349.347    -9473359.825 6  -7310275.430 5
 94  2 17 19 36 59.9990000  0  7 27 18 14 28 22 29 19
  24678435.300     -931028.066 3   -655990.756 1
  21042774.792   -16671063.991 7 -12897400.869 7
  21494751.050      253059.573 6    245465.479 6
  24677663.620     -510815.329 3   -312230.518 1
  21933996.862    -8356220.715 7  -6414539.674 7
  20520386.284   -12238886.981 7  -9497387.781 8
  22213889.073    -9538832.327 6  -7361292.919 6
 94  2 17 19 37 29.9990000  0  7 27 18 14 28 22 29 19
  24661713.659    -1018973.982 3   -724519.993 1
  21031460.526   -16730493.715 7 -12943709.728 7
  21510099.706      333697.199 6    308299.957 6
  24663894.644     -583201.876 3   -368635.545 1
  21945446.644    -8296040.842 7  -6367646.275 7
  20518930.214   -12246543.758 7  -9503354.104 8
  22201473.229    -9604056.482 6  -7412116.893 5
 94  2 17 19 37 59.9990000  0  7 27 18 14 28 22 29 19
  24644992.183    -1106828.595 3   -792978.088 2
  21020195.058   -16789702.217 7 -12989846.211 7
  21525516.792      414733.765 6    371445.306 6
  24650132.003     -655484.448 2   -424959.666 1
  21956981.698    -8235407.528 7  -6320399.553 7
  20517528.331   -12253913.141 7  -9509096.485 8
  22189119.058    -9669038.166 6  -7462751.916 5
 94  2 17 19 38 29.9990000  0  7 27 18 14 28 22 29 19
  24628280.925    -1194629.109 3   -861393.939 1
  21008964.597   -16848707.014 7 -13035823.955 7
  21541011.651      496152.773 6    434888.658 6
  24636399.394     -727668.553 3   -481207.071 1
  21968608.394    -8174328.219 7  -6272805.311 7
  20516175.870   -12261003.295 7  -9514621.287 8
  22176788.644    -9733812.568 6  -7513225.419 5
 94  2 17 19 38 59.9990000  0  7 27 18 14 28 22 29 19
  24611594.886    -1282363.403 3   -929758.299 1
  20997773.214   -16907510.353 7 -13081644.738 7
  21556577.456      577958.819 6    498633.596 6
  24622685.206     -799741.588 3   -537367.922 1
  21980313.315    -8112803.453 7  -6224863.966 7
  20514881.120   -12267820.323 7  -9519933.258 8
  22164494.214    -9798390.065 6  -7563545.494 5
 94  2 17 19 39 29.9990000  0  7 27 18 14 28 22 29 19
  24594918.198    -1370007.960 3   -998052.731 1
  20986609.823   -16966124.680 7 -13127318.234 7
  21572212.347      660141.363 6    562671.917 6
  24608986.409     -871701.527 3   -593440.626 1
  21992098.386    -8050840.935 7  -6176581.514 7
  20513631.776   -12274377.807 7  -9525042.993 8
  22152238.050    -9862780.513 6  -7613719.812 5
 94  2 17 19 39 59.9990000  0  7 27 18 14 28 22 29 19
  24578259.019    -1457537.383 3  -1066257.409 1
  20975510.409   -17024529.088 7 -13172828.147 7
  21587919.214      742693.691 6    626998.377 6
  24595316.698     -943531.197 3   -649411.823 1
  22003976.956    -7988422.817 7  -6127944.037 6
  20512444.636   -12280647.995 7  -9529928.864 8
  22140029.526    -9926968.416 6  -7663736.302 5
 94  2 17 19 40 29.9990000  0  7 27 18 14 28 22 29 19
  24561629.573    -1544947.097 3  -1134368.818 1
  20964433.019   -17082733.761 7 -13218182.429 7
  21603695.190      825604.063 6    691603.828 6
  24581679.979    -1015222.120 3   -705274.954 1
  22015934.597    -7925558.609 6  -6078958.965 7
  20511300.206   -12286633.619 7  -9534592.992 8
  22127862.831    -9990932.255 6  -7713578.186 5
 94  2 17 19 40 59.9990000  0  7 27 18 14 28 22 29 19
  24545029.308    -1632212.477 3  -1202367.743 1
  20953401.284   -17140727.106 7 -13263372.039 7
  21619539.284      908847.875 6    756469.116 6
  24568070.589    -1086773.283 3   -761029.158 2
  22027991.519    -7862263.950 6  -6029638.489 7
  20510213.401   -12292342.358 7  -9539041.358 8
  22115722.230   -10054655.374 6  -7763232.507 6
 94  2 17 19 41 29.9990000  0  7 27 18 14 28 22 29 19
  24528443.901    -1719338.807 3  -1270258.363 1
  20942396.925   -17198503.856 7 -13308392.871 7
  21635443.331      992423.807 6    821593.176 6
  24554478.690    -1158177.022 3   -816668.476 2
  22040121.198    -7798530.514 6  -5979976.107 7
  20509189.800   -12297739.936 7  -9543247.267 8
  22103650.979   -10118131.119 6  -7812694.072 5
 94  2 17 19 41 59.9990000  0  7 27 18 14 28 22 29 19
  24511874.183    -1806369.106 3  -1338074.107 1
  20931449.839   -17256066.737 7 -13353247.060 7
  21651410.394     1076325.037 6    886970.730 6
  24540914.003    -1229446.371 3   -872203.043 2
  22052324.972    -7734375.944 6  -5929985.558 7
  20508218.237   -12302822.425 7  -9547207.639 8
  22091619.058   -10181357.354 6  -7861961.211 6
 94  2 17 19 42 29.9990000  0  7 27 18 14 28 22 29 19
  24495335.589    -1893311.928 3  -1405821.650 1
  20920536.464   -17313411.822 7 -13397931.538 7
  21667443.315     1160557.241 6    952606.176 6
  24527374.558    -1300574.302 3   -927627.389 3
  22064609.823    -7669807.251 6  -5879672.330 7
  20507309.901   -12307605.659 7  -9550934.837 8
  22079633.050   -10244343.212 6  -7911041.065 6
 94  2 17 19 42 59.9990000  0  7 27 18 14 28 22 29 19
  24478817.136    -1980181.250 3  -1473511.894 1
  20909665.597   -17370531.198 7 -13442440.137 7
  21683533.167     1245120.788 6   1018499.811 6
  24513875.800    -1371556.577 3   -982938.253 3
  22076976.097    -7604819.983 6  -5829032.932 7
  20506456.854   -12312087.163 7  -9554426.913 8
  22067690.354   -10307109.953 6  -7959950.170 6
 94  2 17 19 43 29.9990000  0  7 27 18 14 28 22 29 19
  24462279.612    -2067027.360 3  -1541183.971 1
  20898836.940   -17427440.999 7 -13486785.422 7
  21699684.284     1330011.647 6   1084648.502 6
  24500385.198    -1442408.447 3  -1038147.469 3
  22089429.128    -7539426.277 6  -5778076.840 7
  20505657.362   -12316269.205 7  -9557685.647 8
  22055786.667   -10369669.500 6  -8008697.827 6
 94  2 17 19 43 59.9990000  0  6 18 14 28 22 29 19
  20888045.417   -17484126.324 7 -13530955.798 7
  21715900.198     1415217.217 6   1151042.413 6
  24486937.519    -1513127.041 5  -1093252.806 3
  22101938.183    -7473637.405 6  -5726812.830 7
  20504914.878   -12320177.096 7  -9560730.750 8
  22043919.409   -10432022.991 6  -8057284.916 6
 94  2 17 19 44 29.9990000  0  7 27 18 14 28 22 29 19
  24429252.229      -43364.70312
  20877311.745   -17540575.205 7 -13574941.915 7
  21732172.503     1500727.495 6   1217673.761 6
  24473499.394    -1583697.230 4  -1148242.442 4
  22114538.058    -7407446.062 6  -5675235.199 7
  20504225.347   -12323808.579 7  -9563560.476 8
  22032085.847   -10494184.873 6  -8105722.710 6
 94  2 17 19 44 59.9990000  0  7 27 18 14 28 22 29 19
  24412754.284     -130037.826 3    -33761.21112
  20866603.394   -17596792.667 7 -13618747.718 7
  21748505.308     1586547.776 6   1284546.672 6
  24460097.581    -1654115.493 5  -1203113.718 3
  22127212.089    -7340846.618 6  -5623339.566 7
  20503592.042   -12327140.865 7  -9566157.060 8
  22020293.956   -10556145.437 6  -8154003.629 6
 94  2 17 19 45 29.9990000  0  7 27 18 14 28 22 29 19
  24396289.089     -216620.955 3   -101228.364 2
  20855949.019   -17652799.608 7 -13662389.473 7
  21764893.565     1672680.250 6   1351662.842 6
  24446728.628    -1724382.974 5  -1257867.478 2
  22139963.409    -7273843.464 6  -5571129.357 7
  20503013.464   -12330187.021 7  -9568530.687 8
  22008550.448   -10617909.561 6  -8202131.478 6
 94  2 17 19 45 59.9990000  0  7 27 18 14 28 22 29 19
  24379827.190     -303076.265 3   -168595.925 1
  20845339.511   -17708590.167 7 -13705862.618 7
  21781349.753     1759142.653 6   1419036.095 6
  24433385.972    -1794476.247 5  -1312485.487 3
  22152794.644    -7206413.273 6  -5518586.388 6
  20502485.159   -12332948.951 7  -9570682.842 7
  21996828.269   -10679482.704 6  -8250110.516 6
 94  2 17 19 46 29.9990000  0  7 27 18 14 28 22 29 19
  24363408.409     -389418.097 3   -235875.043 2
  20834756.487   -17764174.926 7 -13749175.407 7
  21797866.081     1845961.159 6   1486686.842 6
  24420088.979    -1864386.484 4  -1366960.882 3
  22165702.573    -7138549.061 6  -5465705.224 7
  20502018.229   -12335410.424 7  -9572600.884 7
  21985148.417   -10740857.619 6  -8297935.085 6
 94  2 17 19 46 59.9990000  0  7 27 18 14 28 22 29 19
  24346975.112     -475676.500 3   -303089.185 2
  20824218.620   -17819573.393 7 -13792343.022 7
  21814459.909     1933139.139 6   1554617.682 6
  24406808.292    -1934134.645 5  -1421309.978 2
  22178695.948    -7070265.763 6  -5412497.502 6
  20501604.558   -12337589.133 7  -9574298.584 8
  21973518.011   -10802034.945 6  -8345605.691 6
 94  2 17 19 47 29.9990000  0  7 27 18 14 28 22 29 19
  24330578.956     -561854.607 3   -370240.810 2
  20813714.933   -17874762.342 7 -13835347.381 7
  21831116.722     2020682.000 6   1622832.858 6
  24393579.097    -2003711.672 5  -1475525.693 2
  22191772.722    -7001571.653 6  -5358969.667 6
  20501242.222   -12339486.761 7  -9575777.268 7
  21961902.003   -10863006.499 6  -8393115.952 6
 94  2 17 19 47 59.9990000  0  7 27 18 14 28 22 29 19
  24314207.167     -647954.923 3   -437331.837 3
  20803259.636   -17929723.901 7 -13878174.540 7
  21847841.503     2108575.205 6   1691321.024 6
  24380367.011    -2073113.763 5  -1529605.149 2
  22204918.917    -6932483.304 6  -5305134.642 6
  20500935.862   -12341090.493 7  -9577026.940 8
  21950346.589   -10923758.864 6  -8440455.412 6
 94  2 17 19 48 29.9990000  0  7 27 18 14 28 22 29 19
  24297828.269     -733982.733 3   -504366.359 2
  20792833.448   -17984464.850 7 -13920829.814 7
  21864631.214     2196797.325 6   1760065.491 6
  24367186.659    -2142365.675 5  -1583567.545 2
  22218133.487    -6863029.537 6  -5251014.861 6
  20500688.558   -12342390.797 7  -9578040.172 8
  21938825.292   -10984286.074 6  -8487619.425 6
 94  2 17 19 48 59.9990000  0  7 27 18 14 28 22 29 19
  24281471.753     -819923.122 3   -571332.769 2
  20782475.175   -18038974.553 7 -13963304.892 7
  21881478.761     2285326.222 6   1829048.996 6
  24354035.917    -2211463.114 4  -1637409.618 2
  22231422.229    -6793212.364 6  -5196611.920 6
  20500506.612   -12343384.070 7  -9578814.163 8
  21927353.276   -11044583.760 6  -8534604.584 6
 94  2 17 19 49 29.9990000  0  7 27 18 14 28 22 29 19
  24265129.847     -905764.378 3   -638222.003 3
  20772135.917   -18093255.958 7 -14005602.079 7
  21898379.800     2374137.774 6   1898252.763 6
  24340929.995    -2280393.023 5  -1691121.129 2
  22244784.206    -6723035.078 6  -5141928.370 6
  20500369.847   -12344072.581 7  -9579350.669 8
  21915922.526   -11104663.632 6  -8581420.015 6
 94  2 17 19 49 59.9990000  0  7 27 18 14 28 22 29 19
  24248823.440     -991487.287 3   -705019.019 2
  20761854.198   -18147309.675 7 -14047721.849 7
  21915333.308     2463222.498 6   1967669.394 6
  24327848.581    -2349145.834 5  -1744694.650 2
  22258195.167    -6652478.737 6  -5086949.454 6
  20500294.870   -12344440.830 7  -9579637.627 8
  21904529.878   -11164522.178 6  -8628062.991 6
 94  2 17 19 50 29.9990000  0  7 27 18 14 28 22 29 19
  24232534.081    -1077103.694 3   -771733.042 3
  20751603.003   -18201130.534 7 -14089660.168 7
  21932343.089     2552590.563 6   2037306.800 6
  24314800.925    -2417710.842 5  -1798121.858 2
  22271702.831    -6581541.212 6  -5031673.516 6
  20500293.198   -12344492.959 7  -9579678.265 8
  21893178.800   -11224168.700 6  -8674540.749 6
 94  2 17 19 50 59.9990000  0  7 27 18 14 28 22 29 19
  24216262.722    -1162616.967 3   -838366.690 2
  20741414.558   -18254709.185 7 -14131409.757 7
  21949391.261     2642246.733 6   2107168.713 6
  24301790.198    -2486064.069 5  -1851384.030 2
  22285279.636    -6510213.814 6  -4976093.785 6
  20500337.628   -12344237.973 7  -9579479.587 8
  21881863.081   -11283608.674 6  -8720857.574 6
 94  2 17 19 51 29.9990000  0  7 27 18 14 28 22 29 19
  24200020.081    -1248016.510 4   -904911.728 4
  20731261.073   -18308044.566 7 -14172969.782 7
  21966516.698     2732199.452 6   2177261.696 6
  24288818.612    -2554198.103 4  -1904475.427 3
  22298927.808    -6438497.100 6  -4920210.696 6
  20500447.909   -12343659.386 7  -9579028.746 8
  21870598.636   -11342832.932 6  -8767006.298 6
 94  2 17 19 51 59.9990000  0  7 27 18 14 28 22 29 19
  24183785.269    -1333285.244 3   -971354.858 2
  20721172.315   -18361097.597 7 -14214309.802 7
  21983697.214     2822495.730 6   2247622.395 5
  24275899.706    -2622090.970 4  -1957378.917 4
  22312646.386    -6366366.005 6  -4864004.705 6
  20500626.604   -12342720.671 7  -9578297.288 8
  21859373.729   -11401806.154 6  -8812959.412 6
 94  2 17 19 52 29.9990000  0  7 27 18 14 28 22 29 19
  24167584.151    -1418447.017 3  -1037714.630 3
  20711129.206   -18413883.127 7 -14255441.392 7
  22000946.284     2913127.307 6   2318244.351 5
  24263020.894    -2689762.868 4  -2010110.231 2
  22326457.870    -6293844.200 6  -4807494.274 6
  20500863.972   -12341452.238 7  -9577308.905 8
  21848207.019   -11460546.047 6  -8858730.712 6
 94  2 17 19 52 59.9990000  0  7 27 18 14 28 22 29 19
  24151387.175    -1503518.151 4  -1104003.742 2
  20701127.253   -18466434.622 7 -14296390.605 7
  22018245.183     3004038.080 6   2389083.878 6
  24250184.034    -2757245.441 4  -2062694.020 3
  22340316.776    -6220953.435 6  -4750696.338 6
  20501166.769   -12339889.767 7  -9576091.403 8
  21837063.245   -11519074.556 6  -8904337.299 6
 94  2 17 19 53 29.9990000  0  7 27 18 14 28 22 29 19
  24135216.886    -1588483.383 3  -1170210.286 2
  20691171.722   -18518731.942 7 -14337141.762 7
  22035596.745     3095234.355 6   2460145.862 5
  24237380.128    -2824519.601 4  -2115115.432 3
  22354254.019    -6147692.263 6  -4693609.780 6
  20501523.823   -12338017.360 7  -9574632.396 8
  21825964.612   -11577369.940 6  -8949762.242 5
 94  2 17 19 53 59.9990000  0  7 27 18 14 28 22 29 19
  24119079.847    -1673334.069 3  -1236327.614 2
  20681271.581   -18570759.962 7 -14377683.071 7
  22053008.183     3186727.850 6   2531439.448 5
  24224620.925    -2891571.674 4  -2167363.790 3
  22368281.769    -6074055.446 6  -4636230.518 6
  20501936.964   -12335846.712 7  -9572940.982 8
  21814910.604   -11635435.153 6  -8995007.836 6
 94  2 17 19 54 29.9990000  0  7 27 18 14 28 22 29 19
  24102953.019    -1758057.912 3  -1302346.081 2
  20671415.167   -18622535.448 7 -14418027.600 7
  22070467.378     3278485.614 6   2602938.954 6
  24211902.651    -2958403.361 4  -2219440.422 3
  22382362.745    -6000058.951 6  -4578570.974 6
  20502402.604   -12333385.009 7  -9571022.773 8
  21803912.534   -11693272.097 6  -9040075.549 6
 94  2 17 19 54 59.9990000  0  7 27 18 14 28 22 29 19
  24086851.354    -1842656.463 3  -1368266.908 2
  20661613.729   -18674064.461 7 -14458180.077 7
  22087981.511     3370496.493 6   2674635.698 5
  24199228.667    -3025010.985 4  -2271342.446 4
  22396507.933    -5925712.169 6  -4520638.484 6
  20502933.534   -12330619.392 7  -9568867.747 7
  21792952.026   -11750893.379 6  -9084975.220 6
 94  2 17 19 55 29.9990000  0  8 27 18 14 28 22 29 19 31
  24070784.714    -1927112.191 3  -1434076.403 2
  20651858.503   -18725331.301 7 -14498128.268 7
  22105542.722     3462802.049 6   2746562.056 5
  24186599.167    -3091391.379 4  -2323067.393 2
  22410723.503    -5851003.572 6  -4462424.063 6
  20503518.581   -12327519.709 7  -9566452.409 7
  21782023.011   -11808289.930 6  -9129699.789 6
  24531220.230          -0.60814
 94  2 17 19 55 59.9990000  0  8 27 18 14 28 22 29 19 31
  24054723.659    -2011435.362 3  -1499782.653 2
  20642151.339   -18776340.623 7 -14537875.785 7
  22123164.261     3555400.658 6   2818716.764 5
  24174009.698    -3157560.614 5  -2374627.804 3
  22425010.120    -5775927.536 6  -4403923.308 6
  20504173.675   -12324077.721 7  -9563770.343 7
  21771142.675   -11865472.180 6  -9174257.358 6
  24514257.308      -89106.038 4        -0.12411
 94  2 17 19 56 29.9990000  0  8 27 18 14 28 22 29 19 31
  24038719.472    -2095636.121 3  -1565393.495 3
  20632497.956   -18827084.412 7 -14577416.389 8
  22140838.159     3648289.794 6   2891097.866 5
  24161457.253    -3223513.460 4  -2426019.579 2
  22439353.440    -5700487.062 6  -4345138.593 6
  20504893.495   -12320277.154 7  -9560808.861 7
  21760300.940   -11922440.756 6  -9218648.435 6
  24497303.073     -178248.655 4    -69462.041 1
 94  2 17 19 56 59.9990000  0  8 27 18 14 28 22 29 19 31
  24022711.644    -2179745.508 3  -1630933.154 2
  20622886.347   -18877558.732 7 -14616747.018 8
  22158571.901     3741473.399 6   2963708.414 5
  24148944.909    -3289248.277 4  -2477241.423 3
  22453778.425    -5624693.465 6  -4286078.732 6
  20505688.503   -12316127.778 7  -9557575.576 7
  21749503.753   -11979215.316 6  -9262888.339 6
  24480323.956     -267450.203 4   -138969.848 1
 94  2 17 19 57 29.9990000  0  8 27 18 14 28 22 29 19 31
  24006718.065    -2263781.774 4  -1696415.817 1
  20613333.714   -18927762.153 7 -14655866.565 8
  22176363.698     3834943.698 6   3036542.360 5
  24136479.198    -3354761.377 5  -2528290.500 3
  22468263.401    -5548556.937 6  -4226751.646 6
  20506544.042   -12311637.753 7  -9554076.849 7
  21738732.308   -12035784.165 6  -9306967.939 6
  24463335.909     -356710.857 4   -208523.717 1
 94  2 17 19 57 59.9990000  0  8 27 18 14 28 22 29 19 31
  23990736.534    -2347753.387 4  -1761848.092 1
  20603835.073   -18977687.786 7 -14694769.633 8
  22194198.550     3928686.433 6   3109588.596 6
  24124059.784    -3420024.926 5  -2579145.070 2
  22482820.589    -5472090.612 6  -4167167.574 6
  20507459.800   -12306815.453 7  -9550319.213 7
  21728011.050   -12092140.491 6  -9350881.933 6
  24446336.370     -446026.682 4   -278120.519 1
 94  2 17 19 58 29.9990000  0  8 27 18 14 28 22 29 19 31
  23974774.472    -2431656.241 4  -1827226.810 2
  20594381.034   -19027338.064 7 -14733458.145 8
  22212082.433     4022688.955 6   3182837.261 5
  24111694.706    -3485020.562 5  -2629790.913 2
  22497442.104    -5395296.271 6  -4107327.900 6
  20508438.972   -12301675.212 7  -9546313.833 7
  21717327.136   -12148282.616 6  -9394629.015 6
  24429325.980     -535395.211 3   -347758.409 1
 94  2 17 19 58 59.9990000  0  8 27 18 14 28 22 29 19 31
  23958820.589    -2515463.478 4  -1892531.037 3
  20584997.706   -19076701.034 7 -14771922.766 8
  22230024.573     4116949.016 6   3256286.614 5
  24099373.847    -3549734.265 5  -2680217.060 2
  22512106.034    -5318147.024 6  -4047211.655 6
  20509481.276   -12296210.560 7  -9542055.666 7
  21706693.097   -12204177.355 6  -9438183.326 6
  24412319.019     -624781.876 4   -417410.337 1
 94  2 17 19 59 29.9990000  0  8 27 18 14 28 22 29 19 31
  23942896.058    -2599162.560 4  -1957750.998 4
  20575644.855   -19125784.877 7 -14810169.891 8
  22248008.901     4211449.008 6   3329922.921 5
  24087105.987    -3614186.166 5  -2730439.203 3
  22526858.362    -5240641.009 6  -3986817.435 6
  20510575.237   -12290437.933 7  -9537557.527 7
  21696097.878   -12259826.213 6  -9481546.048 6
  24395310.565     -714184.049 3   -487074.331 1
 94  2 17 19 59 59.9990000  0  8 27 18 14 28 22 29 19 31
  23926987.519    -2682737.745 4  -2022874.419 3
  20566361.034   -19174582.930 7 -14848194.322 8
  22266036.198     4306189.049 6   3403746.284 5
  24074901.589    -3678376.071 5  -2780457.177 3
  22541690.315    -5162767.509 6  -3926136.858 6
  20511733.659   -12284361.909 7  -9532822.971 7
  21685555.229   -12315238.883 6  -9524724.714 6
  24378295.550     -803593.138 4   -556743.627 1
 94  2 17 20  0 29.9990000  0  8 27 18 14 28 22 29 19 31
  23911112.800    -2766177.977 4  -2087892.666 3
  20557130.769   -19223092.537 7 -14885993.988 8
  22284108.519     4401161.303 6   3477750.596 5
  24062736.042    -3742317.737 5  -2830281.728 3
  22556563.878    -5084514.575 6  -3865160.595 6
  20512945.284   -12277972.848 7  -9527844.487 7
  21675053.495   -12370414.399 6  -9567718.593 6
  24361274.823     -892998.218 3   -626409.826 1
 94  2 17 20  0 59.9990000  0  8 27 18 14 28 22 29 19 31
  23895262.839    -2849472.503 4  -2152797.388 3
  20547959.862   -19271307.894 7 -14923564.367 8
  22302232.745     4496379.096 6   3551946.225 5
  24050607.620    -3806016.395 5  -2879916.911 3
  22571541.503    -5005893.430 6  -3803897.432 6
  20514230.565   -12271250.495 7  -9522606.305 7
  21664608.003   -12425339.186 6  -9610517.091 6
  24344270.511     -982394.007 3   -696068.787 1
 94  2 17 20  1 29.9990000  0  8 27 18 14 28 22 29 19 31
  23879427.886    -2932653.422 4  -2217613.616 3
  20538834.229   -19319254.947 7 -14960925.671 8
  22320395.589     4591835.068 6   3626327.470 5
  24038530.386    -3869484.501 5  -2929372.441 3
  22586556.683    -4926956.873 6  -3742388.482 6
  20515564.667   -12264210.576 7  -9517120.667 7
  21654193.753   -12480045.401 6  -9653145.285 6
  24327253.831    -1071815.017 4   -765747.406 1
 94  2 17 20  1 59.9990000  0  8 27 18 14 28 22 29 19 31
  23863633.425    -3015713.912 5  -2282335.997 4
  20529767.714   -19366915.995 7 -14998064.122 8
  22338609.565     4687547.297 6   3700908.377 5
  24026503.495    -3932678.606 5  -2978614.469 3
  22601651.706    -4847703.133 6  -3680632.392 6
  20516973.925   -12256820.461 7  -9511362.147 7
  21643832.394   -12534511.639 6  -9695586.462 6
  24310242.042    -1161230.775 4   -835421.933 1
 94  2 17 20  2 29.9990000  0  8 27 18 14 28 22 29 19 31
  23847838.183    -3098661.283 5  -2346970.217 2
  20520750.854   -19414303.178 7 -15034989.170 8
  22356865.058     4783517.116 6   3775690.018 5
  24014530.315    -3995599.495 5  -3027643.584 3
  22616776.198    -4768142.476 6  -3618637.131 6
  20518445.722   -12249076.970 7  -9505328.276 7
  21633512.300   -12588739.142 6  -9737841.621 6
  24293220.761    -1250647.444 3   -905097.200 1
 94  2 17 20  2 59.9990000  0  8 27 18 14 28 22 29 19 31
  23832078.956    -3181493.894 5  -2411515.037 3
  20511796.722   -19461403.524 7 -15071690.717 7
  22375185.659     4879765.867 6   3850688.997 5
  24002615.308    -4058225.484 5  -3076442.937 3
  22631976.104    -4688260.504 6  -3556391.501 6
  20519991.425   -12240975.703 7  -9499015.621 7
  21623230.698   -12642729.834 6  -9779912.256 6
  24276213.401    -1340048.622 4   -974760.413 1
 94  2 17 20  3 29.9990000  0  8 27 18 14 28 22 29 19 31
  23816336.792    -3264223.489 5  -2475979.610 2
  20502878.675   -19508205.266 7 -15108159.581 7
  22393554.753     4976294.077 6   3925905.743 5
  23990751.706    -4120550.291 5  -3125007.566 3
  22647243.745    -4608043.120 6  -3493884.498 6
  20521597.628   -12232531.310 7  -9492435.591 7
  21612996.425   -12696508.514 6  -9821817.689 6
  24259212.206    -1429420.413 4  -1044400.761 1
 94  2 17 20  3 59.9990000  0  8 27 18 14 28 22 29 19 31
  23800612.737    -3346865.879 5  -2540376.202 3
  20494032.167   -19554721.947 7 -15144406.327 7
  22411962.878     5073076.561 6   4001320.604 5
  23978947.128    -4182611.715 5  -3173366.991 3
  22662575.706    -4527481.405 6  -3431109.192 6
  20523270.331   -12223758.176 7  -9485599.397 8
  21602803.378   -12750112.265 6  -9863586.813 6
  24242199.589    -1518774.731 4  -1114027.516 1
 94  2 17 20  4 29.9990000  0  8 27 18 14 28 22 29 19 31
  23784910.378    -3429404.633 5  -2604692.041 2
  20485228.659   -19600939.764 7 -15180420.197 7
  22430437.573     5170115.319 6   4076935.172 5
  23967180.612    -4244419.388 5  -3221528.706 3
  22677969.698    -4446560.283 6  -3368053.835 6
  20524998.183   -12214652.560 7  -9478504.138 7
  21592634.276   -12803538.816 6  -9905217.860 6
  24225204.175    -1608114.517 3  -1183642.999 1
 94  2 17 20  4 59.9990000  0  8 27 18 14 28 22 29 19 31
  23769230.870    -3511812.999 5  -2668906.273 4
  20476503.690   -19646825.625 7 -15216175.406 7
  22448951.315     5267413.414 6   4152751.824 5
  23955471.214    -4305947.652 5  -3269472.676 2
  22693439.519    -4365282.285 6  -3304720.397 6
  20526793.651   -12205195.274 7  -9471134.834 8
  21582512.128   -12856763.469 6  -9946691.589 6
  24208204.940    -1697423.768 3  -1253234.689 1
 94  2 17 20  5 29.9990000  0  8 27 18 14 28 22 29 19 31
  23753565.073    -3594086.237 5  -2733015.235 3
  20467835.058   -19692391.947 7 -15251681.622 7
  22467512.081     5364948.974 6   4228753.504 5
  23943814.073    -4367204.600 5  -3317205.287 3
  22708974.784    -4283676.026 6  -3241131.178 6
  20528662.362   -12195387.691 7  -9463492.580 7
  21572424.815   -12909776.179 6  -9988000.172 6
  24191200.558    -1786719.119 3  -1322815.573 1
 94  2 17 20  5 59.9990000  0  8 27 18 14 28 22 29 19 31
  23737943.323    -3676217.891 5  -2797013.867 2
  20459219.073   -19737660.363 7 -15286955.709 7
  22486112.331     5462697.033 6   4304920.779 5
  23932204.831    -4428187.467 5  -3364724.306 4
  22724560.167    -4201766.045 6  -3177305.288 6
  20530599.050   -12185216.157 7  -9455566.729 7
  21562375.714   -12962556.002 6 -10029127.271 6
  24174219.979    -1876017.113 3  -1392398.487 1
 94  2 17 20  6 29.9990000  0  8 27 18 14 28 22 29 19 31
  23722335.308    -3758207.943 5  -2860902.157 3
  20450654.308   -19782635.001 7 -15322000.888 7
  22504753.370     5560647.987 6   4381246.137 5
  23920665.745    -4488864.631 5  -3412005.134 2
  22740197.894    -4119572.587 6  -3113258.508 6
  20532604.151   -12174678.204 7  -9447355.364 7
  21552381.972   -13015082.775 6 -10070057.192 6
  24157226.917    -1965311.273 3  -1461978.437 1
 94  2 17 20  6 59.9990000  0  8 27 18 14 28 22 29 19 31
  23706756.042    -3840072.916 5  -2924692.974 2
  20442155.644   -19827325.776 7 -15356824.863 7
  22523428.511     5658802.227 6   4457729.913 6
  23909174.175    -4549234.678 5  -3459046.692 3
  22755894.815    -4037112.911 6  -3049004.288 6
  20534681.542   -12163770.613 7  -9438855.961 7
  21542435.745   -13067359.683 6 -10110792.423 6
  24140233.698    -2054587.848 3  -1531544.672 2
 94  2 17 20  7 29.9990000  0  8 27 18 14 28 22 29 19 31
  23691202.847    -3921827.130 5  -2988397.478 3
  20433707.722   -19871729.469 7 -15391425.133 7
  22542146.956     5757181.502 6   4534389.029 5
  23897744.112    -4609282.307 5  -3505837.019 4
  22771638.362    -3954365.379 6  -2984525.769 6
  20536830.269   -12152481.628 7  -9430059.372 7
  21532529.847   -13119394.858 6 -10151339.291 6
  24123265.378    -2143822.171 4  -1601077.969 2
 94  2 17 20  7 59.9990000  0  8 27 18 14 28 22 29 19 31
  23675661.550    -4003496.097 5  -3052035.567 4
  20425304.706   -19915848.247 7 -15425803.401 7
  22560912.636     5855779.296 6   4611218.416 5
  23886393.050    -4669004.486 5  -3552373.752 3
  22787443.995    -3871333.213 6  -2919825.458 6
  20539047.956   -12140823.012 7  -9420974.753 7
  21522675.979   -13171208.147 6 -10191713.267 6
  24106282.855    -2233007.497 3  -1670573.045 2
 94  2 17 20  8 29.9990000  0  8 27 18 14 28 22 29 19 31
  23660138.714    -4085094.429 5  -3115618.605 4
  20416972.144   -19959660.886 7 -15459943.109 7
  22579713.425     5954591.729 6   4688215.064 5
  23875079.198    -4728409.251 5  -3598663.157 2
  22803287.284    -3788018.823 6  -2854905.231 6
  20541331.456   -12128811.965 7  -9411615.516 7
  21512852.589   -13222815.074 6 -10231926.432 6
  24089335.784    -2322141.895 4  -1740028.373 2
 94  2 17 20  8 59.9990000  0  8 27 18 14 28 22 29 19 31
  23644623.495    -4166615.863 5  -3179141.742 4
  20408698.370   -20003152.462 7 -15493832.647 7
  22598559.323     6053623.710 6   4765382.777 5
  23863843.479    -4787496.649 5  -3644705.270 3
  22819202.948    -3704412.452 6  -2789757.499 6
  20543684.581   -12116444.518 7  -9401978.573 7
  21503065.253   -13274215.172 6 -10271978.432 6
  24072380.839    -2411218.554 4  -1809438.671 3
 94  2 17 20  9 29.9990000  0  8 27 18 14 28 22 29 19 31
  23629119.526    -4248057.744 5  -3242602.843 4
  20400476.503   -20046328.455 7 -15527476.273 7
  22617447.776     6152854.264 6   4842705.221 5
  23852653.784    -4846268.983 5  -3690501.867 3
  22835173.190    -3620505.271 6  -2724375.366 6
  20546107.479   -12103726.955 7  -9392068.806 7
  21493322.011   -13325416.482 6 -10311875.531 6
  24055426.261    -2500263.256 3  -1878824.081 2
 94  2 17 20  9 59.9990000  0  8 27 18 14 28 22 29 19 31
  23613638.308    -4329387.632 5  -3305976.685 5
  20392323.714   -20089183.862 7 -15560870.088 7
  22636369.753     6252275.363 6   4920176.158 5
  23841525.808    -4904727.740 5  -3736054.116 4
  22851197.331    -3536291.764 6  -2658754.549 6
  20548595.308   -12090644.098 7  -9381874.388 7
  21483627.448   -13376391.198 6 -10351596.066 6
  24038489.269    -2589275.185 3  -1948183.881 2
 94  2 17 20 10 29.9990000  0  8 27 18 14 28 22 29 19 31
  23598198.112    -4410580.128 5  -3369243.456 3
  20384227.425   -20131704.749 7 -15594003.225 7
  22655319.276     6351898.476 6   4997804.504 5
  23830467.073    -4962863.770 5  -3781354.841 3
  22867276.323    -3451764.137 6  -2592888.957 6
  20551161.847   -12077185.559 7  -9371387.240 7
  21473972.925   -13427129.817 6 -10391132.627 6
  24021569.308    -2678252.991 3  -2017517.103 2
 94  2 17 20 10 59.9990000  0  8 27 18 14 28 22 29 19 31
  23582774.222    -4491611.195 5  -3432384.436 3
  20376204.011   -20173892.688 7 -15626876.925 7
  22674318.519     6451743.018 6   5075605.380 5
  23819461.847    -5020663.393 5  -3826393.443 3
  22883427.370    -3366908.635 6  -2526767.885 6
  20553793.479   -12063332.033 7  -9360592.311 7
  21464363.034   -13477622.149 6 -10430477.280 6
  24004638.214    -2767168.221 3  -2086801.496 2
 94  2 17 20 11 29.9990000  0  8 27 18 14 28 22 29 19 31
  23567384.175    -4572476.448 5  -3495396.213 4
  20368243.206   -20215743.319 7 -15659487.803 8
  22693362.573     6551815.604 6   5153583.952 5
  23808529.261    -5078125.883 5  -3871169.291 2
  22899637.206    -3281727.427 6  -2460393.006 6
  20556501.698   -12049091.345 7  -9349495.701 7
  21454804.503   -13527853.832 6 -10469618.832 6
  23987732.565    -2856009.781 3  -2156028.529 2
 94  2 17 20 11 59.9990000  0  8 27 18 14 28 22 29 19 31
  23552043.237    -4653159.066 5  -3558265.632 2
  20360348.987   -20257227.525 7 -15691813.144 7
  22712453.753     6652125.343 6   5231747.323 5
  23797657.456    -5135232.556 5  -3915667.887 4
  22915900.612    -3196224.123 6  -2393767.165 6
  20559286.237   -12034465.614 7  -9338099.056 7
  21445296.730   -13577805.436 7 -10508542.133 6
  23970847.378    -2944738.883 3  -2225167.887 2
 94  2 17 20 12 29.9990000  0  8 27 18 14 28 22 29 19 31
  23536714.948    -4733673.092 5  -3621003.721 3
  20352525.058   -20298340.128 7 -15723848.930 7
  22731581.112     6752665.513 6   5310090.243 5
  23786849.261    -5191984.271 5  -3959889.857 4
  22932244.284    -3110408.122 6  -2326897.658 6
  20562138.870   -12019476.153 7  -9326418.977 7
  21435837.300   -13627498.044 6 -10547263.616 6
  23953990.323    -3033345.577 3  -2294211.871 2
 94  2 17 20 12 59.9990000  0  8 27 18 14 28 22 29 19 31
  23521422.128    -4814022.102 5  -3683613.230 5
  20344771.581   -20339083.789 7 -15755597.223 7
  22750763.714     6853425.644 6   5388604.569 5
  23776137.636    -5248382.764 5  -4003836.590 5
  22948627.761    -3024279.705 6  -2259784.704 5
  20565061.690   -12004115.157 7  -9314449.394 8
  21426441.761   -13676917.479 7 -10585772.235 6
  23937153.261    -3121812.625 3  -2363147.049 2
 94  2 17 20 13 29.9990000  0  8 27 18 14 28 22 29 19 31
  23506159.534    -4894224.432 5  -3746108.434 4
  20337082.901   -20379459.656 7 -15787058.930 7
  22769975.511     6954382.040 6   5467271.811 5
  23765465.683    -5304430.055 5  -4047509.685 4
  22965071.417    -2937857.244 6  -2192442.630 5
  20568054.901   -11988393.025 7  -9302198.403 7
  21417079.534   -13726076.208 6 -10624077.715 6
  23920337.823    -3210162.734 3  -2431991.083 2
 94  2 17 20 13 59.9990000  0  8 27 18 14 28 22 29 19 31
  23490924.401    -4974308.382 5  -3808511.380 3
  20329470.011   -20419479.836 7 -15818243.465 8
  22789209.151     7055506.525 5   5546070.035 5
  23754870.690    -5360134.425 5  -4090915.566 4
  22981571.698    -2851168.784 6  -2124893.292 5
  20571111.620   -11972312.077 7  -9289667.819 7
  21407768.050   -13775019.462 6 -10662215.286 6
  23903546.050    -3298423.013 4  -2500765.112 1
 94  2 17 20 14 29.9990000  0  8 27 18 14 28 22 29 19 31
  23475698.558    -5054278.518 5  -3870825.652 4
  20321922.394   -20459155.901 7 -15849159.869 8
  22808486.675     7156813.884 5   5625010.769 4
  23744325.870    -5415492.655 5  -4134051.698 5
  22998120.448    -2764213.191 6  -2057135.778 5
  20574246.128   -11955849.876 7  -9276840.147 8
  21398491.479   -13823749.426 6 -10700186.655 6
  23886761.870    -3386607.972 4  -2569480.471 2
 94  2 17 20 14 59.9990000  0  8 27 18 14 28 22 29 19 31
  23460503.261    -5134130.141 5  -3933047.598 5
  20314429.065   -20498489.082 7 -15879809.088 8
  22827802.581     7258314.124 5   5704101.791 5
  23733862.729    -5470489.676 5  -4176906.392 5
  23014719.972    -2676990.429 6  -1989170.083 5
  20577455.909   -11938994.594 7  -9263706.172 8
  21389266.401   -13872263.150 7 -10737989.528 6
  23869998.112    -3474726.180 4  -2638143.780 2
 94  2 17 20 15 29.9990000  0  8 27 18 14 28 22 29 19 31
  23445322.620    -5213863.219 5  -3995177.162 4
  20307017.479   -20537477.985 7 -15910190.032 8
  22847149.659     7360010.423 5   5783345.583 5
  23723475.003    -5525113.906 5  -4219470.611 5
  23031364.300    -2589511.274 6  -1921004.585 5
  20580732.964   -11921763.259 7  -9250279.174 8
  21380070.183   -13920578.680 7 -10775637.966 6
  23853233.776    -3562787.517 4  -2706762.789 2
 94  2 17 20 15 59.9990000  0  8 27 18 14 28 22 29 19 31
  23430180.214    -5293475.970 5  -4057212.977 3
  20299660.315   -20576134.682 7 -15940312.120 8
  22866550.104     7461912.086 5   5862749.397 5
  23713151.417    -5579361.360 5  -4261741.272 5
  23048058.253    -2501771.404 6  -1852635.938 5
  20584082.229   -11904162.274 7  -9236564.136 7
  21370910.214   -13968683.878 7 -10813122.494 6
  23836488.815    -3650781.406 3  -2775329.253 2
 94  2 17 20 16 29.9990000  0  8 27 18 14 28 22 29 19 31
  23415053.714    -5372974.519 5  -4119159.808 4
  20292360.917   -20614493.130 7 -15970201.809 8
  22885977.558     7563999.034 5   5942297.593 5
  23702904.065    -5633261.542 5  -4303741.343 5
  23064803.128    -2413786.247 6  -1784076.150 5
  20587497.058   -11886222.456 7  -9222585.060 7
  21361795.761   -14016581.069 7 -10850444.967 6
  23819756.729    -3738718.590 4  -2843851.510 2
 94  2 17 20 16 59.9990000  0  8 27 18 14 28 22 29 19 31
  23399952.261    -5452358.128 5  -4181017.068 4
  20285118.480   -20652540.305 7 -15999848.942 8
  22905433.253     7666249.614 5   6021973.287 5
  23692706.440    -5686803.450 5  -4345462.235 5
  23081597.948    -2325551.144 6  -1715321.586 5
  20590972.792   -11867952.636 7  -9208348.843 8
  21352725.972   -14064265.149 7 -10887601.360 6
  23803042.839    -3826575.115 4  -2912310.939 2
 94  2 17 20 17 29.9990000  0  8 27 18 14 28 22 29 19 31
  23384867.847    -5531630.455 5  -4242787.641 4
  20277940.269   -20690271.884 7 -16029250.154 7
  22924926.370     7768659.638 5   6101773.223 5
  23682589.901    -5739998.263 5  -4386912.686 5
  23098433.198    -2237069.274 6  -1646374.735 5
  20594517.472   -11849334.637 7  -9193841.321 7
  21343697.300   -14111723.942 7 -10924582.205 6
  23786340.269    -3914334.244 5  -2980694.469 1
 94  2 17 20 17 59.9990000  0  8 27 18 14 28 22 29 19 31
  23369801.323    -5610778.273 5  -4304461.172 3
  20270824.183   -20727667.556 7 -16058389.618 7
  22944444.581     7871242.241 5   6181707.619 5
  23672522.800    -5792854.006 5  -4428098.961 5
  23115313.081    -2148324.287 6  -1577222.851 5
  20598129.128   -11830324.925 7  -9179028.559 7
  21334701.776   -14158932.819 7 -10961368.313 6
  23769660.979    -4001973.249 4  -3048984.421 1
 94  2 17 20 18 29.9990000  0  8 27 18 14 28 22 29 19 31
  23354762.042    -5689800.453 5  -4366036.841 5
  20263778.940   -20764719.125 7 -16087260.959 8
  22963994.112     7973978.092 5   6261761.433 5
  23662522.995    -5845371.886 5  -4469021.946 5
  23132259.339    -2059334.017 6  -1507879.856 6
  20601826.440   -11810912.401 7  -9163901.926 7
  21325779.589   -14205908.749 7 -10997972.905 6
  23753010.128    -4089484.574 4  -3117174.875 1
 94  2 17 20 18 59.9990000  0  8 27 18 14 28 22 29 19 31
  23339750.065    -5768705.205 5  -4427521.002 4
  20256789.034   -20801423.235 7 -16115861.548 8
  22983575.019     8076866.743 5   6341934.325 5
  23652600.620    -5897545.038 5  -4509676.350 5
  23149223.815    -1970106.157 6  -1438351.706 5
  20605601.972   -11791091.086 7  -9148456.751 7
  21316878.136   -14252661.333 7 -11034403.462 6
  23736384.276    -4176864.769 5  -3185263.178 2
 94  2 17 20 19 29.9990000  0  8 27 18 14 28 22 29 19 31
  23324754.456    -5847504.059 5  -4488922.681 3
  20249867.925   -20837799.533 7 -16144206.695 7
  23003183.933     8179907.457 5   6422225.690 5
  23642734.511    -5949394.986 5  -4550078.897 5
  23166252.784    -1880667.643 6  -1368659.440 6
  20609443.089   -11770875.991 7  -9132704.738 7
  21308017.347   -14299217.158 7 -11070680.704 6
  23719777.034    -4264143.306 5  -3253272.293 2
 94  2 17 20 19 59.9990000  0  8 27 18 14 28 22 29 19 31
  23309783.659    -5926173.395 5  -4550223.426 4
  20243010.300   -20873829.899 7 -16172282.298 7
  23022819.284     8283096.065 5   6502632.309 5
  23632933.300    -6000894.378 5  -4590208.306 5
  23183306.511    -1791004.995 6  -1298792.507 5
  20613362.956   -11750287.201 7  -9116661.543 7
  21299194.948   -14345571.878 7 -11106801.238 6
  23703192.956    -4351306.921 5  -3321191.877 2
 94  2 17 20 20 29.9990000  0  8 27 18 14 28 22 29 19 31
  23294839.659    -6004715.044 5  -4611424.660 3
  20236219.284   -20909510.885 7 -16200085.651 7
  23042480.378     8386420.549 5   6583144.799 4
  23623200.550    -6052027.187 5  -4630052.067 5
  23200414.253    -1701113.813 5  -1228747.492 5
  20617347.651   -11729346.109 7  -9100343.828 7
  21290414.597   -14391732.440 7 -11142770.484 6
  23686624.136    -4438343.712 5  -3389012.664 2
 94  2 17 20 20 59.9990000  0  8 27 18 14 28 22 29 19 31
  23279913.980    -6083118.295 5  -4672518.072 4
  20229501.370   -20944822.355 7 -16227601.075 7
  23062173.190     8489892.743 5   6663772.379 4
  23613544.604    -6102800.589 5  -4669615.771 5
  23217568.128    -1610970.544 6  -1158506.047 6
  20621401.605   -11708053.531 7  -9083752.230 8
  21281662.003   -14437692.476 7 -11178583.472 6
  23670084.972    -4525255.362 5  -3456735.946 2
 94  2 17 20 21 29.9990000  0  8 27 18 14 28 22 29 19 31
  23265037.573    -6161370.660 5  -4733493.921 4
  20222852.464   -20979738.573 7 -16254808.503 7
  23081883.511     8593507.720 5   6744511.227 5
  23603955.433    -6153201.896 5  -4708889.521 5
  23234777.050    -1520563.252 6  -1088058.892 5
  20625520.886   -11686404.393 7  -9066882.792 7
  21272956.034   -14483437.163 7 -11214228.654 6
  23653583.026    -4612019.160 5  -3524344.047 2
 94  2 17 20 21 59.9990000  0  8 27 18 14 28 22 29 19 31
  23250168.136    -6239481.379 5  -4794359.379 5
  20216285.690   -21014255.279 7 -16281704.621 7
  23101630.105     8697258.899 5   6825356.191 5
  23594434.854    -6203218.890 5  -4747863.792 5
  23252035.042    -1429880.340 6  -1017396.966 5
  20629711.394   -11664394.161 7  -9049731.987 7
  21264301.948   -14528952.394 7 -11249695.051 6
  23637100.019    -4698610.037 5  -3591817.428 2
 94  2 17 20 22 29.9990000  0  8 27 18 14 28 22 29 19 31
  23235325.987    -6317466.770 5  -4855127.208 4
  20209792.026   -21048383.085 7 -16308297.708 8
  23121398.964     8801154.105 5   6906313.389 4
  23584991.151    -6252843.452 5  -4786532.280 4
  23269337.300    -1338923.970 5   -946521.969 5
  20633974.065   -11642003.537 7  -9032284.776 8
  21255676.604   -14574243.489 7 -11284986.783 6
  23620647.120    -4785045.138 5  -3659169.422 2
 94  2 17 20 22 59.9990000  0  8 27 18 14 28 22 29 19 31
  23220497.526    -6395352.400 5  -4915817.285 4
  20203362.589   -21082151.936 7 -16334611.083 8
  23141202.354     8905176.897 5   6987370.001 4
  23575626.987    -6302073.640 5  -4824893.452 5
  23286696.698    -1247732.524 6   -875463.797 5
  20638300.175   -11619253.941 7  -9014557.847 8
  21247094.823   -14619323.010 7 -11320113.663 6
  23604221.237    -4871368.800 5  -3726434.636 2
 94  2 17 20 23 29.9990000  0  8 27 18 14 28 22 29 19 31
  23205696.495    -6473149.299 5  -4976438.226 4
  20197007.378   -21115574.033 7 -16360654.259 8
  23161020.776     9009334.164 5   7068531.414 5
  23566333.198    -6350871.878 5  -4862918.045 5
  23304092.706    -1156317.260 6   -804231.221 5
  20642698.995   -11596139.931 7  -8996546.958 8
  21238561.815   -14664177.489 7 -11355065.181 6
  23587815.855    -4957575.664 5  -3793608.808 2
 94  2 17 20 23 59.9990000  0  8 27 18 14 28 22 29 19 31
  23190911.823    -6550860.469 5  -5036992.349 4
  20190711.214   -21148668.217 7 -16386441.931 8
  23180862.690     9113630.267 5   7149800.979 5
  23557134.964    -6399245.105 5  -4900611.471 5
  23321521.097    -1064693.205 6   -732835.937 5
  20647166.276   -11572660.743 7  -8978251.506 8
  21230073.698   -14708817.565 7 -11389849.632 6
  23571428.292    -5043692.716 5  -3860713.041 2
 94  2 17 20 24 29.9990000  0  8 27 18 14 28 22 29 19 31
  23176144.769    -6628473.522 5  -5097470.003 5
  20184477.347   -21181424.410 7 -16411966.229 7
  23200733.628     9218057.940 5   7231173.094 5
  23547998.198    -6447203.523 5  -4937981.648 5
  23339000.542     -972872.229 6   -661287.202 5
  20651703.159   -11548809.867 7  -8959666.435 8
  21221623.714   -14753252.281 7 -11424474.075 6
  23555052.323    -5129728.680 5  -3927754.070 2
 94  2 17 20 24 59.9990000  0  8 27 18 14 28 22 29 19 31
  23161392.136    -6705972.456 5  -5157858.731 5
  20178313.003   -21213818.863 7 -16437208.654 7
  23220634.159     9322632.922 5   7312659.968 5
  23538952.120    -6494754.979 5  -4975034.704 5
  23356504.987     -880854.402 6   -589585.067 5
  20656311.847   -11524571.985 7  -8940779.792 8
  21213199.964   -14797466.518 7 -11458926.713 6
  23538717.737    -5215640.973 5  -3994698.700 2
 94  2 17 20 25 29.9990000  0  8 27 18 14 28 22 29 19 31
  23146659.784    -6783354.813 5  -5218156.640 4
  20172218.097   -21245846.396 7 -16462165.181 7
  23240559.628     9427343.040 5   7394252.161 4
  23529982.003    -6541926.468 5  -5011791.681 5
  23374060.550     -788639.800 5   -517729.612 5
  20661006.347   -11499939.365 7  -8921585.564 8
  21204827.862   -14841472.665 7 -11493217.205 6
  23522387.933    -5301413.418 5  -4061534.374 2
 94  2 17 20 25 59.9990000  0  8 27 18 14 28 22 29 19 31
  23131968.386    -6860619.386 5  -5278362.736 5
  20166195.159   -21277504.638 7 -16486833.930 7
  23260505.870     9532160.912 5   7475928.317 5
  23521065.940    -6588746.378 5  -5048274.674 5
  23391640.284     -696238.958 5   -445729.051 5
  20665769.331   -11474905.461 7  -8902078.641 8
  21196487.229   -14885276.009 7 -11527349.664 6
  23506090.940    -5387036.353 5  -4128253.505 2
 94  2 17 20 26 29.9990000  0  8 27 18 14 28 22 29 19 31
  23117275.808    -6937767.899 5  -5338478.406 5
  20160241.745   -21308785.118 7 -16511208.333 7
  23280473.503     9637066.113 5   7557672.500 4
  23512229.222    -6635212.149 5  -5084481.718 5
  23409263.722     -603654.212 5   -373585.182 5
  20670608.073   -11449471.701 7  -8882260.156 7
  21188195.644   -14928872.406 7 -11561320.853 6
  23489827.855    -5472493.368 5  -4194843.310 2
 94  2 17 20 26 59.9990000  0  8 27 18 14 28 22 29 19 31
  23102625.933    -7014796.235 5  -5398500.398 5
  20154357.097   -21339703.574 7 -16535300.635 7
  23300445.854     9742047.542 5   7639476.089 5
  23503457.034    -6681310.327 5  -5120402.326 5
  23426914.409     -510895.969 5   -301306.107 5
  20675517.214   -11423658.437 7  -8862145.940 8
  21179942.792   -14972253.908 7 -11595124.602 6
  23473597.362    -5557779.744 5  -4261300.130 2
 94  2 17 20 27 29.9990000  0  8 27 18 14 28 22 29 19 31
  23087991.683    -7091681.945 5  -5458411.283 5
  20148546.308   -21370254.025 7 -16559106.187 7
  23320432.636     9847084.795 5   7721323.182 4
  23494761.769    -6727010.469 5  -5156012.764 5
  23444584.698     -417949.979 5   -228880.734 5
  20680506.550   -11397461.513 7  -8841732.783 8
  21171726.894   -15015400.184 7 -11628745.059 6
  23457400.019    -5642891.563 5  -4327620.940 1
 94  2 17 20 27 59.9990000  0  8 27 18 14 28 22 29 19 31
  23073390.979    -7168412.742 5  -5518201.451 5
  20142802.354   -21400432.666 7 -16582622.014 7
  23340436.972     9952180.535 5   7803215.838 3
  23486135.581    -6772294.388 5  -5191298.858 5
  23462324.362     -324794.818 5   -156292.365 5
  20685563.729   -11370886.132 7  -8821024.697 8
  21163564.019   -15058301.716 7 -11662174.805 6
  23441238.808    -5727806.996 5  -4393788.641 2
 94  2 17 20 28 29.9990000  0  8 27 18 14 28 22 29 19 31
  23058815.995    -7244992.157 5  -5577873.648 5
  20137130.659   -21430236.073 7 -16605845.454 7
  23360451.237    10057350.468 5   7885166.307 4
  23477610.784    -6817150.943 5  -5226251.936 5
  23480092.636     -231420.325 5    -83533.091 5
  20690687.308   -11343961.154 7  -8800044.217 7
  21155446.565   -15100971.157 7 -11695423.699 6
  23425122.089    -5812533.506 5  -4459809.121 2
 94  2 17 20 28 59.9990000  0  8 27 18 14 28 22 29 19 31
  23044265.292    -7321432.585 5  -5637437.567 5
  20131522.284   -21459665.864 7 -16628777.753 7
  23380478.737    10162607.160 5   7967184.379 5
  23469158.011    -6861566.371 5  -5260861.279 5
  23497903.776     -137819.818 5    -10597.693 5
  20695875.667   -11316683.996 7  -8778789.303 7
  21147374.284   -15143411.926 7 -11728494.411 7
  23409036.386    -5897065.874 5  -4525678.290 3
 94  2 17 20 29 29.9990000  0  8 27 18 14 28 22 29 19 31
  23029751.573    -7397754.766 5  -5696909.331 5
  20126004.104   -21488711.100 7 -16651410.408 7
  23400523.690    10267960.618 5   8049277.854 4
  23460774.065    -6905547.917 5  -5295132.541 5
  23515768.519      -43982.673 5     62522.098 5
  20701140.659   -11289033.242 7  -8757243.279 7
  21139336.581   -15185641.873 7 -11761400.837 6
  23392989.706    -5981402.527 5  -4591394.938 2
 94  2 17 20 29 59.9990000  0  8 27 18 14 28 22 29 19 31
  23015243.972    -7473984.832 5  -5756309.325 5
  20120546.987   -21517375.851 7 -16673746.580 7
  23420591.706    10373430.286 5   8131461.870 4
  23452495.722    -6949121.104 5  -5329085.595 5
  23533659.120       50059.929 5    135801.970 5
  20706465.261   -11261023.563 7  -8735417.570 7
  21131336.495   -15227694.804 7 -11794169.334 6
  23376975.308    -6065558.355 5  -4656970.702 2
 94  2 17 20 30 29.9990000  0  8 27 18 14 28 22 29 19 31
  23000745.519    -7550121.030 5  -5815636.190 5
  20115168.987   -21545650.196 7 -16695778.535 7
  23440693.800    10479037.365 5   8213752.950 5
  23444274.604    -6992275.668 5  -5362712.471 5
  23551594.769      144281.359 5    209221.202 5
  20711873.300   -11232627.585 7  -8713290.857 7
  21123363.683   -15269561.602 7 -11826792.787 7
  23360994.026    -6149544.044 5  -4722413.856 2
 94  2 17 20 30 59.9990000  0  8 27 18 14 28 22 29 19 31
  22986289.831    -7626155.877 5  -5874884.074 5
  20109860.245   -21573535.634 7 -16717507.448 7
  23460808.675    10584777.482 5   8296147.700 3
  23436144.753    -7035007.647 5  -5396010.073 5
  23569548.729      238657.881 5    282761.274 5
  20717352.909   -11203816.277 7  -8690840.504 7
  21115438.120   -15311229.405 7 -11859261.179 7
  23345038.612    -6233351.283 5  -4787717.957 3
 94  2 17 20 31 29.9990000  0  8 27 18 14 28 22 29 19 31
  22971841.870    -7702074.850 5  -5934041.673 5
  20104627.714   -21601025.571 7 -16738928.172 7
  23480960.909    10690649.288 5   8378645.064 4
  23428097.425    -7077325.519 5  -5428984.994 5
  23587531.917      333170.608 5    356407.477 5
  20722916.550   -11174593.022 7  -8668069.155 7
  21107545.956   -15352701.423 7 -11891577.014 7
  23329121.222    -6316983.711 5  -4852885.856 2
 94  2 17 20 31 59.9990000  0  8 27 18 14 28 22 29 19 31
  22957416.886    -7777868.087 5  -5993101.287 5
  20099476.933   -21628116.805 7 -16760038.217 7
  23501136.331    10796645.598 5   8461239.446 4
  23420120.339    -7119215.707 5  -5461626.668 5
  23605540.323      427812.243 5    430154.139 5
  20728552.136   -11144967.748 7  -8644984.544 7
  21099688.737   -15393962.535 7 -11923728.505 7
  23313242.331    -6400439.780 5  -4917916.338 3
 94  2 17 20 32 29.9990000  0  8 27 18 14 28 22 29 19 31
  22943021.612    -7853535.283 5  -6052062.692 5
  20094395.964   -21654811.911 7 -16780839.593 7
  23521319.229    10902733.932 5   8543905.526 4
  23412242.472    -7160654.382 5  -5493916.531 5
  23623584.128      522600.220 5    504014.847 5
  20734270.761   -11114939.578 7  -8621585.991 7
  21091888.136   -15434989.084 7 -11955697.223 7
  23297399.237    -6483712.691 5  -4982804.120 3
 94  2 17 20 32 59.9990000  0  8 27 18 14 28 22 29 19 31
  22928639.612    -7929068.882 5  -6110920.022 5
  20089392.847   -21681094.894 7 -16801319.836 7
  23541525.862    11008896.751 5   8626629.645 3
  23404439.347    -7201643.783 5  -5525856.320 5
  23641649.745      617555.547 5    578005.953 5
  20740052.644   -11084532.001 7  -8597891.797 7
  21084121.394   -15475784.630 7 -11987485.940 7
  23281589.136    -6566783.932 5  -5047534.784 4
 94  2 17 20 33 29.9990000  0  8 27 18 14 28 22 29 19 31
  22914292.862    -8004464.971 5  -6169670.168 5
  20084471.737   -21706952.214 7 -16821468.389 7
  23561737.964    11115130.497 5   8709409.034 3
  23396720.128    -7242185.367 5  -5557447.158 5
  23659755.745      712705.045 5    652148.378 5
  20745909.269   -11053756.363 7  -8573910.789 7
  21076405.081   -15516355.880 7 -12019099.875 7
  23265824.737    -6649650.131 5  -5112105.675 4
 94  2 17 20 33 59.9990000  0  8 27 18 14 28 22 29 19 31
  22899978.729    -8079726.650 5  -6228315.580 5
  20079633.605   -21732397.236 7 -16841295.669 7
  23581965.683    11221422.345 5   8792233.684 2
  23389104.284    -7282285.164 5  -5588693.772 5
  23677903.589      808065.780 5    726455.397 5
  20751835.792   -11022612.629 7  -8549642.964 7
  21068726.034   -15556701.427 7 -12050537.936 7
  23250088.222    -6732312.040 5  -5176517.395 4
 94  2 17 20 34 29.9990000  0  8 27 18 14 28 22 29 19 31
  22885673.683    -8154865.544 5  -6286865.320 5
  20074859.558   -21757451.093 7 -16860818.139 7
  23602199.276    11327758.496 5   8875092.884 3
  23381537.417    -7321968.760 5  -5619616.087 5
  23696077.472      903613.244 5    800907.918 5
  20757830.011   -10991118.155 7  -8525101.832 7
  21061088.370   -15596848.790 7 -12081821.572 7
  23234401.347    -6814783.934 5  -5240781.091 4
 94  2 17 20 34 59.9990000  0  8 27 18 14 28 22 29 19 31
  22871400.058    -8229876.621 5  -6345315.459 5
  20070171.956   -21782115.767 7 -16880037.348 7
  23622438.628    11434153.557 5   8957997.966 2
  23374065.050    -7361248.060 5  -5650223.360 5
  23714308.550      999340.052 5    875500.195 5
  20763894.144   -10959264.430 7  -8500280.762 7
  21053480.237   -15636824.468 7 -12112971.419 7
  23218738.253    -6897067.025 5  -5304897.664 4
 94  2 17 20 35 29.9990000  0  8 27 18 14 28 22 29 19 31
  22857154.323    -8304761.021 5  -6403666.868 5
  20065547.964   -21806401.940 7 -16898961.623 7
  23642701.815    11540617.467 5   9040956.674 2
  23366673.386    -7400099.007 5  -5680496.839 5
  23732553.784     1095241.445 5    950228.491 5
  20770024.089   -10927020.443 7  -8475155.595 7
  21045905.776   -15676618.077 7 -12143979.394 7
  23203121.456    -6979156.530 5  -5368863.418 4
 94  2 17 20 35 59.9990000  0  8 27 18 14 28 22 29 19 31
  22842932.253    -8379511.094 5  -6461913.603 5
  20060999.769   -21830319.607 7 -16917598.754 7
  23662977.956    11647147.284 5   9123966.753 3
  23359365.729    -7438500.697 5  -5710420.261 5
  23750828.737     1191301.011 5   1025080.074 4
  20776242.409   -10894371.375 7  -8449714.787 7
  21038370.011   -15716218.952 7 -12174837.182 7
  23187540.776    -7061035.924 5  -5432665.497 4
 94  2 17 20 36 29.9990000  0  8 27 18 14 28 22 29 19 31
  22828732.003    -8454119.062 5  -6520049.619 5
  20056518.026   -21853837.304 7 -16935924.220 7
  23683262.886    11753740.868 5   9207026.523 3
  23352150.604    -7476428.724 5  -5739974.592 5
  23769134.386     1287501.666 5   1100041.562 4
  20782531.573   -10861303.923 7  -8423947.962 7
  21030877.417   -15755610.614 7 -12205531.954 7
  23172004.792    -7142668.177 5  -5496274.999 4
 94  2 17 20 36 59.9990000  0  8 27 18 14 28 22 29 19 31
  22814542.589    -8528609.465 5  -6578094.030 5
  20052122.370   -21876964.865 7 -16953945.682 7
  23703551.511    11860368.193 5   9290112.582 2
  23345025.925    -7513891.677 5  -5769166.521 5
  23787470.323     1383833.660 5   1175105.417 5
  20788901.589   -10827826.054 7  -8397861.325 7
  21023411.940   -15794797.509 7 -12236067.167 7
  23156517.784    -7224047.962 5  -5559687.790 4
 94  2 17 20 37 29.9990000  0  8 27 18 14 28 22 29 19 31
  22800408.073    -8602980.286 5  -6636045.238 5
  20047794.495   -21899688.287 7 -16971652.231 7
  23723842.401    11967013.668 5   9373212.765 3
  23337983.925    -7550884.471 5  -5797992.111 5
  23805830.276     1480301.788 5   1250275.331 5
  20795352.776   -10793944.215 7  -8371459.905 7
  21016006.597   -15833741.748 7 -12266413.297 7
  23141081.300    -7305155.538 5  -5622888.509 4
 94  2 17 20 37 59.9990000  0  8 27 18 14 28 22 29 19 31
  22786275.144    -8677251.146 5  -6693918.573 5
  20043552.050   -21922004.476 7 -16989041.457 7
  23744134.675    12073652.443 5   9456307.718 2
  23331027.589    -7587436.295 5  -5826474.073 5
  23824201.933     1576893.799 5   1325541.788 5
  20801869.433   -10759694.037 7  -8344771.477 7
  21008637.753   -15872449.780 7 -12296575.371 7
  23125697.628    -7386001.837 5  -5685885.643 4
 94  2 17 20 38 29.9990000  0  8 27 18 14 28 22 29 19 31
  22772158.433    -8751423.561 5  -6751715.210 5
  20039385.722   -21943890.927 7 -17006095.828 7
  23764434.901    12180303.849 5   9539412.535 2
  23324142.081    -7623550.689 5  -5854615.162 5
  23842611.620     1673632.890 5   1400922.855 5
  20808455.261   -10725064.558 7  -8317787.481 7
  21001311.878   -15910910.328 7 -12326544.604 7
  23110364.628    -7466594.616 5  -5748685.243 5
 94  2 17 20 38 59.9990000  0  8 27 18 14 28 22 29 19 31
  22758062.472    -8825498.648 5  -6809436.015 5
  20035298.808   -21965369.835 7 -17022832.629 7
  23784738.620    12286979.678 5   9622536.366 2
  23317367.690    -7659241.520 5  -5882426.218 5
  23861052.354     1770532.783 5   1476429.215 5
  20815119.261   -10690061.686 7  -8290512.540 7
  20994049.401   -15949139.518 7 -12356333.553 7
  23095070.183    -7546971.072 5  -5811316.289 4
 94  2 17 20 39 29.9990000  0  8 27 18 14 28 22 29 19 31
  22743990.823    -8899454.757 5  -6867064.107 5
  20031288.901   -21986431.385 7 -17039244.222 7
  23805046.464    12393703.492 5   9705697.598 3
  23310645.909    -7694505.095 5  -5909904.325 5
  23879526.019     1867592.202 5   1552059.878 5
  20821846.745   -10654692.959 7  -8262952.512 7
  20986818.331   -15987140.981 7 -12385945.068 7
  23079809.534    -7627152.445 5  -5873795.325 4
 94  2 17 20 39 59.9990000  0  8 27 18 14 28 22 29 19 31
  22729939.058    -8973279.070 5  -6924589.511 5
  20027362.831   -22007075.958 7 -17055330.896 7
  23825367.589    12500493.180 5   9788910.154 2
  23304023.729    -7729338.074 5  -5937046.910 5
  23898027.300     1964798.582 5   1627805.054 5
  20828651.058   -10618944.950 7  -8235096.944 7
  20979613.722   -16024950.487 7 -12415407.007 7
  23064588.628    -7707147.682 5  -5936129.328 4
 94  2 17 20 40 29.9990000  0  8 27 18 14 28 22 29 19 31
  22715916.683    -9046960.320 5  -6982003.447 5
  20023513.175   -22027307.109 7 -17071095.417 7
  23845704.878    12607358.578 5   9872181.671 2
  23297486.159    -7763733.437 5  -5963848.503 5
  23916546.558     2062149.850 5   1703663.151 4
  20835530.706   -10582801.491 7  -8206933.226 7
  20972459.683   -16062577.154 7 -12444726.468 7
  23049400.394    -7786944.995 5  -5998309.112 3
 94  2 17 20 40 59.9990000  0  8 27 18 14 28 22 29 19 31
  22701923.183    -9120487.875 5  -7039297.616 5
  20019746.870   -22047118.425 7 -17086532.795 7
  23866054.901    12714304.736 5   9955516.136 1
  23291018.839    -7797667.587 5  -5990290.691 5
  23935099.433     2159643.231 5   1779631.970 4
  20842482.190   -10546268.677 7  -8178466.119 7
  20965336.097   -16100006.615 7 -12473892.272 7
  23034263.519    -7866502.806 5  -6060302.273 5
 94  2 17 20 41 29.9990000  0  8 27 18 14 28 22 29 19 31
  22687955.503    -9193887.493 5  -7096492.099 5
  20016051.972   -22066509.561 7 -17101642.755 7
  23886418.651    12821306.757 5  10038894.164 1
  23284646.909    -7831139.637 5  -6016372.791 5
  23953673.456     2257251.835 5   1855690.611 5
  20849508.112   -10509352.913 7  -8149700.606 7
  20958253.901   -16137242.960 7 -12502907.598 7
  23019173.034    -7945799.654 5  -6122092.056 4
 94  2 17 20 41 59.9990000  0  8 27 18 14 28 22 29 19 31
  22674011.901    -9267187.739 6  -7153609.152 5
  20012438.964   -22085487.123 7 -17116430.456 7
  23906779.542    12928342.924 5  10122298.765 1
  23278373.214    -7864136.133 5  -6042084.324 5
  23972273.112     2354973.996 5   1931837.689 4
  20856608.839   -10472029.139 7  -8120617.162 7
  20951202.620   -16174273.453 7 -12531762.518 7
  23004142.901    -8024806.316 5  -6183655.713 4
 94  2 17 20 42 29.9990000  0  8 27 18 14 28 22 29 19 31
  22660076.097    -9340404.803 5  -7210661.395 5
  20008907.464   -22104061.998 7 -17130904.376 7
  23927159.222    13035398.496 5  10205718.499 2
  23272187.417    -7896649.684 5  -6067419.536 5
  23990882.854     2452817.153 5   2008079.077 5
  20863786.300   -10434308.498 7  -8091224.476 7
  20944196.206   -16211078.153 7 -12560441.496 7
  22989163.526    -8103516.191 5  -6244988.091 4
 94  2 17 20 42 59.9990000  0  8 27 18 14 28 22 29 19 31
  22646163.386    -9413546.021 5  -7267654.534 5
  20005443.019   -22122244.944 7 -17145072.896 7
  23947524.917    13142443.664 4  10289130.150 1
  23266079.409    -7928692.990 5  -6092388.329 5
  24009519.230     2550758.181 4   2084396.714 4
  20871038.558   -10396207.296 7  -8061535.243 7
  20937233.917   -16247675.090 7 -12588958.584 7
  22974235.714    -8181946.933 5  -6306102.959 4
 94  2 17 20 43 29.9990000  0  8 27 18 14 28 22 29 19 31
  22632256.581    -9486595.931 5  -7324576.530 5
  20002058.050   -22140025.037 7 -17158927.501 7
  23967892.987    13249464.517 4  10372522.804 1
  23260077.315    -7960266.011 5  -6116990.674 5
  24028192.058     2648795.238 5   2160789.161 4
  20878364.448   -10357705.983 7  -8031534.240 7
  20930305.479   -16284084.801 7 -12617329.777 7
  22959362.620    -8260113.337 5  -6367011.822 3
 94  2 17 20 43 59.9990000  0  8 27 18 14 28 22 29 19 31
  22618374.050    -9559528.466 5  -7381407.050 5
  19998756.815   -22157408.266 7 -17172472.868 7
  23988255.144    13356460.736 5  10455896.268 2
  23254157.589    -7991369.267 5  -6141226.958 5
  24046861.823     2746931.787 5   2237259.160 4
  20885759.229   -10318819.128 7  -8001232.806 7
  20923411.308   -16320316.402 7 -12645562.183 7
  22944538.331    -8338023.743 5  -6427721.204 5
 94  2 17 20 44 29.9990000  0  8 27 18 14 28 22 29 19 31
  22604530.120    -9632304.211 5  -7438115.398 5
  19995523.948   -22174366.928 7 -17185687.398 7
  24008614.456    13463452.197 4  10539266.049 1
  23248336.714    -8022004.274 5  -6165098.377 5
  24065551.386     2845171.736 5   2313809.730 4
  20893235.503   -10279558.625 7  -7970640.217 7
  20916561.276   -16356374.987 7 -12673659.759 7
  22929761.503    -8415663.861 5  -6488219.950 4
 94  2 17 20 44 59.9990000  0  8 27 18 14 28 22 29 19 31
  22590713.448    -9704913.755 6  -7494694.221 5
  19992385.550   -22190882.754 7 -17198556.868 7
  24028967.136    13570448.584 3  10622639.648 1
  23242592.440    -8052157.381 6  -6188594.300 5
  24084265.558     2943498.585 5   2390428.004 3
  20900781.565   -10239915.421 7  -7939749.432 7
  20909721.097   -16392262.524 7 -12701624.052 7
  22915035.354    -8493027.532 5  -6548503.301 5
 94  2 17 20 45 29.9990000  0  8 27 18 14 28 22 29 19 31
  22576921.386    -9777366.901 6  -7551151.183 5
  19989326.448   -22206953.358 7 -17211079.400 7
  24049336.925    13677471.050 4  10706033.564 1
  23236944.269    -8081812.585 5  -6211702.246 5
  24102990.378     3041928.351 5   2467126.486 3
  20908397.214   -10199879.769 7  -7908552.831 7
  20902929.690   -16427961.338 7 -12729441.294 7
  22900372.925    -8570108.572 5  -6608566.406 5
 94  2 17 20 45 59.9990000  0  8 27 18 14 28 22 29 19 31
  22563159.386    -9849676.824 6  -7607496.541 5
  19986349.823   -22222583.362 7 -17223258.610 7
  24069703.690    13784522.758 3  10789450.302 1
  23231397.854    -8110978.655 5  -6234429.064 5
  24121741.042     3140463.837 5   2543907.327 2
  20916087.128   -10159467.810 7  -7877063.010 7
  20896182.167   -16463451.314 7 -12757095.796 7
  22885757.604    -8646901.965 5  -6668405.369 5
 94  2 17 20 46 29.9990000  0  8 27 18 14 28 22 29 19 31
  22549422.972    -9921867.315 6  -7663748.833 5
  19983461.136   -22237772.710 7 -17235094.447 7
  24090096.292    13891605.071 3  10872890.832 1
  23225940.120    -8139658.372 5  -6256776.890 5
  24140515.808     3239103.447 5   2620769.309 3
  20923849.823   -10118674.229 7  -7845275.822 7
  20889464.503   -16498724.579 7 -12784581.435 7
  22871193.026    -8723410.634 5  -6728022.482 5
 94  2 17 20 46 59.9990000  0  8 27 18 14 28 22 29 19 31
  22535707.964    -9993953.987 6  -7719920.228 5
  19980647.644   -22252544.204 7 -17246604.697 6
  24110466.050    13998701.210 4  10956342.153 1
  23220578.925    -8167853.116 6  -6278746.814 5
  24159315.081     3337865.748 5   2697726.903 2
  20931684.503   -10077495.641 7  -7813188.624 7
  20882798.105   -16533777.405 7 -12811895.301 7
  22856696.519    -8799648.057 5  -6787428.234 5
 94  2 17 20 47 29.9990000  0  8 27 18 14 28 22 29 19 31
  22522008.347   -10065926.374 5  -7776002.568 5
  19977920.690   -22266892.279 7 -17257785.005 7
  24130850.104    14105806.630 3  11039800.716 1
  23215300.065    -8195570.845 5  -6300345.042 5
  24178123.183     3436781.355 3   2774803.926 2
  20939591.894   -10035931.309 7  -7780800.846 7
  20876164.386   -16568601.139 7 -12839030.657 7
  22842236.753    -8875600.333 5  -6846611.781 5
 94  2 17 20 47 59.9990000  0  8 27 18 14 28 22 29 19 31
  22508337.901   -10137786.091 5  -7831997.098 5
  19975269.659   -22280819.147 7 -17268637.099 7
  24151238.456    14212901.148 3  11123250.773 1
  23210117.519    -8222824.538 6  -6321581.670 5
  24196977.683     3535833.658 4   2851987.448 2
  20947578.495    -9993997.708 7  -7748125.329 7
  20869580.167   -16603216.340 7 -12866003.522 7
  22827835.714    -8951266.605 5  -6905572.476 5
 94  2 17 20 48 29.9990000  0  8 27 18 14 28 22 29 19 31
  22494685.979   -10209518.163 5  -7887892.176 5
  19972706.909   -22294308.220 7 -17279148.065 7
  24171603.870    14319989.459 3  11206695.966 1
  23205028.956    -8249587.400 5  -6342435.825 5
  24215853.167     3635020.863 3   2929276.139 3
  20955629.558    -9951664.173 7  -7715138.166 7
  20863036.175   -16637623.882 7 -12892814.572 7
  22813509.401    -9026625.834 5  -6964293.917 5
 94  2 17 20 48 59.9990000  0  8 27 18 14 28 22 29 19 31
  22481057.878   -10281112.738 5  -7943680.117 5
  19970217.909   -22307354.933 7 -17289314.323 7
  24191988.104    14427067.233 3  11290132.985 1
  23200020.972    -8275855.380 5  -6362904.343 5
  24234754.636     3734325.446 4   3006656.254 2
  20963762.815    -9908928.005 7  -7681837.272 7
  20856532.745   -16671828.399 7 -12919467.426 7
  22799220.355    -9101677.335 5  -7022775.572 5
 94  2 17 20 49 29.9990000  0  7 27 18 28 22 29 19 31
  22467472.886   -10352570.632 6  -7999361.545 5
  19967827.245   -22319938.394 7 -17299119.614 7
  23195122.034    -8301612.375 5  -6382974.673 5
  24253662.292     3833713.325 4   3084101.297 2
  20971974.675    -9865776.778 7  -7648212.964 7
  20850058.956   -16705822.761 7 -12945956.520 7
  22784994.565    -9176413.528 6  -7081011.530 5
 94  2 17 20 49 59.9990000  0  8 27 18 14 28 22 29 19 31
  22453889.519   -10423892.285 5  -8054936.805 5
  19965517.901   -22332061.007 7 -17308565.799 7
  24232738.745       53534.93013
  23190319.323    -8326844.782 5  -6402636.216 5
  24272591.401     3933153.506 5   3161587.101 3
  20980268.339    -9822202.255 7  -7614258.814 7
  20843626.683   -16739607.812 7 -12972282.525 7
  22770836.237    -9250838.695 6  -7139005.121 5
 94  2 17 20 50 29.9990000  0  8 27 18 14 28 22 29 19 31
  22440345.136   -10495088.079 5  -8110414.001 5
  19963294.417   -22343735.854 7 -17317663.079 7
  24253093.870      160594.699 2     41709.72611
  23185610.401    -8351563.892 5  -6421897.773 5
  24291517.487     4032623.388 5   3239096.053 4
  20988636.519    -9778221.053 7  -7579987.769 7
  20837235.276   -16773188.211 7 -12998449.066 7
  22756730.761    -9324965.320 6  -7196766.089 5
 94  2 17 20 50 59.9990000  0  8 27 18 14 28 22 29 19 31
  22426817.151   -10566168.294 6  -8165801.131 5
  19961162.401   -22354968.035 7 -17326415.427 7
  24273472.433      267630.608 2    125114.103 1
  23181000.448    -8375780.364 6  -6440767.659 5
  24310452.175     4132128.607 5   3316632.528 3
  20997076.144    -9733859.772 7  -7545420.571 7
  20830879.284   -16806558.368 7 -13024451.788 7
  22742682.894    -9398789.935 6  -7254291.709 4
 94  2 17 20 51 29.9990000  0  8 27 18 14 28 22 29 19 31
  22413312.464   -10637150.347 5  -8221111.784 5
  19959105.315   -22365768.371 7 -17334831.275 7
  24293830.503      374615.413 3    208478.650 1
  23176495.886    -8399500.589 5  -6459250.842 5
  24329395.003     4231678.167 5   3394203.561 3
  21005585.394    -9689135.526 7  -7510570.536 7
  20824570.058   -16839735.725 7 -13050304.265 7
  22728693.050    -9472299.366 6  -7311571.724 5
 94  2 17 20 51 59.9990000  0  8 27 18 14 28 22 29 19 31
  22399816.651   -10708034.998 5  -8276346.536 5
  19957127.097   -22376147.659 7 -17342919.035 7
  24314174.886      481539.435 3    291795.876 1
  23172069.456    -8422741.333 5  -6477360.401 5
  24348346.183     4331285.955 5   3471819.976 3
  21014160.003    -9644071.244 7  -7475455.542 7
  20818286.167   -16872736.163 7 -13076018.884 7
  22714764.495    -9545484.639 6  -7368599.152 5
 94  2 17 20 52 29.9990000  0  8 27 18 14 28 22 29 19 31
  22386354.565   -10778824.075 6  -8331506.809 6
  19955236.636   -22386092.737 7 -17350668.450 7
  24334521.026      588405.421 3    375067.845 1
  23167739.253    -8445501.152 6  -6495095.236 5
  24367324.339     4430989.439 5   3549510.936 4
  21022807.386    -9598660.808 7  -7440070.821 7
  20812049.425   -16905547.758 7 -13101586.363 7
  22700906.730    -9618321.477 6  -7425355.062 5
 94  2 17 20 52 59.9990000  0  8 27 18 14 28 22 29 19 31
  22372896.456   -10849510.366 6  -8386586.982 5
  19953427.011   -22395604.327 7 -17358080.086 7
  24354838.487      695208.217 3    458290.603 1
  23163496.917    -8467771.302 5  -6512448.517 5
  24386312.714     4530800.508 5   3627285.731 3
  21031516.464    -9552877.049 7  -7404395.204 7
  20805833.815   -16938171.256 7 -13127007.272 7
  22687107.042    -9690799.536 6  -7481831.410 5
 94  2 17 20 53 29.9990000  0  8 27 18 14 28 22 29 19 31
  22359476.081   -10920072.796 6  -8441570.645 6
  19951698.190   -22404677.683 7 -17365150.238 7
  24375174.292                          -0.56312
  23159356.433    -8489547.312 6  -6529416.745 5
  24405332.675     4630713.731 4   3705140.118 3
  21040302.284    -9506696.748 7  -7368410.590 7
  20799663.159   -16970613.627 7 -13152287.037 7
  22673386.589    -9762921.786 6  -7538030.517 4
 94  2 17 20 53 59.9990000  0  7 27 18 28 22 29 19 31
  22346072.604   -10990505.333 6  -8496453.087 6
  19950054.183   -22413309.732 7 -17371876.515 7
  23155304.159    -8510841.655 6  -6546009.678 5
  24424360.815     4730715.654 4   3783063.619 4
  21049173.347    -9460111.572 7  -7332110.490 7
  20793529.659   -17002865.187 7 -13177418.119 7
  22659729.339    -9834707.629 6  -7593967.465 5
 94  2 17 20 54 29.9990000  0  7 27 18 28 22 29 19 31
  22332692.190   -11060813.242 6  -8551238.430 6
  19948496.354   -22421506.921 7 -17378263.939 7
  23151350.073    -8531651.815 6  -6562225.327 5
  24443392.159     4830787.303 3   3861041.470 4
  21058114.472    -9413126.578 7  -7295498.851 7
  20787426.706   -17034926.354 7 -13202400.844 7
  22646126.558    -9906187.482 6  -7649665.996 5
 94  2 17 20 54 59.9990000  0  7 27 18 28 22 29 19 31
  22319332.933   -11130978.454 6  -8605912.577 6
  19947022.472   -22429262.493 7 -17384307.252 7
  23147489.769    -8551969.627 6  -6578057.358 5
  24462453.612     4930912.341 3   3939060.915 2
  21067129.495    -9365749.533 7  -7258581.712 7
  20781352.495   -17066798.593 7 -13227236.343 7
  22632577.784    -9977369.801 6  -7705132.674 5
 94  2 17 20 55 29.9990000  0  7 27 18 28 22 29 19 31
  22306013.401   -11201005.563 6  -8660479.113 6
  19945631.612   -22436566.771 7 -17389998.909 7
  23143703.886    -8571797.004 5  -6593507.230 5
  24481518.894     5031087.220 3   4017119.159 4
  21076211.886    -9318001.325 7  -7221375.347 7
  20775330.472   -17098471.456 7 -13251916.485 7
  22619081.855   -10048264.923 5  -7760375.571 5
 94  2 17 20 55 59.9990000  0  7 27 18 28 22 29 19 31
  22292719.401   -11270901.855 6  -8714943.709 6
  19944328.901   -22443416.401 7 -17395336.290 7
  23140025.917    -8591128.218 6  -6608570.478 5
  24500593.472     5131303.752 4   4095209.904 3
  21085371.456    -9269894.443 7  -7183889.511 7
  20769343.659   -17129930.378 7 -13276429.917 7
  22605649.542   -10118873.967 5  -7815395.550 5
 94  2 17 20 56 29.9990000  0  7 27 18 28 22 29 19 31
  22279441.089   -11340673.484 6  -8769311.176 6
  19943112.261   -22449811.873 7 -17400319.785 7
  23136449.237    -8609951.299 5  -6623237.780 5
  24519658.636     5231556.421 3   4173328.822 2
  21094588.183    -9221425.587 7  -7146121.600 7
  20763406.026   -17161178.134 7 -13300778.795 7
  22592271.808   -10189180.718 6  -7870179.980 5
 94  2 17 20 56 59.9990000  0  7 27 18 28 22 29 19 31
  22266176.292   -11410338.405 6  -8823595.485 6
  19941975.487   -22455774.729 7 -17404966.177 7
  23132964.620    -8628282.659 6  -6637521.919 5
  24538745.112     5331831.611 3   4251465.305 1
  21103883.362    -9172584.694 7  -7108063.797 7
  20757492.433   -17192226.547 7 -13324972.341 7
  22578957.894   -10259161.308 6  -7924710.251 5
 94  2 17 20 57 29.9990000  0  7 27 18 28 22 29 19 31
  22252938.823   -11479910.991 6  -8877807.843 6
  19940918.362   -22461318.750 7 -17409286.196 7
  23129566.620    -8646121.247 5  -6651422.089 5
  24557835.058     5432127.372 5   4329617.793 1
  21113256.042    -9123365.242 7  -7069711.011 7
  20751623.558   -17223082.439 7 -13349015.871 7
  22565697.964   -10328806.666 6  -7978979.326 5
 94  2 17 20 57 59.9990000  0  7 27 18 28 22 29 19 31
  22239721.362   -11549383.912 6  -8931942.547 6
  19939947.394   -22466434.634 7 -17413272.607 7
  23126266.503    -8663449.781 5  -6664924.805 5
  24576924.120     5532457.972 5   4407797.441 2
  21122696.604    -9073752.113 7  -7031051.468 7
  20745782.589   -17253747.711 7 -13372910.869 7
  22552522.690   -10398084.244 6  -8032961.804 5
 94  2 17 20 58 29.9990000  0  7 27 18 28 22 29 19 31
  22226522.097   -11618759.274 6  -8986001.236 6
  19939054.308   -22471132.888 7 -17416933.586 7
  23123059.823    -8680263.852 5  -6678026.617 5
  24596027.534     5632837.430 5   4486015.217 2
  21132210.339    -9023745.898 7  -6992085.620 7
  20739986.339   -17284237.435 7 -13396669.071 7
  22539403.339   -10466981.057 6  -8086647.593 5
 94  2 17 20 58 59.9990000  0  7 27 18 28 22 29 19 31
  22213338.292   -11688013.391 6  -9039965.449 5
  19938243.386   -22475394.920 7 -17420254.653 7
  23119965.370    -8696545.615 5  -6690713.672 5
  24615133.167     5733269.097 5   4564273.587 1
  21141797.339    -8973358.553 7  -6952822.788 7
  20734216.714   -17314545.094 7 -13420285.417 7
  22526369.542   -10535494.419 6  -8140034.587 5
 94  2 17 20 59 29.9990000  0  7 27 18 28 22 29 19 31
  22200180.581   -11757141.944 6  -9093831.821 6
  19937516.534   -22479201.864 7 -17423221.100 7
  23116978.394    -8712288.776 6  -6702981.006 5
  24634259.933     5833743.296 5   4642565.153 3
  21151453.917    -8922614.231 7  -6913281.793 7
  20728480.097   -17344672.209 7 -13443761.075 7
  22513403.808   -10603639.676 6  -8193134.771 5
 94  2 17 20 59 59.9990000  0  7 27 18 28 22 29 19 31
  22187054.167   -11826138.914 6  -9147595.671 6
  19936884.878   -22482543.381 7 -17425824.880 7
  23114073.456    -8727498.303 5  -6714832.549 5
  24653381.800     5934253.509 5   4720884.728 2
  21161171.964    -8871524.174 7  -6873471.394 7
  20722787.065   -17374615.607 7 -13467093.583 7
  22500507.019   -10671418.297 6  -8245949.269 5
 94  2 17 21  0 29.9990000  0  6 27 18 28 29 19 31
  22173955.019   -11894996.129 6  -9201250.619 6
  19936335.448   -22485415.829 7 -17428063.151 7
  23111278.753    -8742183.404 5  -6726275.437 5
  21170965.237    -8820092.847 7  -6833395.052 7
  20717120.472   -17404375.470 7 -13490283.069 7
  22487670.784   -10738841.558 6  -8298486.865 5
 94  2 17 21  0 59.9990000  0  6 27 18 28 29 19 31
  22160873.472   -11963720.094 6  -9254801.732 6
  19935881.644   -22487804.335 7 -17429924.317 7
  23108592.417    -8756352.648 6  -6737316.369 5
  21180817.394    -8768310.611 7  -6793045.285 7
  20711492.136   -17433946.769 7 -13513325.630 7
  22474906.558   -10805914.968 6  -8350751.862 5
 94  2 17 21  1 29.9990000  0  6 27 18 28 29 19 31
  22147821.144   -12032319.279 6  -9308255.622 6
  19935521.823   -22489713.936 7 -17431412.312 7
  23105984.847    -8770017.524 5  -6747964.290 5
  21190738.284    -8716160.494 7  -6752408.860 7
  20705909.847   -17463329.028 7 -13536220.894 7
  22462216.573   -10872627.128 6  -8402735.379 5
 94  2 17 21  1 59.9990000  0  6 27 18 28 29 19 31
  22134793.722   -12100783.114 6  -9361604.038 6
  19935244.659   -22491149.374 7 -17432530.818 7
  23103473.276    -8783179.863 5  -6758220.623 5
  21200737.901    -8663622.595 7  -6711470.259 7
  20700352.362   -17492520.354 7 -13558967.377 7
  22449590.151   -10938965.068 6  -8454427.289 5
 94  2 17 21  2 29.9990000  0  6 27 18 28 29 19 31
  22121779.378   -12169134.218 6  -9414864.608 6
  19935060.511   -22492115.106 7 -17433283.326 7
  23101077.589    -8795843.634 6  -6768088.491 5
  21210808.034    -8610689.274 7  -6670223.540 7
  20694831.519   -17521531.346 7 -13581573.341 7
  22437034.683   -11004925.993 6  -8505825.432 5
 94  2 17 21  2 59.9990000  0  7 27 18  2 28 29 19 31
  22108802.354   -12237379.133 6  -9468042.442 6
  19934968.519   -22492621.674 7 -17433678.048 7
  24553385.214          -0.84113
  23098759.581    -8807996.938 5  -6777558.590 5
  21220956.370    -8557358.736 7  -6628667.297 7
  20689341.378   -17550357.211 7 -13604035.057 7
  22424563.042   -11070494.679 6  -8556917.938 5
 94  2 17 21  3 29.9990000  0  7 27 18  2 28 29 19 31
  22095828.870   -12305505.537 6  -9521127.930 6
  19934950.519   -22492668.398 7 -17433714.447 7
  24533781.401     -102996.256 3        -0.14213
  23096547.581    -8819634.055 5  -6786626.476 5
  21231182.159    -8503635.191 7  -6586804.819 7
  20683896.245   -17578990.914 7 -13626347.030 7
  22412162.339   -11135653.212 6  -8607690.837 5
 94  2 17 21  3 59.9990000  0  7 27 18  2 28 29 19 31
  22082892.847   -12373519.349 6  -9574125.686 6
  19935036.862   -22492240.426 7 -17433380.951 7
  24514210.628     -205848.433 4    -80144.583 2
  23094434.792    -8830747.073 5  -6795285.973 5
  21241476.058    -8449519.361 7  -6544636.666 7
  20678485.284   -17607420.022 7 -13648499.583 7
  22399840.284   -11200400.975 6  -8658143.645 5
 94  2 17 21  4 29.9990000  0  7 27 18  2 28 29 19 31
  22069969.581   -12441437.494 6  -9627048.898 5
  19935201.769   -22491345.819 7 -17432683.842 7
  24494674.065     -308569.388 4   -160186.773 2
  23092410.839    -8841332.834 5  -6803534.610 5
  21251851.636    -8395023.444 7  -6502172.329 7
  20673111.401   -17635653.462 7 -13670499.665 7
  22387593.651   -11264746.741 6  -8708283.194 5
 94  2 17 21  4 59.9990000  0  7 27 18  2 28 29 19 31
  22057067.214   -12509233.787 6  -9679877.143 6
  19935469.479   -22489975.376 7 -17431615.957 7
  24475155.722     -411144.301 3   -240115.162 2
  23090495.690    -8851376.523 5  -6811360.869 5
  21262295.956    -8340140.264 7  -6459406.231 7
  20667785.604   -17663673.883 7 -13692333.758 7
  22375423.019   -11328681.471 6  -8758102.434 5
 94  2 17 21  5 29.9990000  0  7 27 18  2 28 29 19 31
  22044175.362   -12576921.645 6  -9732620.902 6
  19935818.347   -22488141.518 7 -17430186.969 7
  24455654.995     -513597.910 4   -319949.041 1
  23088696.417    -8860895.865 6  -6818778.531 5
  21272813.534    -8284880.684 7  -6416346.835 7
  20662482.667   -17691495.850 7 -13714013.208 7
  22363332.589   -11392229.930 6  -8807620.657 5
 94  2 17 21  5 59.9990000  0  7 27 18  2 28 29 19 31
  22031328.651   -12644483.233 6  -9785266.264 5
  19936255.089   -22485835.150 7 -17428389.787 7
  24436183.050     -615914.146 4   -399675.878 2
  23086985.026    -8869860.235 5  -6825763.741 5
  21283402.589    -8229228.500 7  -6372981.520 7
  20657235.987   -17719104.113 7 -13735526.131 7
  22351322.206   -11455374.903 6  -8856824.471 5
 94  2 17 21  6 29.9990000  0  7 27 18  2 28 29 19 31
  22018501.792   -12711899.875 6  -9837798.683 5
  19936780.409   -22483075.555 7 -17426239.457 7
  24416738.979     -718100.093 4   -479301.157 2
  23085383.206    -8878266.550 6  -6832314.121 5
  21294065.339    -8173191.340 7  -6329316.222 6
  20652019.761   -17746511.181 7 -13756882.278 7
  22339387.370   -11518110.158 6  -8905708.992 5
 94  2 17 21  6 59.9990000  0  7 27 18  2 28 29 19 31
  22005700.425   -12779168.784 6  -9890215.980 5
  19937391.347   -22479865.565 7 -17423738.152 7
  24397312.519     -820165.193 3   -558832.259 2
  23083890.917    -8886115.311 5  -6838430.001 5
  21304801.448    -8116781.778 7  -6285360.721 6
  20646840.917   -17773715.725 7 -13778080.608 7
  22327527.198   -11580442.252 6  -8954279.358 5
 94  2 17 21  7 29.9990000  0  7 27 18  2 28 29 19 31
  21992929.378   -12846284.635 6  -9942514.019 6
  19938090.769   -22476196.465 7 -17420879.124 7
  24377921.339     -922090.542 3   -638254.486 1
  23082507.190    -8893403.093 6  -6844108.779 5
  21315605.425    -8059995.109 6  -6241111.392 6
  20641703.878   -17800709.767 7 -13799114.919 8
  22315735.964   -11642357.721 6  -9002525.068 5
 94  2 17 21  7 59.9990000  0  7 27 18  2 28 29 19 31
  21980188.073   -12913246.204 6  -9994691.833 6
  19938879.308   -22472056.660 7 -17417653.302 7
  24358556.550    -1023866.653 3   -717560.375 2
  23081229.815    -8900131.141 6  -6849351.365 5
  21326482.620    -8002826.803 7  -6196564.683 7
  20636602.487   -17827501.206 7 -13819991.348 8
  22304036.651   -11703837.175 6  -9050431.026 5
 94  2 17 21  8 29.9990000  0  7 27 18  2 28 29 19 31
  21967473.167   -12980044.860 6 -10046742.715 6
  19939758.417   -22467420.007 7 -17414040.322 7
  24339209.089    -1125502.534 3   -796757.031 1
  23080049.776    -8906302.850 5  -6854160.448 5
  21337437.011    -7945260.914 7  -6151708.158 6
  20631545.870   -17854078.203 7 -13840700.680 7
  22292427.597   -11764871.155 6  -9097989.852 5
 94  2 17 21  8 59.9990000  0  7 27 18  2 28 29 19 31
  21954785.604   -13046688.852 6 -10098673.061 6
  19940740.925   -22462262.173 7 -17410021.230 7
  24319903.933    -1226980.771 3   -875830.816 2
  23078983.409    -8911916.491 6  -6858534.636 5
  21348468.097    -7887284.334 6  -6106531.607 6
  20626537.269   -17880421.936 7 -13861228.247 7
  22280899.573   -11825452.556 6  -9145196.006 5
 94  2 17 21  9 29.9990000  0  7 27 18  2 28 29 19 31
  21942147.612   -13113167.029 6 -10150474.206 6
  19941826.050   -22456571.382 7 -17405586.842 7
  24300617.823    -1328278.061 3   -954763.617 2
  23078015.690    -8916978.126 5  -6862478.713 5
  21359584.698    -7828880.025 6  -6061021.777 7
  20621572.159   -17906522.428 7 -13881566.271 8
  22269458.472   -11885557.082 6  -9192030.561 5
 94  2 17 21  9 59.9990000  0  7 27 18  2 28 29 19 31
  21929531.808   -13179448.477 6 -10202122.063 6
  19943012.597   -22450323.729 7 -17400718.541 7
  24281387.003    -1429383.288 3  -1033546.753 2
  23077174.644    -8921455.138 6  -6865967.223 5
  21370781.401    -7770026.551 6  -6015161.949 6
  20616650.972   -17932355.323 7 -13901695.772 7
  22258119.690   -11945174.686 6  -9238485.699 5
 94  2 17 21 10 29.9990000  0  7 27 18  2 28 29 19 31
  21916961.776   -13245515.199 6 -10253602.596 6
  19944309.651   -22443509.779 7 -17395408.973 7
  24262195.214    -1530275.645 3  -1112164.054 2
  23076421.198    -8925333.639 5  -6868989.396 5
  21382070.526    -7710718.884 6  -5968948.195 6
  20611786.183   -17957902.814 7 -13921602.889 8
  22246856.870   -12004308.712 6  -9284564.009 5
 94  2 17 21 10 59.9990000  0  7 27 18  2 28 29 19 31
  21904430.276   -13311357.855 6 -10304908.529 6
  19945713.261   -22436127.421 7 -17389656.488 7
  24243042.487    -1630919.600 3  -1190587.780 2
  23075804.628    -8928598.918 5  -6871533.725 5
  21393439.526    -7650946.167 6  -5922372.073 6
  20606981.565   -17983167.033 7 -13941289.282 7
  22235702.667   -12062945.909 6  -9330255.192 5
 94  2 17 21 11 29.9990000  0  7 27 18  2 28 29 19 31
  21891944.644   -13376966.000 6 -10356031.721 6
  19947228.800   -22428179.928 7 -17383463.644 7
  24223924.323    -1731317.063 3  -1268819.438 2
  23075297.339    -8931239.813 5  -6873591.511 5
  21404904.651    -7590710.579 6  -5875435.282 6
  20602227.511   -18008159.575 7 -13960763.974 8
  22224640.159   -12121082.476 6  -9375556.270 5
 94  2 17 21 11 59.9990000  0  7 27 18  2 28 29 19 31
  21879502.761   -13442337.762 6 -10406970.726 6
  19948845.862   -22419647.915 7 -17376815.324 7
  24204857.847    -1831457.203 3  -1346850.612 1
  23074922.651    -8933236.652 5  -6875147.445 5
  21416458.909    -7530003.564 6  -5828131.120 6
  20597523.605   -18032880.847 7 -13980027.294 8
  22213677.323   -12178707.234 6  -9420458.551 5
 94  2 17 21 12 29.9990000  0  7 27 18  2 28 29 19 31
  21867116.870   -13507457.108 6 -10457713.033 6
  19950585.792   -22410508.636 7 -17369693.817 7
  24185869.909    -1931310.550 4  -1424658.336 2
  23074669.792    -8934568.697 5  -6876185.354 5
  21428106.120    -7468802.739 6  -5780442.188 6
  20592870.159   -18057316.853 7 -13999068.330 8
  22202823.401   -12235762.932 6  -9464917.408 5
 94  2 17 21 12 59.9990000  0  7 27 18  2 28 29 19 31
  21854762.667   -13572341.219 6 -10508272.045 6
  19952440.112   -22400781.608 7 -17362114.314 7
  24166919.386    -2030897.499 4  -1502258.445 1
  23074539.261    -8935238.313 5  -6876707.088 5
  21439839.230    -7407127.320 6  -5732383.436 6
  20588277.815   -18081468.399 7 -14017887.719 7
  22192067.323   -12292242.276 6  -9508927.178 5
 94  2 17 21 13 29.9990000  0  7 27 18  2 28 29 19 31
  21842457.612   -13637006.704 6 -10558660.702 6
  19954399.784   -22390476.798 7 -17354084.599 7
  24148014.526    -2130229.402 4  -1579659.848 2
  23074545.870    -8935248.764 6  -6876715.206 5
  21451667.722    -7344990.383 6  -5683965.068 6
  20583737.464   -18105326.935 7 -14036478.756 8
  22181434.479   -12348138.862 6  -9552482.845 5
 94  2 17 21 13 59.9990000  0  7 27 18  2 28 29 19 31
  21830197.511   -13701454.707 6 -10608879.889 6
  19956473.644   -22379591.705 7 -17345602.718 7
  24129163.034    -2229299.112 5  -1656856.918 3
  23074662.136    -8934592.840 5  -6876204.089 5
  21463580.315    -7282385.378 6  -5635181.965 6
  20579258.675   -18128868.166 7 -14054822.558 8
  22170904.972   -12403439.735 6  -9595574.351 6
 94  2 17 21 14 29.9990000  0  7 27 18  2 28 29 19 31
  21817959.222   -13765705.986 6 -10658945.788 6
  19958645.050   -22368165.035 7 -17336698.822 7
  24110357.847    -2328146.125 4  -1733880.475 2
  23074917.839    -8933302.646 6  -6875198.713 5
  21475569.487    -7219352.819 6  -5586065.704 6
  20574834.870   -18152108.506 7 -14072931.905 8
  22160497.440   -12458187.112 6  -9638234.560 6
 94  2 17 21 14 59.9990000  0  7 27 18  2 28 29 19 31
  21805767.511   -13829796.798 6 -10708886.636 6
  19960919.933   -22356228.454 7 -17327397.604 7
  24091587.183    -2426803.060 5  -1810755.906 2
  23075269.034    -8931424.333 5  -6873735.070 5
  21487642.253    -7155930.822 6  -5536645.988 6
  20570464.284   -18175070.504 7 -14090824.360 8
  22150171.792   -12512441.109 6  -9680510.332 5
 94  2 17 21 15 29.9990000  0  7 27 18  2 28 29 19 31
  21793609.003   -13893725.113 6 -10758700.876 6
  19963287.026   -22343769.413 7 -17317689.267 7
  24072846.136    -2525267.534 5  -1887481.371 2
  23075740.050    -8928968.270 5  -6871821.232 5
  21499784.995    -7092108.987 6  -5486914.716 6
  20566146.308   -18197766.088 7 -14108509.220 8
  22139930.745   -12566220.062 6  -9722415.950 6
 94  2 17 21 15 59.9990000  0  7 27 18  2 28 29 19 31
  21781468.815   -13957490.346 6 -10808388.038 6
  19965759.792   -22330794.798 7 -17307579.181 7
  24054132.440    -2623564.904 5  -1964076.649 3
  23076307.058    -8925960.242 5  -6869477.297 5
  21512003.440    -7027904.336 6  -5436885.136 6
  20561870.183   -18220231.057 7 -14126014.379 8
  22129785.972   -12619549.854 6  -9763971.580 5
 94  2 17 21 16 29.9990000  0  7 27 18  2 28 29 19 31
  21769367.558   -14021084.337 6 -10857941.770 6
  19968328.636   -22317288.603 7 -17297054.883 7
  24035472.433    -2721681.056 5  -2040530.697 2
  23076989.511    -8922397.851 5  -6866701.386 5
  21524296.362    -6963309.818 6  -5386551.776 6
  20557636.972   -18242479.824 7 -14143351.074 8
  22119727.901   -12672418.625 6  -9805167.986 6
 94  2 17 21 16 59.9990000  0  7 27 18  2 28 29 19 31
  21757306.323   -14084485.355 6 -10907345.136 6
  19971009.519   -22303220.218 7 -17286092.512 7
  24016842.120    -2819573.973 5  -2116810.801 1
  23077775.831    -8918241.947 5  -6863462.991 5
  21536669.386    -6898282.059 6  -5335880.811 6
  20553444.144   -18264498.468 7 -14160508.455 8
  22109762.987   -12724775.530 6  -9845965.543 6
 94  2 17 21 17 29.9990000  0  7 27 18  2 28 29 19 31
  21745275.003   -14147712.565 6 -10956613.065 6
  19973785.097   -22288606.024 7 -17274704.840 7
  23998243.690    -2917260.993 5  -2192930.459 2
  23078680.979    -8913498.360 6  -6859766.672 5
  21549125.964    -6832836.158 6  -5284884.035 6
  20549299.659   -18286321.084 7 -14177513.086 8
  22099889.745   -12776625.796 6  -9886368.323 6
 94  2 17 21 17 59.9990000  0  7 27 18  2 28 29 19 31
  21733275.550   -14210775.835 6 -11005753.248 6
  19976668.784   -22273462.074 7 -17262904.365 7
  23979700.964    -3014747.843 5  -2268894.168 2
  23079703.800    -8908175.686 5  -6855619.133 5
  21561656.440    -6766992.664 6  -5233577.444 6
  20545178.745   -18307956.683 7 -14194371.989 8
  22090128.112   -12827957.616 6  -9926367.137 6
 94  2 17 21 18 29.9990000  0  7 27 18  2 28 29 19 31
  21721298.323   -14273658.389 6 -11054752.606 6
  19979648.144   -22257784.334 7 -17250687.952 7
  23961188.620    -3112005.273 4  -2344679.068 2
  23080824.253    -8902249.415 5  -6851001.204 5
  21574268.097    -6700729.888 6  -5181944.146 6
  20541109.526   -18329361.679 7 -14211051.207 8
  22080459.636   -12878748.036 6  -9965944.080 6
 94  2 17 21 18 59.9990000  0  7 27 18  2 28 29 19 31
  21709380.347   -14336342.533 6 -11103597.357 6
  19982740.190   -22241576.930 7 -17238058.813 7
  23942722.151    -3209026.244 4  -2420279.739 3
  23082071.136    -8895712.272 6  -6845907.302 5
  21586958.300    -6634033.984 6  -5129973.342 6
  20537081.980   -18350505.960 7 -14227527.278 8
  22070900.120   -12928995.111 6 -10005097.639 6
 94  2 17 21 19 29.9990000  0  7 27 18  2 28 29 19 31
  21697479.839   -14398839.710 6 -11152296.423 6
  19985919.104   -22224861.465 7 -17225033.784 7
  23924306.237    -3305841.260 4  -2495719.901 2
  23083419.409    -8888594.774 5  -6840361.165 5
  21599729.058    -6566929.790 6  -5077684.399 6
  20533108.940   -18371395.779 7 -14243805.065 8
  22061434.948   -12978722.824 6 -10043846.507 6
 94  2 17 21 19 59.9990000  0  7 27 18  2 28 29 19 31
  21685628.308   -14461136.889 6 -11200839.656 6
  19989192.519   -22207642.637 7 -17211616.524 7
  23905917.722    -3402448.984 4  -2570998.586 1
  23084882.519    -8880895.603 5  -6834361.773 5
  21612570.292    -6499422.615 6  -5025081.436 6
  20529177.034   -18392019.792 7 -14259875.734 8
  22052082.120   -13027926.768 6 -10082187.244 6
 94  2 17 21 20 29.9990000  0  7 27 18  2 28 29 19 31
  21673824.019   -14523217.005 6 -11249213.747 6
  19992569.089   -22189902.174 7 -17197792.809 7
  23887594.229    -3498822.407 4  -2646094.636 2
  23086466.386    -8872589.612 6  -6827889.530 5
  21625495.370    -6431491.673 6  -4972148.276 6
  20525306.854   -18412360.751 7 -14275725.843 8
  22042808.659   -13076596.141 6 -10120111.427 6
 94  2 17 21 20 59.9990000  0  7 27 18  2 28 29 19 31
  21662044.065   -14585068.602 6 -11297409.772 6
  19996052.784   -22171594.264 7 -17183526.901 7
  23869297.222    -3594931.975 4  -2720985.101 2
  23088172.448    -8863647.311 6  -6820921.460 5
  21638504.870    -6363120.194 6  -4918871.851 6
  20521493.073   -18432409.887 7 -14291348.552 8
  22033657.464   -13124703.134 6 -10157597.390 6
 94  2 17 21 21 29.9990000  0  7 27 18  2 28 29 19 31
  21650315.573   -14646682.603 6 -11345420.642 6
  19999650.761   -22152683.486 7 -17168791.235 7
  23851056.347    -3690751.135 4  -2795649.287 2
  23090001.487    -8854037.627 6  -6813433.354 5
  21651604.190    -6294297.137 6  -4865243.546 6
  20517732.214   -18452158.630 7 -14306737.176 8
  22024619.065   -13172213.239 6 -10194618.246 6
 94  2 17 21 21 59.9990000  0  7 27 18  2 28 29 19 31
  21638627.948   -14708149.968 6 -11393317.261 6
  20003349.901   -22133251.267 7 -17153649.253 7
  23832865.620    -3786333.842 4  -2870129.221 3
  23091943.276    -8843831.819 5  -6805480.731 5
  21664769.479    -6225103.177 6  -4811326.221 6
  20514023.073   -18471689.036 7 -14321955.679 8
  22015670.464   -13219216.462 6 -10231244.122 6
 94  2 17 21 22 29.9990000  0  7 27 18  2 28 29 19 31
  21626952.542   -14769521.977 6 -11441139.585 6
  20007146.839   -22113326.584 7 -17138123.530 6
  23814720.354    -3881705.899 4  -2944445.022 2
  23093991.370    -8833062.066 6  -6797088.665 5
  21678009.425    -6155562.554 6  -4757138.767 6
  20510335.542   -18491033.069 7 -14337028.943 8
  22006815.706   -13265742.264 6 -10267497.965 6
 94  2 17 21 22 59.9990000  0  7 27 18  2 28 29 19 31
  21615279.526   -14830791.841 6 -11488882.314 6
  20011029.386   -22092908.192 7 -17122213.107 7
  23796597.792    -3976888.640 4  -3018613.303 4
  23096139.909    -8821736.606 5  -6788263.590 6
  21691305.456    -6085668.768 6  -4702676.128 6
  20506692.573   -18510192.042 7 -14351958.011 8
  21998052.089   -13311787.486 6 -10303377.338 6
 94  2 17 21 23 29.9990000  0  7 27 18  2 28 29 19 31
  21603663.565   -14891938.037 6 -11536528.676 6
  20015006.440   -22072002.105 7 -17105922.654 6
  23778538.042    -4071883.643 4  -3092635.279 3
  23098393.300    -8809854.026 5  -6779004.406 5
  21704673.339    -6015414.240 6  -4647932.382 6
  20503081.237   -18529151.879 7 -14366731.903 7
  21989392.019   -13357349.952 6 -10338880.528 6
 94  2 17 21 23 59.9990000  0  7 27 18  2 28 29 19 31
  21592047.831   -14952927.055 6 -11584052.559 6
  20019079.940   -22050583.575 7 -17089232.898 7
  23760488.972    -4166681.800 5  -3166503.880 3
  23100773.175    -8797403.421 5  -6769302.594 5
  21718118.917    -5944775.756 6  -4592889.464 6
  20499516.839   -18547885.038 7 -14381329.173 7
  21980814.331   -13402407.783 6 -10373990.489 6
 94  2 17 21 24 29.9990000  0  7 27 18  2 28 29 19 31
  21580471.862   -15013755.491 6 -11631451.324 6
  20023258.628   -22028645.055 7 -17072137.955 7
  23742465.214    -4261313.738 4  -3240242.968 3
  23103250.175    -8784397.221 5  -6759167.861 5
  21731634.901    -5873760.189 6  -4537552.705 6
  20496001.675   -18566391.106 7 -14395749.480 7
  21972338.206   -13446937.532 6 -10408688.945 6
 94  2 17 21 24 59.9990000  0  7 27 18  2 28 29 19 31
  21568936.706   -15074405.995 6 -11678711.436 6
  20027529.761   -22006180.514 7 -17054633.133 7
  23724494.581    -4355782.046 5  -3313854.541 3
  23105824.597    -8770840.757 5  -6748604.366 5
  21745215.597    -5802379.758 6  -4481931.640 6
  20492516.503   -18584664.400 7 -14409988.399 7
  21963965.284   -13490935.207 6 -10442972.782 6
 94  2 17 21 25 29.9990000  0  7 27 18  2 28 29 19 31
  21557419.300   -15134885.222 6 -11725838.083 6
  20031905.214   -21983199.891 7 -17036726.169 7
  23706560.050    -4450063.868 5  -3387320.806 4
  23108510.034    -8756727.467 5  -6737606.982 5
  21758869.573    -5730646.219 6  -4426035.438 6
  20489088.417   -18602697.229 7 -14424039.958 7
  21955700.433   -13534387.151 6 -10476831.363 6
 94  2 17 21 25 59.9990000  0  7 27 18  2 28 29 19 31
  21545940.073   -15195209.547 6 -11772844.022 6
  20036372.308   -21959711.117 7 -17018423.235 7
  23688646.479    -4544159.444 5  -3460641.956 5
  23111308.300    -8742071.504 5  -6726186.740 5
  21772582.183    -5658563.503 6  -4369867.146 6
  20485696.472   -18620509.523 7 -14437919.662 7
  21947530.854   -13577294.191 6 -10510265.342 6
 94  2 17 21 26 29.9990000  0  7 27 18  2 28 29 19 31
  21534490.737   -15255384.678 6 -11819733.700 6
  20040936.612   -21935732.480 7 -16999738.595 7
  23670786.354    -4638065.823 5  -3533815.660 4
  23114196.245    -8726874.691 5  -6714345.071 5
  21786361.815    -5586132.979 6  -4313427.825 6
  20482345.644   -18638116.798 7 -14451639.619 7
  21939473.714   -13619671.031 6 -10543286.169 6
 94  2 17 21 26 59.9990000  0  7 27 18  2 28 29 19 31
  21523064.456   -15315394.930 6 -11866494.901 6
  20045595.550   -21911261.706 7 -16980670.468 7
  23652944.886    -4731758.449 5  -3606822.819 3
  23117187.909    -8711116.402 5  -6702065.873 5
  21800226.644    -5513332.776 6  -4256700.459 6
  20479036.073   -18655517.975 7 -14465198.966 8
  21931509.417   -13661533.952 6 -10575906.547 6
 94  2 17 21 27 29.9990000  0  7 27 18  2 28 29 19 31
  21511683.214   -15375247.621 6 -11913133.335 6
  20050342.417   -21886313.934 7 -16961230.652 7
  23635169.987    -4825235.834 5  -3679662.278 5
  23120299.136    -8694794.455 5  -6689347.516 5
  21814143.511    -5440150.625 6  -4199675.451 6
  20475770.347   -18672722.657 7 -14478605.201 8
  21923635.503   -13702887.085 6 -10608129.675 6
 94  2 17 21 27 59.9990000  0  8 27 18  2 28 16 29 19 31
  21500319.034   -15434956.714 6 -11959659.862 6
  20055180.175   -21860884.254 7 -16941415.329 7
  23617421.925    -4918521.289 5  -3752352.156 4
  23123514.589    -8677926.070 5  -6676203.364 5
  24466313.315      -71618.853 4
  21828136.690    -5366596.854 6  -4142360.887 6
  20472526.769   -18689752.717 7 -14491875.378 7
  21915852.089   -13743743.101 6 -10639965.433 6
 94  2 17 21 28 29.9990000  0  8 27 18  2 28 16 29 19 31
  21488987.573   -15494513.719 6 -12006067.886 6
  20060112.433   -21834962.931 7 -16921216.908 7
  23599704.159    -5011608.549 5  -3824887.633 4
  23126819.448    -8660493.393 5  -6662619.503 5
  24452764.128     -142816.818 3        -0.17711
  21842205.683    -5292678.299 6  -4084762.066 6
  20469319.698   -18706596.716 7 -14505000.558 8
  21908176.979   -13784094.818 6 -10671408.223 6
 94  2 17 21 28 59.9990000  0  8 27 18  2 28 16 29 19 31
  21477682.636   -15553938.234 6 -12052372.672 6
  20065135.495   -21808557.794 7 -16900641.495 7
  23582032.222    -5104497.228 5  -3897268.357 4
  23130249.253    -8642510.564 5  -6648606.959 5
  24439290.495     -213592.487 3    -55149.943 1
  21856336.222    -5218429.500 6  -4026905.911 6
  20466152.370   -18723263.546 7 -14517987.690 7
  21900595.136   -13823934.264 6 -10702451.855 6
 94  2 17 21 29 29.9990000  0  8 27 18  2 28 16 29 19 31
  21466401.315   -15613215.267 6 -12098562.542 6
  20070258.667   -21781647.010 7 -16879672.063 7
  23564391.198    -5197166.355 5  -3969478.008 4
  23133772.784    -8623979.563 5  -6634167.236 5
  24425907.292     -283930.429 3
  21870521.284    -5143860.755 6  -3968800.466 6
  20463014.019   -18739737.745 7 -14530824.719 7
  21893120.940   -13863227.245 6 -10733069.673 6
 94  2 17 21 29 59.9990000  0  8 27 18  2 28 16 29 19 31
  21455153.362   -15672336.668 6 -12144631.131 6
  20075483.433   -21754198.066 7 -16858283.286 7
  23546805.151    -5289607.587 5  -4041510.095 4
  23137405.128    -8604886.928 5  -6619289.894 5
  24412608.284     -353828.421 4
  21884779.089    -5068968.824 6  -3910443.168 6
  20459911.104   -18756014.078 7 -14543507.572 7
  21885744.190   -13901958.276 6 -10763249.622 6
 94  2 17 21 30 29.9990000  0  8 27 18  2 28 16 29 19 31
  21443926.886   -15731295.647 6 -12190573.163 6
  20080804.464   -21726217.265 7 -16836480.079 7
  23529259.909    -5381806.158 5  -4113353.098 4
  23141146.917    -8585226.808 5  -6603970.345 5
  24399391.597     -423288.887 5
  21899088.269    -4993747.047 6  -3851828.850 6
  20456859.964   -18772086.477 7 -14556031.513 7
  21878478.433   -13940126.427 6 -10792990.963 6
 94  2 17 21 30 59.9990000  0  8 27 18  2 28 16 29 19 31
  21432736.690   -15790091.418 6 -12236388.031 6
  20086231.112   -21697716.066 7 -16814271.370 7
  23511759.589    -5473763.893 5  -4185008.431 5
  23145002.229    -8564998.093 5  -6588207.710 5
  24386260.386     -492302.002 4        -0.49711
  21913465.433    -4918183.399 6  -3792948.145 6
  20453835.433   -18787948.962 7 -14568391.883 7
  21871327.269   -13977724.540 6 -10822288.115 6
 94  2 17 21 31 29.9990000  0  8 27 18  2 28 16 29 19 31
  21421579.198   -15848727.162 6 -12282078.201 6
  20091748.769   -21668699.209 7 -16791660.848 7
  23494305.565    -5565496.907 5  -4256488.670 4
  23148954.245    -8544197.729 5  -6571999.624 5
  24373196.440     -560871.411 3    -53431.074 1
  21927916.917    -4842258.780 6  -3733786.163 6
  20450859.448   -18803600.824 7 -14580588.119 7
  21864282.690   -14014760.142 6 -10851146.949 6
 94  2 17 21 31 59.9990000  0  8 27 18  2 28 16 29 19 31
  21410444.175   -15907217.803 6 -12327655.309 6
  20097367.112   -21639183.418 7 -16768661.552 7
  23476889.245    -5657024.381 5  -4327808.729 5
  23153026.948    -8522816.929 5  -6555339.263 5
  24360246.128     -628996.195 3   -106515.176 1
  21942439.120    -4765963.707 6  -3674335.510 6
  20447917.698   -18819045.398 7 -14592622.846 7
  21857333.847   -14051239.740 6 -10879572.530 6
 94  2 17 21 32 29.9990000  0  8 27 18  2 28 16 29 19 31
  21399345.722   -15965569.209 6 -12373123.920 6
  20103076.917   -21609190.559 7 -16745290.509 7
  23459502.589    -5748358.838 5  -4398978.391 4
  23157203.401    -8500873.503 5  -6538240.449 5
  24347348.331     -696683.167 3   -159258.238 1
  21957024.620    -4689310.113 6  -3614605.499 6
  20445017.519   -18834281.589 7 -14604495.200 7
  21850501.229   -14087181.054 6 -10907578.679 6
 94  2 17 21 32 59.9990000  0  7 27 18  2 28 29 19 31
  21388278.737   -16023766.886 6 -12418472.747 6
  20108873.925   -21578711.483 7 -16721540.597 7
  23442159.144    -5839502.813 5  -4469999.632 4
  23161484.730    -8478357.006 5  -6520695.087 5
  21971687.519    -4612300.331 6  -3554597.928 6
  20442160.940   -18849304.922 7 -14616201.687 7
  21843772.136   -14122583.267 6 -10935164.764 6
 94  2 17 21 33 29.9990000  0  7 27 18  2 28 29 19 31
  21377214.690   -16081808.017 6 -12463699.600 6
  20114772.651   -21547720.831 7 -16697392.055 7
  23424851.815    -5930449.618 5  -4540867.225 5
  23165878.222    -8455277.287 5  -6502710.855 5
  21986409.253    -4534929.627 6  -3494309.134 6
  20439341.847   -18864114.949 7 -14627741.973 7
  21837129.308   -14157448.521 6 -10962332.442 6
 94  2 17 21 33 59.9990000  0  7 27 18  2 28 29 19 31
  21366209.331   -16139681.942 6 -12508796.151 6
  20120770.222   -21516207.805 7 -16672836.479 7
  23407590.823    -6021180.974 5  -4611566.923 5
  23170377.362    -8431637.359 5  -6484290.117 5
  22001200.479    -4457197.738 6  -3433738.886 6
  20436564.339   -18878709.007 7 -14639113.975 7
  21830599.011   -14191776.591 6 -10989081.531 6
 94  2 17 21 34 29.9990000  0  7 27 18  2 28 29 19 31
  21355230.370   -16197393.346 6 -12553766.064 6
  20126865.229   -21484173.720 7 -16647874.871 7
  23390362.128    -6111685.458 5  -4682089.839 5
  23174978.198    -8407448.123 5  -6465441.341 5
  22016052.112    -4379124.266 6  -3372902.472 5
  20433828.339   -18893089.810 7 -14650319.790 7
  21824171.425   -14225576.240 6 -11015418.868 6
 94  2 17 21 34 59.9990000  0  7 27 18  2 28 29 19 31
  21344276.979   -16254945.200 6 -12598611.652 7
  20133060.159   -21451621.663 7 -16622509.660 7
  23373187.737    -6201949.497 5  -4752425.388 5
  23179679.948    -8382713.977 5  -6446167.964 5
  22030973.190    -4300706.038 6  -3311797.423 6
  20431135.964   -18907251.490 7 -14661354.862 7
  21817836.878   -14258834.183 6 -11041334.098 6
 94  2 17 21 35 29.9990000  0  7 27 18  2 28 29 19 31
  21333356.675   -16312351.867 6 -12643344.105 6
  20139352.776   -21418546.692 7 -16596736.973 7
  23356059.948    -6291974.747 5  -4822574.861 5
  23184491.206    -8357453.002 5  -6426484.081 5
  22045968.019    -4221941.969 6  -3250422.883 5
  20428485.714   -18921185.553 7 -14672212.582 7
  21811612.417   -14291537.660 6 -11066817.273 6
 94  2 17 21 35 59.9990000  0  7 27 18  2 28 29 19 31
  21322459.175   -16369619.502 6 -12687968.228 6
  20145743.136   -21384972.970 7 -16570575.660 7
  23338970.019    -6381771.367 5  -4892546.185 5
  23189404.854    -8331668.888 5  -6406392.563 5
  22061006.581    -4142865.350 6  -3188804.794 5
  20425869.737   -18934900.269 7 -14682899.373 7
  21805496.839   -14323692.602 6 -11091873.019 6
 94  2 17 21 36 29.9990000  0  7 27 18  2 28 29 19 31
  21311585.401   -16426742.752 6 -12732479.824 7
  20152222.409   -21350920.113 7 -16544040.981 7
  23321923.495    -6471345.985 5  -4962344.517 5
  23194401.190    -8305357.702 5  -6385890.347 5
  22076116.034    -4063476.540 6  -3126943.451 5
  20423310.237   -18948389.351 7 -14693410.353 7
  21799486.104   -14355287.276 6 -11116492.214 6
 94  2 17 21 36 59.9990000  0  7 27 18  2 28 29 19 31
  21300754.229   -16483697.567 6 -12776860.186 7
  20158797.667   -21316372.921 7 -16517121.119 7
  23304916.550    -6560690.887 5  -5031963.861 5
  23199515.175    -8278506.888 5  -6364967.659 5
  22091283.995    -3983748.086 6  -3064817.439 5
  20420785.542   -18961647.227 7 -14703741.165 7
  21793588.620   -14386298.118 6 -11140656.482 6
 94  2 17 21 37 29.9990000  0  8 27 18  2 28 16 29 19 31
  21289944.167   -16540475.408 6 -12821102.642 7
  20165465.128   -21281324.058 7 -16489810.336 7
  23287969.886    -6649798.185 5  -5101398.062 4
  23204728.136    -8251097.418 5  -6343609.643 5
  24223259.315      -63115.641 3
  22106528.222    -3903683.110 6  -3002429.204 5
  20418300.401   -18974680.607 7 -14713897.048 7
  21787790.089   -14416720.867 6 -11164362.498 6
 94  2 17 21 37 59.9990000  0  8 27 18  2 28 16 29 19 31
  21279174.175   -16597068.868 6 -12865201.410 7
  20172231.183   -21245794.451 7 -16462124.954 7
  23271052.073    -6738659.354 5  -5170640.457 5
  23210057.292    -8223112.028 5  -6321802.877 5
  24211337.448     -125758.581 4        -0.48212
  22121822.909    -3823287.880 6  -2939783.632 5
  20415863.925   -18987500.883 7 -14723886.873 7
  21782111.253   -14446567.809 6 -11187619.832 6
 94  2 17 21 38 29.9990000  0  8 27 18  2 28 16 29 19 31
  21268436.620   -16653500.151 6 -12909173.809 7
  20179076.245   -21209794.414 7 -16434072.998 7
  23254194.331    -6827287.420 5  -5239701.231 5
  23215493.472    -8194559.728 5  -6299554.351 5
  24199503.683     -187941.149 3    -48454.388 2
  22137187.589    -3742557.809 6  -2876877.129 5
  20413464.987   -19000117.208 7 -14733717.786 7
  21776537.581   -14475847.197 6 -11210434.919 6
 94  2 17 21 38 59.9990000  0  8 27 18  2 28 16 29 19 31
  21257730.730   -16709762.221 6 -12953014.343 7
  20186027.761   -21173289.134 7 -16405627.359 7
  23237373.269    -6915672.230 5  -5308572.461 4
  23221026.519    -8165435.212 5  -6276859.937 5
  24187757.479     -249653.078 4    -96541.521 1
  22152611.175    -3661497.606 6  -2813713.390 5
  20411100.315   -19012524.512 7 -14743385.819 7
  21771080.073   -14504547.122 6 -11232798.480 6
 94  2 17 21 39 29.9990000  0  8 27 18  2 28 16 29 19 31
  21247053.604   -16765866.639 6 -12996732.038 7
  20193064.597   -21136287.684 7 -16376795.083 7
  23220587.128    -7003830.520 5  -5377267.163 4
  23226681.558    -8135741.382 5  -6253721.901 5
  24176101.245     -310888.033 5   -144257.040 1
  22168097.683    -3580122.519 6  -2750304.291 6
  20408776.698   -19024722.611 7 -14752890.836 7
  21765731.245   -14532672.444 6 -11254714.293 6
 94  2 17 21 39 59.9990000  0  8 27 18  2 28 16 29 19 31
  21236410.323   -16821802.904 6 -13040318.711 7
  20200204.034   -21098785.307 7 -16347572.477 7
  23203866.425    -7091767.977 5  -5445789.802 4
  23232435.698    -8105478.638 5  -6230140.559 5
  24164546.862     -371638.430 5   -191594.982 1
  22183642.433    -3498421.978 6  -2686641.582 5
  20406494.862   -19036700.389 7 -14762224.163 7
  21760479.003   -14560222.387 6 -11276181.755 6
 94  2 17 21 40 29.9990000  0  8 27 18  2 28 16 29 19 31
  21225801.776   -16877574.131 6 -13083776.771 7
  20207435.644   -21060768.164 7 -16317948.753 7
  23187174.276    -7179491.596 5  -5514145.822 3
  23238302.862    -8074665.466 5  -6206130.329 5
  24153080.144     -431901.296 5   -238553.010 1
  22199256.370    -3416390.309 6  -2622720.859 5
  20404263.519   -19048465.354 7 -14771391.666 7
  21755350.784   -14587186.579 6 -11297192.801 6
 94  2 17 21 40 59.9990000  0  8 27 18  2 28 16 29 19 31
  21215219.050   -16933175.072 6 -13127102.157 7
  20214768.073   -21022225.086 7 -16287915.211 7
  23170519.729    -7266991.852 5  -5582327.771 4
  23244279.534    -8043310.212 5  -6181697.694 5
  24141705.073     -491677.605 5   -285131.855 1
  22214924.050    -3334025.298 6  -2558540.379 5
  20402058.534   -19060029.638 7 -14780402.808 7
  21750335.823   -14613570.046 6 -11317751.326 6
 94  2 17 21 41 29.9990000  0  8 27 18  2 28 16 29 19 31
  21204667.620   -16988609.250 6 -13170297.604 7
  20222200.058   -20983171.514 7 -16257483.882 7
  23153907.776    -7354254.032 5  -5650324.227 3
  23250342.230    -8011407.627 5  -6156838.563 5
  24130418.792     -550974.753 3   -331337.460 1
  22230665.612    -3251308.064 6  -2494085.445 5
  20399901.667   -19071390.717 7 -14789255.598 7
  21745417.433   -14639383.730 6 -11337865.868 6
 94  2 17 21 41 59.9990000  0  8 27 18  2 28 16 29 19 31
  21194145.855   -17043877.723 6 -13213363.921 7
  20229729.175   -20943606.515 7 -16226654.033 7
  23137365.542    -7441257.424 5  -5718119.013 4
  23256515.065    -7978961.937 5  -6131556.257 5
  24119229.214     -609803.388 5   -377177.863 1
  22246478.081    -3168233.749 6  -2429352.278 5
  20397780.261   -19082548.825 7 -14797950.226 7
  21740620.269   -14664627.666 6 -11357536.445 6
 94  2 17 21 42 29.9990000  0  8 27 18  2 28 16 29 19 31
  21183648.620   -17099002.716 6 -13256318.441 7
  20237354.534   -20903543.936 7 -16195436.465 7
  23120854.659    -7528002.783 5  -5785712.757 4
  23262788.401    -7945990.723 5  -6105864.417 5
  24108116.675     -668176.900 3
  22262353.769    -3084814.868 6  -2364350.606 5
  20395691.761   -19093515.013 7 -14806495.311 7
  21735918.417   -14689305.307 6 -11376765.745 6
 94  2 17 21 42 59.9990000  0  8 27 18  2 28 16 29 19 31
  21173194.878   -17153982.814 6 -13299160.060 7
  20245071.042   -20862991.075 7 -16163836.861 7
  23104389.925    -7614483.209 5  -5853100.036 4
  23269161.300    -7912489.920 5  -6079759.925 5
  24097096.440     -726093.289 4        -0.32911
  22278288.597    -3001070.038 6  -2299094.948 5
  20393640.714   -19104275.790 7 -14814880.347 7
  21731344.456   -14713414.003 6 -11395551.717 6
 94  2 17 21 43 29.9990000  0  8 27 18  2 28 16 29 19 31
  21162759.448   -17208811.488 7 -13341883.687 7
  20252878.511   -20821968.689 7 -16131871.375 7
  23087982.511    -7700701.592 5  -5920283.139 4
  23275641.690    -7878461.713 5  -6053244.479 5
  24086156.980     -783545.211 3    -44768.058 1
  22294276.511    -2917024.511 6  -2233605.001 5
  20391639.401   -19114822.079 7 -14823098.231 7
  21726856.261   -14736951.107 6 -11413892.284 6
 94  2 17 21 43 59.9990000  0  8 27 18  2 28 16 29 19 31
  21152362.808   -17263473.068 7 -13384477.116 7
  20260774.222   -20780462.267 7 -16099528.728 7
  23071631.183    -7786655.592 5  -5987260.234 4
  23282219.261    -7843900.177 5  -6026313.447 5
  24075325.253     -840505.296 3    -89152.463 2
  22310329.323    -2832683.821 6  -2167885.041 5
  20389670.190   -19125151.766 7 -14831147.334 7
  21722495.479   -14759884.081 6 -11431762.093 6
 94  2 17 21 44 29.9990000  0  8 27 18  2 28 16 29 19 31
  21142002.792   -17317960.690 7 -13426934.988 7
  20268766.401   -20738465.609 7 -16066804.073 7
  23055325.480    -7872346.649 5  -6054032.431 5
  23288888.175    -7808801.217 5  -5998963.623 5
  24064580.198     -896958.913 3   -133142.261 2
  22326438.112    -2748055.847 6  -2101941.245 5
  20387744.401   -19135252.796 7 -14839018.258 7
  21718244.409   -14782203.692 6 -11449153.962 6
 94  2 17 21 44 59.9990000  0  8 27 18  2 28 16 29 19 31
  21131652.401   -17372278.972 6 -13469260.910 7
  20276853.503   -20695987.219 7 -16033704.044 7
  23039064.886    -7957795.782 5  -6120616.107 5
  23295680.159    -7773164.773 5  -5971194.989 5
  24053936.979     -952908.804 2   -176739.547 3
  22342589.917    -2663151.749 6  -2035782.275 5
  20385864.464   -19145135.973 7 -14846719.448 7
  21714105.729   -14803922.277 6 -11466077.497 6
 94  2 17 21 45 29.9990000  0  8 27 18  2 28 16 29 19 31
  21121356.144   -17426422.691 7 -13511450.802 7
  20285027.831   -20653018.394 7 -16000221.853 7
  23022850.284    -8042998.543 5  -6187007.830 5
  23302564.019    -7736969.037 5  -5942990.551 5
  24043385.323    -1008341.323 3   -219933.612 2
  22358803.706    -2577932.724 6  -1969377.912 5
  20384028.714   -19154788.255 7 -14854240.706 7
  21710091.300   -14825029.049 6 -11482524.295 6
 94  2 17 21 45 59.9990000  0  8 27 18  2 28 16 29 19 31
  21111086.378   -17480406.236 7 -13553515.883 7
  20293299.597   -20609554.305 7 -15966353.754 7
  23006683.651    -8127960.673 5  -6253212.044 5
  23309565.253    -7700205.286 5  -5914343.499 5
  24032943.909    -1063263.889 3   -262730.349 2
  22375092.011    -2492384.431 6  -1902716.987 5
  20382231.456   -19164214.305 7 -14861585.668 7
  21706195.847   -14845521.899 6 -11498492.708 6
 94  2 17 21 46 29.9990000  0  8 27 18  2 28 16 29 19 31
  21100830.683   -17534252.303 7 -13595473.846 7
  20301661.589   -20565607.202 7 -15932109.277 7
  22990557.487    -8212700.008 5  -6319242.637 5
  23316660.261    -7662881.520 5  -5885260.059 5
  24022576.097    -1117698.844 3   -305147.120 3
  22391430.167    -2406526.633 6  -1835814.895 5
  20380484.190   -19173423.368 7 -14868761.553 7
  21702404.159   -14865437.896 6 -11514011.624 6
 94  2 17 21 46 59.9990000  0  8 27 18  2 28 16 29 19 31
  21090621.058   -17587959.879 7 -13637323.882 7
  20310115.573   -20521188.725 7 -15897497.487 7
  22974480.628    -8297222.423 5  -6385104.211 5
  23323868.745    -7625013.995 5  -5855752.925 5
  24012311.479    -1171650.720 3   -347187.443 3
  22407820.370    -2320367.041 6  -1768677.632 5
  20378765.292   -19182441.315 7 -14875788.522 7
  21698721.175   -14884790.558 6 -11529091.582 6
 94  2 17 21 47 29.9990000  0  8 27 18  2 28 16 29 19 31
  21080416.034   -17641513.309 7 -13679053.808 7
  20318658.667   -20476288.560 7 -15862510.362 7
  22958428.097    -8381513.747 5  -6450785.719 5
  23331177.003    -7586619.593 5  -5825835.264 5
  24002135.472    -1225113.351 5   -388846.526 2
  22424266.339    -2233923.331 5  -1701318.970 5
  20377087.628   -19191265.621 7 -14882664.595 7
  21695148.315   -14903580.327 6 -11543732.923 6
 94  2 17 21 47 59.9990000  0  8 27 18  2 28 16 29 19 31
  21070261.495   -17694892.877 7 -13720648.260 7
  20327297.933   -20430888.908 7 -15827134.031 7
  22942437.354    -8465569.593 5  -6516283.730 5
  23338588.519    -7547715.026 5  -5795520.051 5
  23992053.784    -1278085.812 5   -430123.681 2
  22440765.495    -2147216.924 5  -1633755.617 5
  20375444.214   -19199906.012 7 -14889397.363 7
  21691677.120   -14921806.579 6 -11557935.167 6
 94  2 17 21 48 29.9990000  0  8 27 18  2 28 16 29 19 31
  21060152.714   -17748079.647 7 -13762092.473 7
  20336035.136   -20384982.210 7 -15791362.596 7
  22926486.940    -8549391.555 5  -6581599.507 5
  23346076.597    -7508321.406 5  -5764823.731 5
  23982073.675    -1330564.470 5   -471016.053 2
  22457320.425    -2060241.125 5  -1565982.357 5
  20373832.722   -19208354.437 7 -14895980.541 7
  21688313.761   -14939473.005 6 -11571701.194 6
 94  2 17 21 48 59.9990000  0  8 27 18  2 28 16 29 19 31
  21050053.167   -17801062.108 6 -13803377.486 7
  20344864.347   -20338564.105 7 -15755192.664 7
  22910581.737    -8632973.493 5  -6646728.262 5
  23353657.800    -7468443.679 5  -5733750.188 5
  23972170.940    -1382551.141 5   -511525.132 1
  22473927.144    -1972974.426 5  -1497982.410 5
  20372268.542   -19216590.372 7 -14902398.149 7
  21685063.019   -14956550.153 6 -11585008.039 6
 94  2 17 21 49 29.9990000  0  8 27 18  2 28 16 29 19 31
  21040002.917   -17853858.852 7 -13844517.786 7
  20353798.495   -20291632.592 7 -15718622.671 7
  22894716.487    -8716321.185 5  -6711674.469 5
  23361353.729    -7428066.275 5  -5702287.351 5
  23962374.550    -1434053.341 5   -551656.598 1
  22490587.628    -1885397.465 5  -1429740.712 5
  20370742.862   -19224596.914 7 -14908636.987 7
  21681926.604   -14973033.296 6 -11597852.019 6
 94  2 17 21 49 59.9990000  0  8 27 18  2 28 16 29 19 31
  21029997.854   -17906507.338 7 -13885542.556 7
  20362821.886   -20244215.041 7 -15681673.961 7
  22878896.409    -8799446.657 5  -6776447.532 5
  23369130.300    -7387195.736 5  -5670440.229 5
  23952656.956    -1485094.343 5   -591428.706 1
  22507317.206    -1797502.906 5  -1361251.539 5
  20369262.870   -19232388.751 7 -14914708.530 7
  21678903.331   -14988939.233 6 -11610246.250 6
 94  2 17 21 50 29.9990000  0  8 27 18  2 28 16 29 19 31
  21019993.229   -17959014.865 7 -13926457.474 7
  20371932.815   -20196325.172 7 -15644357.202 7
  22863128.886    -8882327.818 5  -6841030.221 5
  23376999.761    -7345818.882 5  -5638198.558 5
  23943040.589    -1535657.674 5   -630828.654 1
  22524102.784    -1709293.375 5  -1292516.927 5
  20367825.003   -19239944.684 7 -14920596.263 7
  21675988.901   -15004259.316 6 -11622183.959 6
 94  2 17 21 50 59.9990000  0  8 27 18  2 28 16 29 19 31
  21010036.237   -18011389.936 7 -13967269.189 7
  20381136.440   -20147975.905 7 -15606682.475 7
  22847403.940    -8964957.400 5  -6905416.876 5
  23384974.737    -7303920.790 5  -5605550.737 5
  23933508.995    -1585744.381 5   -669857.189 2
  22540947.011    -1620797.075 5  -1223558.865 5
  20366428.019   -19247276.870 7 -14926309.646 7
  21673183.089   -15018977.475 6 -11633652.635 6
 94  2 17 21 51 29.9990000  0  8 27 18  2 28 16 29 19 31
  21000099.448   -18063615.348 7 -14007964.286 7
  20390423.495   -20099154.993 7 -15568640.234 7
  22831726.808    -9047308.206 5  -6969586.314 5
  23393044.003    -7261488.278 5  -5572486.480 5
  23924072.472    -1635323.404 5   -708490.108 1
  22557834.573    -1532014.954 5  -1154378.073 5
  20365073.362   -19254394.321 7 -14931855.711 7
  21670504.198   -15033081.246 6 -11644642.572 6
 94  2 17 21 51 59.9990000  0  8 27 18  2 28 16 29 19 31
  20990194.081   -18115676.397 7 -14048531.308 7
  20399803.417   -20049865.475 7 -15530232.845 7
  22816110.815    -9129373.189 5  -7033533.021 5
  23401223.409    -7218533.952 5  -5539015.616 4
  23914739.878    -1684394.665 4   -746727.390 1
  22574789.222    -1442977.839 6  -1084998.598 5
  20363766.058   -19261312.008 7 -14937246.114 7
  21667937.112   -15046566.770 6 -11655150.763 6
 94  2 17 21 52 29.9990000  0  8 27 18  2 28 16 29 19 31
  20980322.019   -18167573.075 7 -14088970.253 7
  20409271.581   -20000108.639 7 -15491461.305 7
  22800551.620    -9211167.912 5  -7097269.149 5
  23409495.198    -7175049.450 5  -5505131.611 5
  23905494.151    -1732963.669 4   -784573.334 1
  22591769.300    -1353703.410 5  -1015434.219 5
  20362476.651   -19268042.825 7 -14942490.894 7
  21665488.214   -15059417.510 6 -11665164.303 6
 94  2 17 21 52 59.9990000  0  8 27 18  2 28 16 29 19 31
  20970468.698   -18219321.587 7 -14129293.742 7
  20418833.519   -19949887.488 7 -15452327.979 7
  22785045.253    -9292711.699 5  -7160809.715 5
  23417874.315    -7131040.683 5  -5470839.120 4
  23896338.245    -1781043.953 3   -822038.391 1
  22608808.581    -1264172.773 5   -945670.180 5
  20361223.862   -19274605.252 7 -14947604.462 7
  21663168.300   -15071637.292 6 -11674686.195 6
 94  2 17 21 53 29.9990000  0  8 27 18  2 28 16 29 19 31
  20960648.261   -18270928.626 7 -14169506.988 7
  20428474.597   -19899200.229 7 -15412831.436 7
  22769571.112    -9374004.388 5  -7224154.623 5
  23426350.120    -7086516.864 5  -5436145.288 5
  23887280.394    -1828631.349 3   -859119.443 1
  22625897.565    -1174367.784 5   -875692.361 5
  20360015.729   -19280992.652 7 -14952581.651 7
  21660952.573   -15083257.142 6 -11683740.613 6
 94  2 17 21 53 59.9990000  0  8 27 18  2 28 16 29 19 31
  20950857.386   -18322411.163 7 -14209623.215 7
  20438207.120   -19848070.233 7 -15372989.909 7
  22754135.784    -9455067.731 5  -7287320.814 5
  23434917.683    -7041484.492 5  -5401055.185 4
  23878326.073    -1875737.066 3   -895825.135 1
  22643033.956    -1084294.666 5   -805505.618 5
  20358834.120   -19287192.257 7 -14957412.512 7
  21658853.964   -15094299.726 6 -11692345.210 6
 94  2 17 21 54 29.9990000  0  8 27 18  2 28 16 29 19 31
  20941077.573   -18373760.661 7 -14249635.794 7
  20448018.800   -19796496.191 7 -15332802.374 7
  22738755.065    -9535898.022 6  -7350305.409 6
  23443585.917    -6995937.557 5  -5365564.104 4
  23869450.940    -1922336.969 3   -932136.693 1
  22660233.745     -993927.381 5   -735089.642 5
  20357696.823   -19293180.149 7 -14962078.410 7
  21656853.651   -15104764.849 6 -11700499.834 6
 94  2 17 21 54 59.9990000  0  8 27 18  2 28 16 29 19 31
  20931337.714   -18424967.333 7 -14289537.078 7
  20457916.019   -19744485.839 7 -15292274.851 7
  22723418.706    -9616490.333 6  -7413104.556 5
  23452340.183    -6949902.178 5  -5329692.407 5
  23860690.573    -1968422.489 3   -968047.528 1
  22677487.237     -903265.671 5   -664444.252 5
  20356595.636   -19298947.480 7 -14966572.444 7
  21654972.159   -15114689.248 6 -11708233.113 6
 94  2 17 21 55 29.9990000  0  8 27 18  2 28 16 29 19 31
  20921621.128   -18476004.043 7 -14329305.923 7
  20467902.284   -19692028.264 7 -15251398.850 7
  22708123.112    -9696838.221 6  -7475713.243 5
  23461192.034    -6903373.191 5  -5293436.121 4
  23852008.886    -2013995.486 3  -1003558.884 1
  22694798.229     -812323.086 5   -593580.000 5
  20355539.909   -19304489.374 7 -14970890.810 7
  21653190.128   -15124073.311 6 -11715545.361 6
 94  2 17 21 55 59.9990000  0  8 27 18  2 28 16 29 19 31
  20911948.729   -18526850.314 7 -14368926.364 7
  20477967.761   -19639119.344 7 -15210171.137 7
  22692891.894    -9776938.519 6  -7538128.992 5
  23470147.839    -6856342.908 5  -5256789.207 3
  23843437.214    -2059050.391 3  -1038666.626 1
  22712148.050     -721106.597 5   -522502.311 5
  20354530.042   -19309812.513 7 -14975038.712 7
  21651513.284   -15132880.151 6 -11722407.829 6
 94  2 17 21 56 29.9990000  0  8 27 18  2 28 16 29 19 31
  20902317.456   -18577479.963 7 -14408378.021 7
  20488130.933   -19585715.885 7 -15168558.077 7
  22677691.651    -9856769.820 6  -7600335.145 5
  23479189.894    -6808798.043 5  -5219741.270 3
  23834970.331    -2103570.907 3  -1073357.938 2
  22729560.745     -629613.584 5   -451209.157 5
  20353554.323   -19314923.475 7 -14979021.285 7
  21649957.651   -15141084.572 6 -11728800.878 6
 94  2 17 21 56 59.9990000  0  8 27 18  2 28 16 29 19 31
  20892720.300   -18627877.537 7 -14447648.836 7
  20498390.198   -19531792.304 7 -15126539.725 7
  22662553.542    -9936312.875 6  -7662316.673 5
  23488337.245    -6760725.309 5  -5182282.021 3
  23826579.089    -2147564.726 3  -1107638.843 2
  22747023.940     -537844.592 5   -379700.951 5
  20352622.573   -19319822.170 7 -14982838.462 7
  21648509.628   -15148652.219 6 -11734697.735 6
 94  2 17 21 57 29.9990000  0  8 27 18  2 28 16 29 19 31
  20883176.565   -18678046.736 7 -14486741.687 7
  20508750.940   -19477342.685 7 -15084111.478 7
  22647483.753   -10015568.046 6  -7724073.885 5
  23497583.472    -6712118.021 5  -5144406.274 2
  23818324.823    -2191030.374 3  -1141508.182 1
  22764539.417     -445805.260 5   -307982.099 4
  20351728.964   -19324515.413 7 -14986495.547 7
  21647200.151   -15155540.738 6 -11740065.399 6
 94  2 17 21 57 59.9990000  0  8 27 18  2 28 16 29 19 31
  20873671.198   -18728020.871 7 -14525682.557 7
  20519207.808   -19422395.288 7 -15041295.344 7
  22632449.597   -10094554.001 6  -7785621.316 5
  23506933.581    -6663005.850 5  -5106137.108 4
  23810155.636    -2233973.876 3  -1174970.683 1
  22782106.948     -353516.713 5   -236069.032 4
  20350879.808   -19329007.804 7 -14989996.123 7
  21646018.815   -15161763.498 6 -11744914.301 6
 94  2 17 21 58 29.9990000  0  8 27 18  2 28 16 29 19 31
  20864187.784   -18777809.985 7 -14564479.257 7
  20529758.292   -19366947.672 7 -14998089.425 7
  22617475.729   -10173256.946 6  -7846948.221 5
  23516366.050    -6613394.898 5  -5067479.263 4
  23802083.745    -2276399.461 3  -1208029.575 1
  22799710.847     -260968.132 5   -163953.361 4
  20350062.245   -19333276.928 7 -14993322.722 7
  21644959.925   -15167331.940 6 -11749253.350 6
 94  2 17 21 58 59.9990000  0  8 27 18  2 28 16 29 19 31
  20854758.651   -18827412.194 7 -14603130.313 7
  20540401.151   -19311017.616 7 -14954507.583 7
  22602561.683   -10251669.262 6  -7908048.663 5
  23525915.612    -6563282.509 5  -5028430.677 4
  23794099.706    -2318302.811 3  -1240681.577 2
  22817377.386     -168135.100 5    -91616.032 4
  20349300.003   -19337299.427 7 -14996457.143 7
  21644017.659   -15172241.251 6 -11753078.784 6
 94  2 17 21 59 29.9990000  0  8 27 18  2 28 16 29 19 31
  20845339.300   -18876824.684 7 -14641633.539 7
  20551139.729   -19254606.948 7 -14910551.247 7
  22587683.425   -10329790.003 6  -7968921.924 5
  23535543.495    -6512666.194 5  -4988989.423 4
  23786233.706    -2359649.203 3  -1272899.573 2
  22835096.722      -75009.942 5    -19051.078 5
  20348585.292   -19341053.022 7 -14999382.029 7
  21643204.144   -15176515.282 6 -11756409.191 6
 94  2 17 21 59 59.9990000  0  8 27 18  2 28 16 29 19 31
  20835983.573   -18926028.723 7 -14679974.328 7
  20561965.183   -19197700.826 7 -14866208.836 7
  22572880.144   -10407604.798 6  -8029556.779 5
  23545274.714    -6461537.614 5  -4949149.019 5
  23778475.589    -2400426.335 3  -1304673.926 2
  22852874.979       18420.845 5     53752.039 4
  20347927.089   -19344515.336 7 -15002079.928 7
  21642513.839   -15180173.512 6 -11759259.762 6
 94  2 17 22  0 29.9990000  0  8 27 18  2 28 16 29 19 31
  20826660.628   -18975030.781 7 -14718157.724 7
  20572890.894   -19140298.766 7 -14821479.998 7
  22558119.167   -10485126.859 5  -8089963.529 5
  23555090.206    -6409904.815 5  -4908915.720 5
  23770815.472    -2440645.199 3  -1336013.341 1
  22870720.581      112153.237 5    126790.167 4
  20347315.534   -19347715.876 7 -15004573.859 7
  21641937.198   -15183226.258 6 -11761638.522 6
 94  2 17 22  0 59.9990000  0  8 27 18  2 28 16 29 19 31
  20817379.737   -19023823.290 7 -14756177.844 7
  20583908.511   -19082394.439 7 -14776359.768 7
  22543421.464   -10562363.229 5  -8150147.678 5
  23565024.839    -6357761.983 5  -4868285.032 5
  23763288.097    -2480291.267 4  -1366906.390 1
  22888617.769      206191.114 5    200066.331 4
  20346758.378   -19350654.484 7 -15006863.690 7
  21641469.355   -15185668.600 6 -11763541.654 6
 94  2 17 22  1 29.9990000  0  8 27 18  2 28 16 29 19 31
  20808135.753   -19072389.980 7 -14794022.005 7
  20595025.886   -19023969.514 7 -14730833.883 7
  22528786.065   -10639295.016 6  -8210094.472 5
  23575051.620    -6305081.824 5  -4827235.609 3
  23755850.487    -2519345.501 3  -1397338.282 2
  22906570.019      300548.525 5    273591.480 3
  20346248.847   -19353318.753 7 -15008939.742 7
  21641118.175   -15187491.579 7 -11764962.152 6
 94  2 17 22  1 59.9990000  0  8 27 18  2 28 16 29 19 31
  20798943.948   -19120722.668 7 -14831683.816 7
  20606251.120   -18965017.460 7 -14684897.252 7
  22514218.651   -10715904.319 6  -8269789.984 5
  23585177.050    -6251849.174 5  -4785755.678 4
  23748529.479    -2557824.379 3  -1427321.847 1
  22924593.315      395239.357 5    347376.441 4
  20345800.026   -19355719.813 7 -15010810.698 7
  21640892.667   -15188658.002 7 -11765871.054 6
 94  2 17 22  2 29.9990000  0  8 27 18  2 28 16 29 19 31
  20789784.597   -19168837.493 7 -14869175.872 7
  20617556.206   -18905555.501 7 -14638563.284 7
  22499694.886   -10792194.914 6  -8329237.173 5
  23595404.753    -6198065.901 5  -4743846.669 4
  23741315.737    -2595740.582 4  -1456866.914 1
  22942668.331      490256.286 5    421415.505 3
  20345378.769   -19357877.685 7 -15012492.145 7
  21640796.581   -15189156.537 6 -11766259.521 6
 94  2 17 22  2 59.9990000  0  8 27 18  2 28 16 29 19 31
  20780666.417   -19216722.330 7 -14906488.710 7
  20628972.925   -18845580.824 7 -14591829.800 7
  22485240.886   -10868153.699 6  -8388425.792 5
  23605753.597    -6143708.871 5  -4701490.597 5
  23734208.456    -2633076.909 4  -1485960.194 2
  22960811.190      585590.840 5    495702.063 4
  20345012.354   -19359769.095 7 -15013965.965 7
  21640836.089   -15188983.354 6 -11766124.577 6
 94  2 17 22  3 29.9990000  0  8 27 18  2 28 16 29 19 31
  20771599.808   -19264372.898 7 -14943618.996 7
  20640479.917   -18785114.011 7 -14544712.824 7
  22470840.300   -10943788.502 6  -8447361.970 5
  23616203.198    -6088794.513 5  -4658700.249 5
  23727210.269    -2669849.506 3  -1514614.169 1
  22979007.347      681213.194 5    570212.888 3
  20344703.550   -19361414.892 7 -15015248.397 7
  21640996.745   -15188136.271 7 -11765464.521 6
 94  2 17 22  3 59.9990000  0  8 27 18  2 28 16 29 19 31
  20762574.675   -19311802.999 7 -14980577.484 7
  20652077.347   -18724163.526 7 -14497218.977 7
  22456512.589   -11019118.461 6  -8506060.589 5
  23626758.503    -6033367.349 5  -4615510.303 4
  23720314.800    -2706085.365 4  -1542849.911 1
  22997247.026      777081.235 5    644915.143 3
  20344439.440   -19362838.829 7 -15016357.956 7
  21641283.940   -15186623.515 7 -11764285.753 6
 94  2 17 22  4 29.9990000  0  8 27 18  2 28 16 29 19 31
  20753579.495   -19359033.943 7 -15017380.792 7
  20663766.308   -18662745.232 7 -14449360.594 7
  22442225.651   -11094169.773 6  -8564542.078 6
  23637396.245    -5977446.335 5  -4571935.564 4
  23713517.995    -2741785.388 4  -1570668.123 2
  23015531.995      873157.664 5    719779.776 3
  20344205.683   -19364043.871 7 -15017296.946 7
  21641689.745   -15184486.309 7 -11762620.400 6
 94  2 17 22  4 59.9990000  0  8 27 18  2 28 16 29 19 31
  20744637.940   -19406069.289 7 -15054031.687 7
  20675541.948   -18600863.397 7 -14401141.017 7
  22428004.339   -11168951.069 6  -8622813.180 5
  23648129.222    -5921048.559 5  -4527989.293 4
  23706825.394    -2776948.456 4  -1598067.906 1
  23033843.972      969425.645 5    794793.670 3
  20344029.308   -19365028.320 7 -15018064.042 7
  21642216.370   -15181739.676 7 -11760480.180 6
 94  2 17 22  5 29.9980000  0  8 27 18  2 28 16 29 19 31
  20735733.904   -19452887.728 7 -15090513.559 7
  20687407.037   -18538504.919 7 -14352550.028 7
  22413823.311   -11243430.718 6  -8680849.212 6
  23658954.209    -5864173.264 5  -4483670.914 4
  23700245.639    -2811562.826 4  -1625040.140 2
  23052207.053     1065914.477 5    869979.675 3
  20343869.178   -19365774.974 7 -15018645.839 7
  21642861.600   -15178356.511 7 -11757843.958 6
 94  2 17 22  5 59.9980000  0  8 27 18  2 28 16 29 19 31
  20726854.568   -19499519.831 7 -15126850.235 7
  20699365.998   -18475663.150 7 -14303582.445 7
  22399713.334   -11317604.257 6  -8738646.726 5
  23669863.389    -5806805.708 5  -4438968.980 4
  23693747.693    -2845620.195 3  -1651578.333 2
  23070613.787     1162644.679 5    945353.743 2
  20343782.443   -19366280.355 7 -15019039.632 7
  21643619.795   -15174348.309 7 -11754720.694 6
 94  2 17 22  6 29.9980000  0  8 27 18  2 28 16 29 19 31
  20718016.732   -19545964.137 7 -15163040.580 7
  20711412.131   -18412358.941 7 -14254254.517 7
  22385659.928   -11391470.399 6  -8796204.720 6
  23680883.725    -5748927.466 5  -4393869.106 5
  23687385.990    -2879099.223 3  -1677665.876 1
  23089080.545     1259643.180 5   1020936.889 3
  20343727.811   -19366529.939 7 -15019234.093 7
  21644507.842   -15169705.893 7 -11751103.229 6
 94  2 17 22  6 59.9980000  0  8 27 18  2 28 16 29 19 31
  20709224.834   -19592205.487 7 -15199072.780 7
  20723547.256   -18348602.097 7 -14204573.893 7
  22371662.795   -11465014.329 6  -8853511.624 6
  23691982.428    -5690545.235 5  -4348376.497 4
  23681129.701    -2912000.043 3  -1703302.859 2
  23107590.404     1356939.923 5   1096752.410 2
  20343743.342   -19366516.816 7 -15019223.852 7
  21645513.787   -15164404.529 7 -11746972.304 6
 94  2 17 22  7 29.9980000  0  8 27 18  2 28 16 29 19 31
  20700457.178   -19638235.947 7 -15234940.649 7
  20735762.646   -18284396.695 7 -14154543.732 7
  22357728.748   -11538227.723 6  -8910560.971 6
  23703189.482    -5631656.092 5  -4302488.911 4
  23674974.475    -2944317.061 3  -1728484.912 2
  23126166.092     1454552.266 5   1172813.851 2
  20343789.545   -19366241.282 7 -15019009.150 7
  21646653.865   -15158436.103 7 -11742321.591 6
 94  2 17 22  7 59.9980000  0  8 27 18  2 28 16 29 19 31
  20691739.115   -19684060.878 7 -15270648.359 7
  20748066.037   -18219744.906 7 -14104165.745 7
  22343853.717   -11611132.632 6  -8967369.944 6
  23714494.506    -5572267.421 5  -4256212.078 3
  23668938.928    -2976054.902 3  -1753215.690 1
  23144800.709     1552468.414 5   1249112.018 2
  20343892.537   -19365708.808 7 -15018594.218 7
  21647910.725   -15151812.564 7 -11737160.396 6
 94  2 17 22  8 29.9980000  0  8 27 18  2 28 16 29 19 31
  20683065.498   -19729649.305 7 -15306171.776 7
  20760450.318   -18154642.124 7 -14053436.331 7
  22330038.920   -11683741.556 6  -9023948.273 6
  23725887.897    -5512385.062 5  -4209550.546 4
  23663008.951    -3007221.087 3  -1777500.992 1
  23163485.334     1650676.373 4   1325637.582 3
  20344044.248   -19364904.369 7 -15017967.366 7
  21649291.561   -15144532.276 6 -11731487.446 6
 94  2 17 22  8 59.9980000  0  8 27 18  2 28 16 29 19 31
  20674430.068   -19774994.454 7 -15341505.626 7
  20772930.600   -18089068.080 7 -14002339.699 7
  22316279.756   -11756041.903 6  -9080286.168 6
  23737384.975    -5452013.553 5  -4162507.849 3
  23657175.154    -3037827.387 3  -1801349.995 2
  23182227.193     1749148.574 5   1402369.043 2
  20344248.209   -19363831.699 7 -15017131.502 7
  21650801.451   -15136610.360 6 -11725314.519 6
 94  2 17 22  9 29.9980000  0  8 27 18  2 28 16 29 19 31
  20665846.967   -19820108.889 7 -15376659.711 7
  20785499.107   -18023012.584 7 -13950867.917 7
  22302585.326   -11828044.501 6  -9136392.050 6
  23748960.607    -5391149.053 5  -4115081.004 3
  23651472.975    -3067884.602 4  -1824771.165 2
  23201006.764     1847854.456 4   1479282.591 2
  20344505.889   -19362496.110 7 -15016090.768 7
  21652425.514   -15128064.650 6 -11718655.529 6
 94  2 17 22  9 59.9980000  0  8 27 18  2 28 16 29 19 31
  20657306.592   -19864990.974 7 -15411632.734 7
  20798165.803   -17956474.726 7 -13899020.260 7
  22288928.576   -11899762.305 6  -9192276.022 6
  23760642.256    -5329792.308 5  -4067270.601 4
  23645853.115    -3097402.066 3  -1847771.769 1
  23219834.256     1946771.082 4   1556360.351 2
  20344809.295   -19360893.903 7 -15014842.291 8
  21654168.873   -15118899.592 6 -11711513.924 6
 94  2 17 22 10 29.9980000  0  8 27 18  2 28 16 29 19 31
  20648808.959   -19909645.369 7 -15446428.340 7
  20810913.420   -17889469.033 7 -13846808.065 7
  22275333.482   -11971180.136 6  -9247926.239 6
  23772398.100    -5267942.768 5  -4019076.194 2
  23640331.920    -3126383.713 4  -1870354.837 1
  23238698.287     2045884.463 5   1633591.433 2
  20345159.264   -19359032.120 7 -15013391.554 8
  21656026.631   -15109110.023 6 -11703885.698 6
 94  2 17 22 10 59.9980000  0  8 27 18  2 28 16 29 19 31
  20640350.842   -19954078.563 7 -15481051.579 7
  20823754.029   -17821990.519 7 -13794227.437 7
  22261814.521   -12042276.846 6  -9303326.233 6
  23784274.381    -5205601.079 5  -3970498.325 2
  23634918.975    -3154809.024 3  -1892504.369 1
  23257599.725     2145213.276 5   1710990.384 3
  20345568.795   -19356914.996 7 -15011741.845 8
  21658010.584   -15098674.247 6 -11695753.922 6
 94  2 17 22 11 29.9980000  0  8 27 18  2 28 16 29 19 31
  20631937.607   -19998297.081 7 -15515507.549 7
  20836684.482   -17754053.158 7 -13741289.262 7
  22248345.256   -12113066.091 6  -9358486.649 6
  23796221.139    -5142786.064 5  -3921551.614 3
  23629623.975    -3182663.685 4  -1914209.275 1
  23276548.889     2244763.540 5   1788561.883 2
  20346011.818   -19354548.551 7 -15009897.865 8
  21660122.561   -15087583.733 6 -11687111.968 6
 94  2 17 22 11 59.9980000  0  8 27 18  2 28 16 29 19 31
  20623564.428   -20042299.627 7 -15549795.218 7
  20849698.600   -17685659.336 7 -13687995.409 7
  22234925.334   -12183543.970 6  -9413404.439 6
  23808262.443    -5079507.890 4  -3872243.986 3
  23624438.686    -3209940.310 3  -1935463.743 2
  23295526.811     2344542.626 4   1866311.678 3
  20346518.553   -19351937.797 7 -15007863.508 8
  21662365.107   -15075832.792 6 -11677955.406 6
 94  2 17 22 12 29.9980000  0  8 27 18  2 28 16 29 19 31
  20615234.936   -20086086.138 7 -15583914.550 7
  20862805.256   -17616790.933 7 -13634331.753 7
  22221574.193   -12253702.950 6  -9468073.737 6
  23820394.506    -5015758.303 4  -3822569.039 4
  23619358.303    -3236619.591 4  -1956252.734 1
  23314558.662     2444574.988 4   1944258.845 2
  20347055.857   -19349079.741 7 -15005636.458 8
  21664733.990   -15063405.420 6 -11668271.757 6
 94  2 17 22 12 59.9980000  0  8 27 18  2 28 16 29 19 31
  20606939.920   -20129664.862 7 -15617871.979 7
  20875998.459   -17547442.875 7 -13580294.332 6
  22208273.225   -12323570.457 6  -9522515.915 6
  23832617.545    -4951555.795 5  -3772541.168 4
  23614392.592    -3262704.183 4  -1976578.349 2
  23333643.350     2544867.979 5   2022409.111 3
  20347644.521   -19345983.590 7 -15003223.868 8
  21667219.967   -15050324.503 6 -11658078.848 6
 94  2 17 22 13 29.9980000  0  8 27 18  2 28 16 29 19 31
  20598694.178   -20173037.000 7 -15651668.430 7
  20889289.717   -17477602.505 7 -13525873.300 6
  22195042.131   -12393148.245 6  -9576732.343 6
  23844935.873    -4886882.325 5  -3722146.276 5
  23609540.029    -3288211.419 4  -1996454.071 2
  23352782.436     2645420.328 5   2100761.445 3
  20348285.162   -19342646.286 7 -15000623.382 8
  21669836.670   -15036597.288 6 -11647382.345 6
 94  2 17 22 13 59.9980000  0  8 27 18  2 28 16 29 19 31
  20590469.975   -20216205.874 7 -15685306.508 7
  20902674.170   -17407279.082 7 -13471075.853 6
  22181844.248   -12462446.365 6  -9630730.842 6
  23857316.350    -4821725.590 5  -3671374.851 3
  23604783.232    -3313164.358 3  -2015897.902 2
  23371961.943     2746224.329 5   2179309.879 2
  20348959.459   -19339076.770 7 -14997841.956 8
  21672565.764   -15022231.366 6 -11636188.144 6
 94  2 17 22 14 29.9980000  0  8 27 18  2 28 16 29 19 31
  20582304.725   -20259145.300 7 -15718765.785 7
  20916146.779   -17336474.118 7 -13415903.185 6
  22168721.311   -12531444.690 6  -9684495.734 6
  23869815.186    -4756076.074 5  -3620219.413 3
  23600141.646    -3337553.855 4  -2034902.647 2
  23391201.779     2847283.592 5   2258057.223 3
  20349686.600   -19335267.658 7 -14994873.827 8
  21675424.248   -15007221.516 6 -11624492.191 6
 94  2 17 22 14 59.9980000  0  8 27 18  2 28 16 29 19 31
  20574175.943   -20301840.442 7 -15752034.709 7
  20929708.014   -17265196.404 7 -13360362.140 6
  22155656.428   -12600111.099 6  -9738001.986 6
  23882401.092    -4689934.615 5  -3568680.667 4
  23595615.498    -3361380.578 5  -2053468.909 1
  23410473.834     2948597.230 5   2337002.775 3
  20350458.146   -19331200.842 7 -14991704.882 8
  21678400.818   -14991562.980 6 -11612290.759 6
 94  2 17 22 15 29.9980000  0  8 27 18  2 28 16 29 19 31
  20566095.279   -20344305.197 7 -15785124.116 7
  20943355.951   -17193485.928 7 -13304483.880 6
  22142654.412   -12668447.827 6  -9791251.342 6
  23895074.732    -4623320.441 5  -3516773.559 1
  23591179.006    -3384669.283 3  -2071615.947 2
  23429790.639     3050130.213 5   2416119.238 3
  20351276.131   -19326890.507 7 -14988346.198 8
  21681506.514   -14975273.665 6 -11599597.809 6
 94  2 17 22 15 59.9980000  0  8 27 18  2 28 16 29 19 31
  20558067.545   -20386518.971 7 -15818017.968 7
  20957084.522   -17121361.245 7 -13248282.858 6
  22129712.232   -12736443.677 6  -9844235.079 6
  23907841.779    -4556247.736 5  -3464509.143 2
  23586851.451    -3407397.549 3  -2089326.237 2
  23449163.529     3151882.066 5   2495406.262 3
  20352145.756   -19322322.593 7 -14984786.792 8
  21684719.498   -14958354.999 6 -11586414.453 6
 94  2 17 22 16 29.9980000  0  8 27 18  2 28 16 29 19 31
  20550078.201   -20428495.536 7 -15850726.967 7
  20970884.115   -17048820.025 7 -13191757.262 6
  22116833.068   -12804092.440 6  -9896948.360 6
  23920698.834    -4488735.247 5  -3411902.036 2
  23582646.318    -3429560.409 4  -2106596.006 3
  23468563.428     3253856.096 5   2574866.391 3
  20353071.920   -19317494.282 7 -14981024.471 8
  21688060.943   -14940817.567 6 -11572748.929 6
 94  2 17 22 16 59.9980000  0  8 27 18  2 28 16 29 19 31
  20542135.490   -20470265.339 7 -15883274.858 8
  20984765.748   -16975863.317 7 -13134907.917 7
  22104031.334   -12871417.809 6  -9949409.644 6
  23933621.217    -4420780.986 4  -3358950.723 2
  23578536.975    -3451164.015 5  -2123429.951 2
  23488015.350     3356055.148 5   2654501.868 2
  20354036.959   -19312405.461 7 -14977059.159 8
  21691512.584   -14922666.295 6 -11558605.089 6
 94  2 17 22 17 29.9980000  0  8 27 18  2 28 16 29 19 31
  20534220.920   -20511829.673 7 -15915662.650 8
  20998738.100   -16902484.419 7 -13077729.587 6
  22091277.045   -12938436.201 6 -10001631.725 6
  23946641.615    -4352382.933 3  -3305653.595 2
  23574526.068    -3472210.549 4  -2139829.823 2
  23507502.342     3458473.108 4   2734307.906 3
  20355047.732   -19307058.080 7 -14972892.371 8
  21695084.225   -14903898.950 6 -11543981.181 6
 94  2 17 22 17 59.9980000  0  8 27 18  2 28 16 29 19 31
  20526348.084   -20553188.692 7 -15947890.447 7
  21012778.951   -16828671.312 7 -13020212.922 7
  22078577.545   -13005153.623 6 -10053619.272 6
  23959736.725    -4283538.895 3  -3252008.922 2
  23570613.303    -3492700.375 3  -2155795.977 2
  23527023.772     3561114.946 4   2814288.403 2
  20356109.201   -19301461.726 7 -14968531.583 8
  21698774.561   -14884507.365 6 -11528870.854 6
 94  2 17 22 18 29.9980000  0  8 27 18  2 28 16 29 19 31
  20518515.193   -20594353.032 7 -15979966.545 7
  21026904.271   -16754423.674 7 -12962357.654 6
  22065937.068   -13071580.495 6 -10105380.422 6
  23972920.217    -4214252.981 4  -3198019.973 1
  23566824.146    -3512649.484 3  -2171340.718 2
  23546609.889     3663966.623 5   2894432.427 2
  20357218.404   -19295638.885 7 -14963994.309 8
  21702579.678   -14864492.516 6 -11513274.867 6
 94  2 17 22 18 59.9980000  0  8 27 18  2 28 16 29 19 31
  20510726.404   -20635297.674 7 -16011871.452 7
  21041112.272   -16679753.855 7 -12904173.420 7
  22053349.404   -13137713.354 6 -10156912.472 6
  23986181.756    -4144525.085 3  -3143686.574 2
  23563140.936    -3532056.613 4  -2186463.126 1
  23566217.779     3767011.649 5   2974727.085 3
  20358379.912   -19289573.438 7 -14959267.981 8
  21706509.357   -14843847.459 6 -11497187.808 6
 94  2 17 22 19 29.9980000  0  8 27 18  2 28 16 29 19 31
  20502971.654   -20676009.698 7 -16043595.098 7
  21055405.951   -16604674.638 7 -12845670.164 7
  22040831.943   -13203546.280 6 -10208210.802 6
  23999537.975    -4074380.154 4  -3089028.218 2
  23559539.607    -3550923.447 4  -2201164.546 3
  23585856.787     3870227.892 4   3055155.156 2
  20359579.264   -19283269.077 7 -14954355.487 8
  21710568.225   -14822572.381 6 -11480609.834 6
 94  2 17 22 19 59.9980000  0  8 27 18  2 28 16 29 19 31
  20495275.545   -20716478.660 7 -16075129.340 7
  21069769.904   -16529184.353 7 -12786846.605 6
  22028351.475   -13269076.603 6 -10259273.344 6
  24012967.615    -4003817.614 4  -3034044.443 2
  23556050.943    -3569235.414 3  -2215433.632 2
  23605530.592     3973622.291 4   3135722.070 2
  20360831.865   -19276718.016 7 -14949250.746 8
  21714729.670   -14800668.967 6 -11463542.235 6
 94  2 17 22 20 29.9980000  0  8 27 18  2 28 16 29 19 31
  20487624.076   -20756700.840 7 -16106471.278 7
  21084209.146   -16453290.415 7 -12727708.507 6
  22015939.842   -13334305.827 6 -10310101.247 6
  24026468.029    -3932841.113 4  -2978738.094 2
  23552679.146    -3586989.291 3  -2229267.788 3
  23625241.561     4077182.901 5   3216418.463 1
  20362121.147   -19269899.269 7 -14943937.431 8
  21719010.412   -14778134.937 6 -11445983.260 6
 94  2 17 22 20 59.9980000  0  8 27 18  2 28 16 29 19 31
  20480012.092   -20796684.584 7 -16137627.430 7
  21098732.498   -16376982.972 7 -12668248.193 6
  22003592.545   -13399237.373 6 -10360697.199 6
  24040053.818    -3861452.148 5  -2923110.372 3
  23549408.139    -3604179.055 4  -2242662.412 2
  23644977.084     4180909.164 5   3297243.980 2
  20363477.287   -19262795.220 7 -14938401.799 8
  21723421.756   -14754967.481 6 -11427930.698 6
 94  2 17 22 21 29.9980000  0  8 27 18  2 28 16 29 19 31
  20472450.193   -20836437.786 7 -16168603.935 7
  21113334.459   -16300244.508 7 -12608452.023 7
  21991292.037   -13463865.172 6 -10411056.463 6
  24053721.522    -3789641.610 5  -2867154.150 2
  23546248.607    -3620805.060 4  -2255617.732 2
  23664753.514     4284815.675 5   3378209.905 2
  20364877.607   -19255430.948 7 -14932663.402 8
  21727945.998   -14731174.047 6 -11409390.373 6
 94  2 17 22 21 59.9980000  0  8 27 18  2 28 16 29 19 31
  20464919.959   -20875968.100 7 -16199406.754 7
  21128019.537   -16223076.803 7 -12548321.374 7
  21979047.006   -13528194.198 6 -10461182.919 6
  24067473.092    -3717397.977 5  -2810860.430 4
  23543193.256    -3636871.358 3  -2268136.949 2
  23684559.584     4388901.309 5   3459315.450 1
  20366326.561   -19247820.927 7 -14926733.506 8
  21732596.826   -14706769.740 6 -11390374.033 6
 94  2 17 22 22 29.9980000  0  8 27 18  2 28 16 29 19 31
  20457444.100   -20915293.479 7 -16230049.883 7
  21142781.607   -16145490.642 7 -12487864.668 7
  21966860.537   -13592219.487 6 -10511072.688 6
  24081295.029    -3644723.159 5  -2754230.718 4
  23540236.428    -3652379.839 3  -2280221.463 2
  23704399.943     4493152.224 5   3540549.759 2
  20367819.053   -19239986.558 7 -14920628.804 8
  21737347.670   -14681760.908 6 -11370886.641 6
 94  2 17 22 22 59.9980000  0  8 27 18  2 28 16 29 19 31
  20449990.740   -20954429.676 7 -16260545.600 7
  21157624.982   -16067494.100 7 -12427088.184 7
  21954735.522   -13655949.461 6 -10560732.342 6
  24095211.006    -3571632.971 5  -2697277.374 3
  23537395.154    -3667332.783 3  -2291873.083 2
  23724268.412     4597570.938 5   3621914.822 1
  20369346.943   -19231954.442 7 -14914369.999 8
  21742225.529   -14656161.879 6 -11350939.344 6
 94  2 17 22 23 29.9980000  0  8 27 18  2 28 16 29 19 31
  20442588.303   -20993378.655 7 -16290895.437 7
  21172546.662   -15989107.835 7 -12366008.013 7
  21942662.990   -13719386.296 6 -10610163.580 6
  24109193.732    -3498134.437 5  -2640005.830 4
  23534650.022    -3681732.621 3  -2303093.702 2
  23744164.873     4702159.239 5   3703412.027 2
  20370910.209   -19223734.595 7 -14907964.920 8
  21747212.928   -14629983.316 6 -11330540.465 6
 94  2 17 22 23 59.9980000  0  8 27 18  2 28 16 29 19 31
  20435208.170   -21032129.955 7 -16321091.238 7
  21187532.404   -15910334.041 7 -12304625.876 7
  21930647.537   -13782534.848 6 -10659370.173 6
  24123263.529    -3424222.384 5  -2582412.052 4
  23532010.646    -3695563.762 3  -2313871.226 2
  23764105.256     4806918.961 5   3785042.818 2
  20372515.522   -19215300.480 7 -14901392.886 8
  21752301.271   -14603201.805 6 -11309671.758 6
 94  2 17 22 24 29.9980000  0  8 27 18  2 28 16 29 19 31
  20427864.248   -21070674.221 7 -16351125.708 7
  21202597.951   -15831157.881 7 -12242930.206 7
  21918685.857   -13845396.993 6 -10708353.590 6
  24137386.904    -3349911.651 4  -2524507.661 3
  23529496.240    -3708839.451 3  -2324215.897 1
  23784075.201     4911868.798 5   3866821.752 2
  20374164.006   -19206633.662 7 -14894639.515 8
  21757519.178   -14575799.041 6 -11288318.944 6
 94  2 17 22 24 59.9980000  0  8 27 18  2 28 16 29 19 31
  20420578.521   -21108985.049 7 -16380978.282 7
  21217743.186   -15751566.910 7 -12180911.306 7
  21906778.584   -13907964.859 6 -10757107.704 6
  24151614.045    -3275195.919 3  -2466287.614 2
  23527072.975    -3721562.213 4  -2334129.723 2
  23804091.498     5017036.092 5   3948770.115 2
  20375860.303   -19197697.177 7 -14887676.017 8
  21762858.982   -14547758.537 6 -11266469.199 6
 94  2 17 22 25 29.9980000  0  8 27 18  2 28 16 29 19 31
  20413339.490   -21147051.871 7 -16410640.726 7
  21232968.725   -15671570.040 7 -12118576.132 7
  21894934.764   -13970235.779 6 -10805630.428 6
  24165903.889    -3200066.549 3  -2407745.300 3
  23524760.451    -3733745.988 4  -2343623.566 1
  23824140.193     5122412.227 4   4030881.220 2
  20377619.693   -19188481.842 7 -14880495.227 8
  21768307.881   -14519090.666 6 -11244130.591 6
 94  2 17 22 25 59.9980000  0  8 27 18  2 28 16 29 19 31
  20406149.662   -21184855.925 7 -16440098.408 7
  21248273.889   -15591159.519 7 -12055918.625 7
  21883140.490   -14032190.013 6 -10853906.374 6
  24180287.225    -3124515.991 3  -2348874.790 2
  23522540.053    -3745393.125 3  -2352699.265 1
  23844230.787     5227995.472 4   4113153.701 1
  20379423.412   -19178976.045 7 -14873088.122 8
  21773887.115   -14489785.082 6 -11221295.061 6
 94  2 17 22 26 29.9980000  0  8 27 18  2 28 16 29 19 31
  20398993.225   -21222415.453 7 -16469365.552 8
  21263645.490   -15510349.952 7 -11992950.173 7
  21871413.193   -14093824.437 6 -10901933.130 6
  24194744.256    -3048568.779 3  -2289695.178 2
  23520419.381    -3756516.313 5  -2361366.704 1
  23864359.217     5333771.590 5   4195576.478 2
  20381290.748   -19169190.491 7 -14865463.020 8
  21779582.076   -14459862.804 6 -11197978.997 6
 94  2 17 22 26 59.9980000  0  8 27 18  2 28 16 29 19 31
  20391894.061   -21259738.055 7 -16498448.081 8
  21279097.889   -15429160.257 7 -11929685.519 7
  21859743.514   -14155133.463 6 -10949706.322 6
  24209278.350    -2972211.728 3  -2230196.225 2
  23518413.014    -3767100.374 5  -2369614.009 1
  23884528.787     5439709.691 4   4278125.488 1
  20383202.334   -19159135.571 7 -14857628.019 8
  21785389.670   -14429343.198 6 -11174197.478 6
 94  2 17 22 27 29.9980000  0  8 27 18  2 28 16 29 19 31
  20384842.287   -21296828.750 7 -16527349.898 8
  21294620.865   -15347582.867 7 -11866118.769 7
  21848143.100   -14216112.525 6 -10997222.393 6
  24223879.584    -2895450.467 3  -2170382.323 2
  23516505.146    -3777136.344 5  -2377434.222 2
  23904709.279     5545785.459 5   4360781.747 2
  20385157.404   -19148830.621 7 -14849598.187 8
  21791305.451   -14398227.194 6 -11149951.256 6
 94  2 17 22 27 59.9980000  0  8 27 18  2 28 16 29 19 31
  20377818.857   -21333702.413 7 -16556082.601 8
  21310222.068   -15265614.796 7 -11802247.586 7
  21836599.787   -14276773.641 6 -11044490.734 6
  24238566.943    -2818309.198 4  -2110272.286 2
  23514694.170    -3786619.500 5  -2384823.713 1
  23924911.889     5651994.775 4   4443542.087 1
  20387168.912   -19138293.838 7 -14841387.705 8
  21797338.920   -14366514.937 6 -11125240.415 6
 94  2 17 22 28 29.9980000  0  8 27 18  2 28 16 29 19 31
  20370845.482   -21370364.594 7 -16584650.518 8
  21325891.373   -15183247.130 7 -11738065.036 7
  21825107.639   -14337137.479 6 -11091527.418 6
  24253307.357    -2740798.359 3  -2049874.269 1
  23512995.740    -3795547.974 4  -2391780.912 1
  23945155.936     5758330.930 4   4526401.267 1
  20389218.037   -19127534.688 7 -14833003.951 8
  21803495.115   -14334213.471 6 -11100070.457 6
 94  2 17 22 28 59.9980000  0  8 27 18  2 28 16 29 19 31
  20363914.248   -21406797.906 7 -16613040.097 8
  21341644.889   -15100471.219 7 -11673564.379 6
  21813683.045   -14397211.481 6 -11138338.256 6
  24268125.287    -2662901.848 3  -1989175.721 1
  23511407.068    -3803914.080 4  -2398300.001 3
  23965409.717     5864795.602 4   4609360.597 1
  20391304.842   -19116553.304 7 -14824447.033 8
  21809755.459   -14301311.761 6 -11074432.771 6
 94  2 17 22 29 29.9980000  0  8 27 18  2 28 16 29 19 31
  20357021.639   -21442997.417 7 -16641247.501 8
  21357469.225   -15017289.150 6 -11608747.235 6
  21802299.014   -14457008.987 6 -11184933.649 6
  24283020.553    -2584641.816 4  -1928193.943 2
  23509915.623    -3811720.954 4  -2404383.213 2
  23985696.467     5971411.251 4   4692437.559 2
  20393439.873   -19105349.637 7 -14815716.906 8
  21816132.381   -14267799.312 6 -11048319.197 6
 94  2 17 22 29 59.9980000  0  8 27 18  2 28 16 29 19 31
  20350180.904   -21478956.456 7 -16669267.518 8
  21373382.834   -14933707.862 6 -11543619.005 6
  21790970.248   -14516527.618 6 -11231311.739 6
  24297983.975    -2506006.366 4  -1866919.611 1
  23508542.920    -3818964.022 4  -2410027.151 2
  24006024.811     6078200.249 3   4775649.629 1
  20395616.045   -19093900.685 7 -14806795.653 8
  21822618.326   -14233678.029 6 -11021731.197 6
 94  2 17 22 30 29.9980000  0  7 27 18  2 16 29 19 31
  20343378.865   -21514677.989 7 -16697102.462 8
  21389355.545   -14849743.950 6 -11478192.626 6
  21779704.506   -14575760.069 6 -11277466.830 6
  23507266.279    -3825652.724 4  -2415239.099 2
  24026375.592     6185146.112 4   4858983.924 2
  20397845.100   -19082197.885 7 -14797676.579 8
  21829233.279   -14198950.407 6 -10994670.736 6
 94  2 17 22 30 59.9980000  0  7 27 18  2 16 29 19 31
  20336623.568   -21550164.982 7 -16724754.650 8
  21405403.873   -14765416.989 6 -11412483.352 6
  21768487.646   -14634689.802 6 -11323386.036 6
  23506101.357    -3831784.528 4  -2420017.106 2
  24046755.396     6292258.401 4   4942447.905 1
  20400112.756   -19070233.227 7 -14788353.465 8
  21835958.514   -14163622.987 6 -10967142.905 6
 94  2 17 22 31 29.9980000  0  7 27 18  2 16 29 19 31
  20329926.920   -21585419.293 7 -16752225.535 8
  21421517.967   -14680731.690 6 -11346494.852 6
  21757344.928   -14693303.070 6 -11369058.655 6
  23505028.342    -3837364.260 4  -2424364.923 2
  24067172.514     6399536.209 4   5026040.835 2
  20402447.959   -19057998.875 7 -14778820.209 8
  21842790.396   -14127711.162 6 -10939159.686 6
 94  2 17 22 31 59.9980000  0  7 27 18  2 16 29 19 31
  20323256.568   -21620436.615 7 -16779511.749 8
  21437705.459   -14595681.964 6 -11280222.393 6
  21746247.639   -14751580.603 6 -11414469.661 6
  23504078.662    -3842389.264 4  -2428280.490 2
  24087617.912     6506964.869 4   5109751.340 1
  20404825.709   -19045485.046 7 -14769069.170 8
  21849737.826   -14091208.492 6 -10910716.069 6
 94  2 17 22 32 29.9980000  0  7 27 18  2 16 29 19 31
  20316637.342   -21655207.660 7 -16806606.056 8
  21453950.373   -14510275.551 6 -11213671.987 6
  21735217.256   -14809532.878 6 -11459627.226 6
  23503231.584    -3846870.683 5  -2431772.512 1
  24108090.248     6614526.366 4   5193565.379 1
  20407255.646   -19032712.409 7 -14759116.464 8
  21856792.725   -14054114.369 6 -10881811.565 6
 94  2 17 22 32 59.9980000  0  7 27 18  2 16 29 19 31
  20310066.779   -21689733.426 7 -16833509.226 8
  21470274.896   -14424511.133 6 -11146842.620 6
  21724252.107   -14867178.370 6 -11504545.739 6
  23502471.967    -3850821.139 4  -2434850.763 1
  24128571.936     6722217.009 3   5277480.016 2
  20409737.787   -19019683.494 7 -14748964.058 8
  21863964.514   -14016435.545 6 -10852451.466 6
 94  2 17 22 33 29.9980000  0  7 27 18  2 16 29 19 31
  20303546.193   -21724008.272 7 -16860216.871 8
  21486662.951   -14338385.326 6 -11079731.653 6
  21713333.217   -14924529.171 6 -11549234.622 6
  23501827.342    -3854248.344 4  -2437521.309 1
  24149093.436     6830016.316 3   5361479.326 1
  20412264.514   -19006399.331 7 -14738612.761 8
  21871243.639   -13978173.622 6 -10822636.993 6
 94  2 17 22 33 59.9980000  0  7 27 18  2 16 29 19 31
  20297068.561   -21758032.314 7 -16886729.097 8
  21503128.357   -14251908.532 6 -11012347.191 6
  21702472.686   -14981591.212 6 -11593698.502 6
  23501269.568    -3857157.736 4  -2439788.397 1
  24169627.217     6937914.340 3   5445555.592 1
  20414842.623   -18992866.149 7 -14728067.419 8
  21878646.506   -13939323.030 6 -10792363.823 6
 94  2 17 22 34 29.9980000  0  7 27 18  2 16 29 19 31
  20290647.490   -21791809.574 7 -16913049.024 8
  21519645.373   -14165075.847 6 -10944685.411 6
  21691666.420   -15038369.607 6 -11637941.365 6
  23500822.279    -3859558.523 4  -2441659.157 1
  24190186.740     7045919.886 3   5529715.601 1
  20417466.373   -18979080.980 7 -14717325.731 8
  21886137.553   -13899899.312 6 -10761644.057 6
 94  2 17 22 34 59.9980000  0  7 27 18  2 16 29 19 31
  20284269.553   -21825336.017 7 -16939173.510 8
  21536238.982   -14077873.751 6 -10876735.774 6
  21680929.107   -15094838.616 6 -11681943.147 6
  23500457.701    -3861430.423 4  -2443117.760 2
  24210758.686     7154061.792 3   5613981.914 1
  20420142.342   -18965010.202 7 -14706361.475 8
  21893756.951   -13859889.274 6 -10730467.416 6
 94  2 17 22 35 29.9980000  0  7 27 18  2 16 29 19 31
  20277929.045   -21858612.204 7 -16965102.986 8
  21552902.342   -13990320.761 6 -10808512.715 6
  21670233.240   -15150997.825 6 -11725703.536 6
  23500201.732    -3862767.924 4  -2444159.965 2
  24231356.850     7262351.747 2   5698363.510 1
  20422866.498   -18950670.760 7 -14695187.880 8
  21901482.764   -13819298.737 6 -10698838.443 6
 94  2 17 22 35 59.9980000  0  7 27 18  2 16 29 19 31
  20271643.732   -21891653.466 7 -16990849.413 8
  21569626.818   -13902417.224 6 -10740016.497 6
  21659610.100   -15206847.531 6 -11769222.750 7
  23500044.592    -3863566.879 3  -2444782.543 1
  24251989.436     7370798.241 2   5782867.146 1
  20425646.123   -18936075.386 7 -14683814.865 8
  21909318.201   -13778119.998 6 -10666751.124 6
 94  2 17 22 36 29.9980000  0  8 27 18  2  7 16 29 19 31
  20265403.678   -21924461.498 7 -17016414.097 8
  21586425.834   -13814154.884 6 -10671240.700 6
  21649034.186   -15262389.260 6 -11812501.981 7
  24344762.654      -54073.61013
  23499999.451    -3863820.185 5  -2444979.875 2
  24272662.256     7479401.724 2   5867493.070 1
  20428470.826   -18921229.560 7 -14672246.697 8
  21917269.061   -13736350.723 6 -10634203.649 6
 94  2 17 22 36 59.9980000  0  7 27 18  2  7 16 19 31
  20259207.389   -21957025.319 7 -17041788.491 8
  21603279.943   -13725535.540 6 -10602186.714 6
  21638531.209   -15317619.824 6 -11855538.745 6
  24324178.428     -162214.530 3        -0.21611
  23500060.521    -3863507.045 5  -2444735.915 2
  20431341.115   -18906146.840 7 -14660493.926 8
  21925327.967   -13693970.119 6 -10601179.825 6
 94  2 17 22 37 29.9980000  0  7 27 18  2  7 16 19 31
  20253058.107   -21989342.583 7 -17066970.763 8
  21620213.967   -13636551.256 6 -10532848.365 6
  21628076.053   -15372551.039 6 -11898342.261 6
  24303601.912     -270349.268 3    -84260.807 1
  23500229.662    -3862627.631 5  -2444050.632 2
  20434252.678   -18890846.789 7 -14648571.818 8
  21933505.295   -13650987.470 6 -10567686.866 6
 94  2 17 22 37 59.9980000  0  7 27 18  2  7 16 19 31
  20246955.756   -22021415.569 7 -17091962.689 8
  21637222.350   -13547198.071 6 -10463222.548 6
  21617678.584   -15427184.607 6 -11940913.840 6
  24283030.717     -378471.176 3   -168511.424 1
  23500502.545    -3861199.629 5  -2442937.927 2
  20437209.748   -18875329.721 7 -14636480.601 8
  21941797.295   -13607411.619 6 -10533731.692 6
 94  2 17 22 38 29.9980000  0  7 27 18  2  7 16 19 31
  20240904.772   -22053233.195 7 -17116755.637 8
  21654301.186   -13457478.675 6 -10393311.380 6
  21607336.521   -15481534.151 6 -11983264.104 7
  24262453.014     -486574.555 3   -252747.632 1
  23500875.623    -3859236.798 5  -2441408.487 1
  20440202.420   -18859591.737 7 -14624217.239 8
  21950197.154   -13563260.996 6 -10499328.627 6
 94  2 17 22 38 59.9980000  0  7 27 18  2  7 16 19 31
  20234890.592   -22084789.951 7 -17141345.300 8
  21671439.928   -13367393.515 6 -10323115.210 6
  21597052.076   -15535592.673 6 -12025387.591 6
  24241889.139     -594665.933 3   -336974.495 1
  23501351.537    -3856752.491 4  -2439472.673 1
  20443240.889   -18843616.836 7 -14611769.272 8
  21958706.428   -13518544.383 6 -10464484.546 6
 94  2 17 22 39 29.9980000  0  7 27 18  2  7 16 19 31
  20228940.678   -22116079.937 7 -17165727.099 8
  21688653.943   -13276942.731 6 -10252634.139 6
  21586820.318   -15589352.114 6 -12067278.023 6
  24221316.803     -702741.819 3   -421189.233 1
  23501912.389    -3853757.886 4  -2437139.185 1
  20446333.162   -18827380.129 7 -14599117.304 8
  21967327.498   -13473257.256 6 -10429195.896 6
 94  2 17 22 39 59.9980000  0  7 27 18  2  7 16 19 31
  20223037.240   -22147111.142 7 -17189907.240 8
  21705925.928   -13186143.966 6 -10181881.899 6
  21576652.420   -15642802.891 6 -12108927.934 6
  24200756.889     -810805.650 3   -505394.640 1
  23502580.537    -3850257.220 4  -2434411.410 1
  20449474.717   -18810865.377 7 -14586248.674 8
  21976054.529   -13427392.841 6 -10393457.420 6
 94  2 17 22 40 29.9980000  0  7 27 18  2  7 16 19 31
  20217181.490   -22177888.605 7 -17213889.665 8
  21723274.537   -13094989.489 6 -10110852.485 6
  21566540.139   -15695935.483 6 -12150329.908 6
  24180191.779     -918852.991 3   -589587.178 1
  23503347.373    -3846227.127 4  -2431271.086 1
  20452677.068   -18794054.663 7 -14573149.426 8
  21984893.115   -13380932.841 6 -10357254.850 6
 94  2 17 22 40 59.9980000  0  7 27 18  2  7 16 19 31
  20211363.725   -22208420.290 7 -17237680.572 8
  21740682.022   -13003495.869 6 -10039558.811 6
  21556494.123   -15748735.295 6 -12191472.556 6
  24159641.967    -1026889.564 3   -673771.343 1
  23504219.068    -3841661.434 5  -2427713.419 2
  20455930.045   -18776953.678 7 -14559823.994 8
  21993841.787   -13333875.193 6 -10320586.585 6
 94  2 17 22 41 29.9980000  0  7 27 18  2  7 16 19 31
  20205606.857   -22238709.690 7 -17261282.685 8
  21758161.701   -12911667.156 6  -9968004.024 6
  21546506.068   -15801202.053 6 -12232355.692 6
  24139084.912    -1134907.549 4   -757941.025 1
  23505197.967    -3836541.194 4  -2423723.645 1
  20459236.420   -18759559.242 7 -14546269.891 8
  22002916.561   -13286224.721 6 -10283456.356 6
 94  2 17 22 41 59.9980000  0  7 27 18  2  7 16 19 31
  20199881.975   -22268759.949 7 -17284698.458 8
  21775699.936   -12819506.257 6  -9896190.389 6
  21536586.709   -15853335.826 6 -12272979.350 6
  24118535.787    -1242901.501 4   -842091.990 1
  23506280.857    -3830861.684 5  -2419298.092 2
  20462601.029   -18741882.955 7 -14532496.163 8
  22012089.771   -13238003.081 6 -10245881.069 6
 94  2 17 22 42 29.9980000  0  7 27 18  2  7 16 19 31
  20194209.365   -22298556.018 7 -17307916.157 8
  21793295.334   -12727020.604 6  -9824123.701 6
  21526735.514   -15905145.326 6 -12313350.326 6
  24097985.357    -1350866.483 3   -926220.427 2
  23507456.975    -3824638.516 4  -2414448.839 2
  20466013.975   -18723947.729 7 -14518520.670 8
  22021368.170   -13189229.807 6 -10207875.936 6
 94  2 17 22 42 59.9980000  0  7 27 18  2  7 16 19 31
  20188593.256   -22328093.399 7 -17330932.278 8
  21810954.646   -12634232.147 6  -9751821.076 6
  21516933.545   -15956638.142 6 -12353474.543 6
  24077442.014    -1458808.926 3  -1010331.292 1
  23508741.225    -3817892.153 4  -2409191.992 2
  20469473.529   -18705760.373 7 -14504348.720 8
  22030761.607   -13139930.482 6 -10169460.899 6
 94  2 17 22 43 29.9980000  0  7 27 18  2  7 16 19 31
  20183021.686   -22357366.946 7 -17353742.826 8
  21828669.295   -12541148.371 6  -9679288.311 6
  21507183.436   -16007828.198 6 -12393362.838 6
  24056905.654    -1566731.064 4  -1094426.393 1
  23510129.975    -3810630.254 5  -2403533.366 1
  20472981.420   -18687323.140 7 -14489982.046 8
  22040241.982   -13090103.462 6 -10130634.662 6
 94  2 17 22 43 59.9980000  0  7 27 18  2  7 16 19 31
  20177505.186   -22386358.822 7 -17376333.894 8
  21846443.076   -12447769.248 6  -9606525.418 6
  21497504.107   -16058723.086 6 -12433021.134 6
  24036377.084    -1674622.620 4  -1178497.669 1
  23511605.818    -3802856.128 4  -2397475.622 1
  20476538.928   -18668644.805 7 -14475427.502 8
  22049826.857   -13039720.839 6 -10091375.477 6
 94  2 17 22 44 29.9980000  0  7 27 18  2  7 16 19 31
  20172044.615   -22415072.575 7 -17398708.236 8
  21864262.678   -12354089.053 6  -9533527.912 6
  21487870.272   -16109334.641 6 -12472458.658 6
  24015846.756    -1782489.101 4  -1262549.315 1
  23513182.615    -3794573.711 4  -2391021.815 1
  20480137.826   -18649717.627 7 -14460679.060 8
  22059526.053   -12988768.331 6 -10051672.226 6
 94  2 17 22 44 59.9980000  0  7 27 18  2  7 16 19 31
  20166638.436   -22443518.274 7 -17420873.700 8
  21882153.662   -12260084.234 6  -9460277.466 6
  21478294.662   -16159658.136 6 -12511671.717 6
  23995324.201    -1890319.370 4  -1346572.851 1
  23514855.818    -3785759.399 5  -2384153.528 1
  20483795.600   -18630517.043 7 -14445717.573 8
  22069332.936   -12937236.315 6 -10011517.407 6
 94  2 17 22 45 29.9980000  0  7 27 18  2  7 16 19 31
  20161273.037   -22471692.716 7 -17442827.809 8
  21900105.186   -12165747.151 6  -9386768.112 6
  21468776.873   -16209705.081 6 -12550669.293 6
  23974815.615    -1998099.733 4  -1430557.447 2
  23516635.436    -3776418.977 5  -2376875.276 2
  20487498.100   -18611039.884 7 -14430540.564 8
  22079246.709   -12885117.063 6  -9970905.005 6
 94  2 17 22 45 59.9980000  0  7 27 18  2  7 16 19 31
  20155961.779   -22499605.599 7 -17464578.100 8
  21918125.092   -12071073.317 6  -9312996.354 6
  21459303.842   -16259469.987 6 -12589447.099 7
  23954323.131    -2105820.017 5  -1514495.235 2
  23518512.904    -3766562.455 5  -2369194.941 1
  20491265.498   -18591274.734 7 -14415139.156 8
  22089268.779   -12832431.520 6  -9929851.340 6
 94  2 17 22 46 29.9980000  0  7 27 18  2  7 16 19 31
  20150694.514   -22527261.375 7 -17486128.049 8
  21936199.037   -11976072.706 6  -9238969.951 6
  21449888.107   -16308929.597 6 -12627987.013 7
  23933835.084    -2213481.411 5  -1598387.147 2
  23520488.967    -3756190.014 5  -2361112.524 1
  20495081.646   -18571204.391 7 -14399499.937 8
  22099403.943   -12779208.350 6  -9888378.754 5
 94  2 17 22 46 59.9980000  0  7 27 18  2  7 16 19 31
  20145484.147   -22554651.005 7 -17507470.621 8
  21954338.029   -11880766.840 6  -9164705.701 6
  21440535.553   -16358075.135 6 -12666282.201 7
  23913357.365    -2321083.330 4  -1682232.675 1
  23522555.904    -3745309.618 4  -2352634.314 1
  20498956.123   -18550836.175 7 -14383628.611 8
  22109619.732   -12725456.644 6  -9846494.310 6
 94  2 17 22 47 29.9980000  0  7 27 18  2  7 16 19 31
  20140321.475   -22581759.234 7 -17528593.915 8
  21972526.967   -11785168.465 6  -9090213.522 6
  21431250.271   -16406900.980 6 -12704328.278 7
  23892890.287    -2428626.337 5  -1766032.308 1
  23524723.147    -3733926.586 5  -2343764.449 2
  20502889.162   -18530176.805 7 -14367530.400 8
  22119964.311   -12671159.364 6  -9804184.739 5
 94  2 17 22 47 59.9980000  0  7 27 18  2  7 16 19 31
  20135212.037   -22608594.523 7 -17549504.526 8
  21990772.561   -11689285.622 6  -9015499.676 6
  21422014.061   -16455402.514 6 -12742121.645 7
  23872436.834    -2536131.838 5  -1849802.651 2
  23526994.709    -3722027.620 5  -2334492.528 1
  20506869.740   -18509248.314 7 -14351222.492 7
  22130399.295   -12616327.807 6  -9761458.859 6
 94  2 17 22 48 29.9980000  0  7 27 18  2  7 16 19 31
  20130165.131   -22635154.485 7 -17570200.586 8
  22009074.818   -11593103.684 6  -8940552.776 6
  21412852.029   -16503588.421 6 -12779669.066 7
  23851981.092    -2643602.614 5  -1933545.920 1
  23529353.146    -3709607.570 5  -2324814.593 2
  20510899.342   -18488072.611 7 -14334721.951 7
  22140930.045   -12560949.927 6  -9718307.272 5
 94  2 17 22 48 59.9980000  0  7 27 18  2  7 16 19 31
  20125155.732   -22661441.306 7 -17590683.814 8
  22027432.279   -11496608.642 6  -8865361.894 6
  21403731.975   -16551490.175 6 -12816995.065 7
  23831533.498    -2751038.263 5  -2017261.785 2
  23531805.529    -3696678.976 5  -2314740.372 1
  20514972.326   -18466667.481 7 -14318042.630 7
  22151583.811   -12505015.588 6  -9674722.079 6
 94  2 17 22 49 29.9980000  0  7 27 18  2  7 16 19 31
  20120209.420   -22687456.283 7 -17610955.217 8
  22045866.771   -11399786.748 6  -8789916.328 6
  21394668.701   -16599115.121 6 -12854105.375 7
  23811107.186    -2858426.509 5  -2100940.670 2
  23534366.193    -3683234.656 5  -2304264.320 1
  20519087.357   -18445037.143 7 -14301187.823 7
  22162322.865   -12448529.645 6  -9630707.073 6
 94  2 17 22 49 59.9980000  0  7 27 18  2  7 16 19 31
  20115310.740   -22713187.787 7 -17631005.732 8
  22064346.881   -11302634.030 6  -8714212.964 6
  21385658.912   -16646448.159 6 -12890988.223 7
  23790681.311    -2965752.738 5  -2184571.236 2
  23537022.428    -3669274.140 5  -2293386.042 2
  20523248.826   -18423177.596 7 -14284154.420 7
  22173183.115   -12391504.980 6  -9586272.279 6
 94  2 17 22 50 29.9980000  0  7 27 18  2  7 16 19 31
  20110475.217   -22738630.086 7 -17650830.893 8
  22082896.529   -11205161.888 6  -8638260.709 5
  21376714.428   -16693488.145 6 -12927642.705 7
  23770274.318    -3072993.324 5  -2268135.049 2
  23539772.600    -3654807.703 5  -2282113.515 1
  20527457.631   -18401075.954 7 -14266932.367 7
  22184134.803   -12333941.549 6  -9541417.666 6
 94  2 17 22 50 59.9980000  0  7 27 18  2  7 16 19 31
  20105682.334   -22763789.519 7 -17670435.634 8
  22101500.826   -11107401.116 6  -8562083.533 5
  21367811.678   -16740233.501 6 -12964067.615 7
  23749880.459    -3180155.538 5  -2351637.767 3
  23542621.943    -3639833.062 4  -2270444.982 2
  20531712.100   -18378722.052 7 -14249513.747 7
  22195186.037   -12275854.192 6  -9496154.809 6
 94  2 17 22 51 29.9980000  0  7 27 18  2  7 16 19 31
  20100946.092   -22788666.523 7 -17689820.304 8
  22120159.201   -11009366.875 6  -8485693.275 5
  21358984.748   -16786652.399 6 -13000238.132 7
  23729498.303    -3287239.995 5  -2435079.897 3
  23545580.795    -3624330.967 4  -2258365.426 2
  20536013.623   -18356103.422 7 -14231888.847 7
  22206340.850   -12217243.451 6  -9450484.117 6
 94  2 17 22 51 59.9980000  0  7 27 18  2  7 16 19 31
  20096273.209   -22813275.580 7 -17708996.182 8
  22138863.834   -10911070.807 6  -8409098.999 5
  21350210.842   -16832748.492 6 -13036157.113 7
  23709144.248    -3394251.794 5  -2518465.436 2
  23548624.389    -3608302.668 4  -2245875.884 1
  20540371.561   -18333198.927 7 -14214041.194 7
  22217594.029   -12158111.893 6  -9404407.618 6
 94  2 17 22 52 29.9980000  0  7 27 18  2  7 16 19 31
  20091640.443   -22837615.541 7 -17727962.377 8
  22157619.592   -10812502.133 6  -8332292.302 5
  21341496.326   -16878535.563 6 -13071835.302 7
  23688785.717    -3501191.297 5  -2601794.635 4
  23551778.904    -3591740.518 4  -2232970.350 1
  20544787.529   -18309985.234 7 -14195952.609 7
  22228948.365   -12098455.792 6  -9357922.368 6
 94  2 17 22 52 59.9980000  0  7 27 18  2  7 16 19 31
  20087052.279   -22861701.844 7 -17746730.925 8
  22176423.412   -10713675.707 6  -8255284.757 5
  21332840.936   -16924028.362 6 -13107284.183 7
  23668450.771    -3608082.059 5  -2685085.859 3
  23555035.514    -3574668.822 4  -2219667.773 1
  20549263.795   -18286481.136 7 -14177637.737 7
  22240388.826   -12038292.988 6  -9311042.283 6
 94  2 17 22 53 29.9980000  0  7 27 18  2  7 16 19 31
  20082522.193   -22885525.760 7 -17765295.006 8
  22195283.295   -10614584.509 6  -8178070.896 5
  21324237.936   -16969231.072 6 -13142507.024 7
  23648120.592    -3714908.376 5  -2768326.897 3
  23558376.779    -3557108.435 4  -2205984.397 1
  20553788.014   -18262692.568 7 -14159101.199 7
  22251939.678   -11977629.465 6  -9263772.030 6
 94  2 17 22 53 59.9980000  0  7 27 18  2  7 16 19 31
  20078036.287   -22909071.672 7 -17783642.469 8
  22214191.803   -10515209.507 6  -8100635.898 5
  21315690.272   -17014165.607 7 -13177520.906 7
  23627809.295    -3821654.575 5  -2851505.509 3
  23561809.936    -3539076.104 4  -2191933.265 1
  20558366.545   -18238618.910 7 -14140342.511 7
  22263577.162   -11916456.508 6  -9216104.811 6
 94  2 17 22 54 29.9980000  0  7 27 18  2  7 16 19 31
  20073607.865   -22932337.258 7 -17801771.498 8
  22233154.732   -10415563.133 6  -8022989.422 5
  21307191.107   -17058821.006 7 -13212317.282 7
  23607507.834    -3928312.414 5  -2934615.281 2
  23565317.897    -3520586.730 3  -2177525.988 2
  20563001.186   -18214290.617 7 -14121385.406 7
  22275313.873   -11854783.530 6  -9168047.977 6
 94  2 17 22 54 59.9980000  0  7 27 18  2  7 16 19 31
  20069238.670   -22955315.256 7 -17819676.445 8
  22252166.568   -10315639.713 6  -7945127.083 5
  21298751.600   -17103162.893 7 -13246869.358 7
  23587233.146    -4034853.683 5  -3017634.254 4
  23568931.467    -3501620.803 4  -2162747.362 2
  20567683.334   -18189701.855 7 -14102225.335 7
  22287155.834   -11792580.833 6  -9119578.380 6
 94  2 17 22 55 29.9980000  0  7 27 18  2  7 16 19 31
  20064922.732   -22977989.177 7 -17837344.434 8
  22271241.490   -10215414.988 6  -7867029.950 5
  21290374.295   -17147174.162 7 -13281163.820 7
  23566986.912    -4141259.311 5  -3100547.554 3
  23572639.225    -3482150.114 4  -2147575.422 2
  20572409.482   -18164816.202 7 -14082833.922 7
  22299100.850   -11729819.726 6  -9070673.643 6
 94  2 17 22 55 59.9980000  0  7 27 18  2  7 16 19 31
  20060662.107   -23000353.655 7 -17854771.302 8
  22290366.522   -10114899.089 6  -7788705.927 5
  21282066.334   -17190851.432 7 -13315198.019 7
  23546762.279    -4247544.268 5  -3183366.832 4
  23576441.240    -3462159.215 5  -2131998.124 2
  20577200.482   -18139623.865 7 -14063203.541 7
  22311143.318   -11666503.795 6  -9021336.569 5
 94  2 17 22 56 29.9980000  0  7 27 18  2  7 16 19 31
  20056467.178   -23022414.869 7 -17871961.859 8
  22309543.287   -10014111.875 6  -7710170.497 5
  21273819.631   -17234186.656 7 -13348965.700 7
  23526552.264    -4353727.862 5  -3266107.161 4
  23580336.365    -3441641.290 4  -2116010.163 2
  20582057.084   -18114130.311 7 -14043338.447 7
  22323290.404   -11602654.994 6  -8971584.276 6
 94  2 17 22 56 59.9980000  0  7 27 18  2  7 16 19 31
  20052331.834   -23044154.274 7 -17888901.663 8
  22328786.420    -9913032.893 6  -7631407.722 5
  21265637.068   -17277191.442 7 -13382475.898 7
  23506364.443    -4459819.386 5  -3348775.743 3
  23584344.404    -3420589.088 3  -2099605.878 2
  20586971.881   -18088314.342 7 -14023222.116 7
  22335543.084   -11538262.031 6  -8921407.959 6
 94  2 17 22 57 29.9980000  0  7 27 18  2  7 16 19 31
  20048261.842   -23065537.502 7 -17905563.923 8
  22348077.217    -9811638.855 6  -7552399.448 5
  21257511.857   -17319861.807 7 -13415725.523 7
  23486196.271    -4565795.533 5  -3431354.464 3
  23588459.131    -3399001.785 3  -2082784.649 2
  20591947.951   -18062173.390 7 -14002852.549 7
  22347902.678   -11473331.803 6  -8870812.998 6
 94  2 17 22 57 59.9980000  0  7 27 18  2  7 16 19 31
  20044258.686   -23086561.813 7 -17921946.511 8
  22367433.467    -9709929.110 6  -7473145.166 5
  21249462.951   -17362186.597 7 -13448705.858 7
  23466059.701    -4671639.901 5  -3513830.495 3
  23592658.420    -3376882.425 4  -2065548.779 1
  20596980.389   -18035726.713 7 -13982244.749 7
  22360356.600   -11407874.628 6  -8819807.425 6
 94  2 17 22 58 29.9980000  0  7 27 18  2  7 16 19 31
  20040328.818   -23107247.971 7 -17938065.584 8
  22386844.264    -9607902.424 6  -7393643.915 5
  21241473.428   -17404161.399 7 -13481413.483 7
  23445948.943    -4777334.838 5  -3596190.105 4
  23596976.365    -3354243.069 4  -2047907.783 1
  20602067.342   -18008974.794 7 -13961399.103 7
  22372916.553   -11341882.541 6  -8768385.031 6
 94  2 17 22 58 59.9980000  0  7 27 18  2  7 16 19 31
  20036451.287   -23127606.888 7 -17953929.674 8
  22406320.584    -9505567.928 6  -7313902.812 5
  21233551.240   -17445787.672 7 -13513849.523 7
  23425860.201    -4882862.290 5  -3678419.193 4
  23601373.217    -3331097.080 4  -2029871.988 2
  20607218.092   -17981925.233 7 -13940321.527 7
  22385571.771   -11275354.689 6  -8716545.158 6
 94  2 17 22 59 29.9980000  0  7 27 18  2  7 16 19 31
  20032640.529   -23147656.301 7 -17969552.587 8
  22425851.365    -9402953.359 6  -7233943.485 5
  21225698.178   -17487065.990 7 -13546014.432 7
  23405815.482    -4988223.245 5  -3760518.561 4
  23605878.936    -3307460.823 5  -2011454.135 1
  20612417.271   -17954588.299 7 -13919020.027 7
  22398332.623   -11208309.844 6  -8664302.438 6
